<?xml version="1.0" encoding="UTF-8" standalone="no" ?>
<gpx xmlns="http://www.topografix.com/GPX/1/1" xmlns:xsi="http://www.w3.org/2001/XMLSchema-instance" xsi:schemaLocation="http://www.topografix.com/GPX/1/1 http://www.topografix.com/GPX/1/1/gpx.xsd" version="1.1" creator="VisuGPX - https://www.visugpx.com">
  <metadata>
    <name>Champagnat Cyclisme sur route</name>
  </metadata>
  <trk>
    <name><![CDATA[Champagnat Cyclisme sur route_1]]></name>
    <trkseg>
      <trkpt lat="46.48272" lon="5.3684">
        <ele>272</ele>
        <time>2022-03-24T13:08:11Z</time>
      </trkpt>
      <trkpt lat="46.48263" lon="5.36828">
        <ele>271.4</ele>
        <time>2022-03-24T13:08:12Z</time>
      </trkpt>
      <trkpt lat="46.48244" lon="5.36808">
        <ele>270</ele>
        <time>2022-03-24T13:08:14Z</time>
      </trkpt>
      <trkpt lat="46.48223" lon="5.3679">
        <ele>268.2</ele>
        <time>2022-03-24T13:08:16Z</time>
      </trkpt>
      <trkpt lat="46.482" lon="5.36773">
        <ele>267</ele>
        <time>2022-03-24T13:08:18Z</time>
      </trkpt>
      <trkpt lat="46.4818" lon="5.36756">
        <ele>265.4</ele>
        <time>2022-03-24T13:08:20Z</time>
      </trkpt>
      <trkpt lat="46.48169" lon="5.36747">
        <ele>264.2</ele>
        <time>2022-03-24T13:08:21Z</time>
      </trkpt>
      <trkpt lat="46.48148" lon="5.3673">
        <ele>262.4</ele>
        <time>2022-03-24T13:08:23Z</time>
      </trkpt>
      <trkpt lat="46.48138" lon="5.36722">
        <ele>261.8</ele>
        <time>2022-03-24T13:08:24Z</time>
      </trkpt>
      <trkpt lat="46.48128" lon="5.36715">
        <ele>260.8</ele>
        <time>2022-03-24T13:08:25Z</time>
      </trkpt>
      <trkpt lat="46.48118" lon="5.3671">
        <ele>260.6</ele>
        <time>2022-03-24T13:08:26Z</time>
      </trkpt>
      <trkpt lat="46.4811" lon="5.36704">
        <ele>259.8</ele>
        <time>2022-03-24T13:08:27Z</time>
      </trkpt>
      <trkpt lat="46.48105" lon="5.36696">
        <ele>259</ele>
        <time>2022-03-24T13:08:28Z</time>
      </trkpt>
      <trkpt lat="46.48104" lon="5.36686">
        <ele>258.8</ele>
        <time>2022-03-24T13:08:29Z</time>
      </trkpt>
      <trkpt lat="46.48106" lon="5.36677">
        <ele>257.8</ele>
        <time>2022-03-24T13:08:30Z</time>
      </trkpt>
      <trkpt lat="46.4811" lon="5.36669">
        <ele>257.2</ele>
        <time>2022-03-24T13:08:31Z</time>
      </trkpt>
      <trkpt lat="46.48116" lon="5.36662">
        <ele>256.4</ele>
        <time>2022-03-24T13:08:32Z</time>
      </trkpt>
      <trkpt lat="46.48138" lon="5.36644">
        <ele>254.8</ele>
        <time>2022-03-24T13:08:35Z</time>
      </trkpt>
      <trkpt lat="46.48144" lon="5.36638">
        <ele>254.4</ele>
        <time>2022-03-24T13:08:36Z</time>
      </trkpt>
      <trkpt lat="46.48157" lon="5.36624">
        <ele>253.8</ele>
        <time>2022-03-24T13:08:38Z</time>
      </trkpt>
      <trkpt lat="46.48172" lon="5.36611">
        <ele>253.6</ele>
        <time>2022-03-24T13:08:40Z</time>
      </trkpt>
      <trkpt lat="46.48181" lon="5.36606">
        <ele>253.4</ele>
        <time>2022-03-24T13:08:41Z</time>
      </trkpt>
      <trkpt lat="46.48193" lon="5.36603">
        <ele>253.4</ele>
        <time>2022-03-24T13:08:42Z</time>
      </trkpt>
      <trkpt lat="46.4821" lon="5.36596">
        <ele>253.2</ele>
        <time>2022-03-24T13:08:44Z</time>
      </trkpt>
      <trkpt lat="46.48219" lon="5.36579">
        <ele>253</ele>
        <time>2022-03-24T13:08:46Z</time>
      </trkpt>
      <trkpt lat="46.48226" lon="5.36558">
        <ele>252.6</ele>
        <time>2022-03-24T13:08:48Z</time>
      </trkpt>
      <trkpt lat="46.48231" lon="5.3655">
        <ele>252.4</ele>
        <time>2022-03-24T13:08:49Z</time>
      </trkpt>
      <trkpt lat="46.48256" lon="5.36523">
        <ele>251.6</ele>
        <time>2022-03-24T13:08:53Z</time>
      </trkpt>
      <trkpt lat="46.4827" lon="5.36509">
        <ele>251.2</ele>
        <time>2022-03-24T13:08:55Z</time>
      </trkpt>
      <trkpt lat="46.48276" lon="5.36502">
        <ele>251.2</ele>
        <time>2022-03-24T13:08:56Z</time>
      </trkpt>
      <trkpt lat="46.48289" lon="5.36488">
        <ele>250.6</ele>
        <time>2022-03-24T13:08:58Z</time>
      </trkpt>
      <trkpt lat="46.48322" lon="5.36452">
        <ele>249.4</ele>
        <time>2022-03-24T13:09:03Z</time>
      </trkpt>
      <trkpt lat="46.48342" lon="5.3643">
        <ele>248.8</ele>
        <time>2022-03-24T13:09:06Z</time>
      </trkpt>
      <trkpt lat="46.48356" lon="5.36416">
        <ele>248.4</ele>
        <time>2022-03-24T13:09:08Z</time>
      </trkpt>
      <trkpt lat="46.48377" lon="5.36393">
        <ele>247.2</ele>
        <time>2022-03-24T13:09:11Z</time>
      </trkpt>
      <trkpt lat="46.48405" lon="5.36365">
        <ele>246.4</ele>
        <time>2022-03-24T13:09:15Z</time>
      </trkpt>
      <trkpt lat="46.48413" lon="5.36359">
        <ele>246.2</ele>
        <time>2022-03-24T13:09:16Z</time>
      </trkpt>
      <trkpt lat="46.48436" lon="5.36349">
        <ele>245.8</ele>
        <time>2022-03-24T13:09:19Z</time>
      </trkpt>
      <trkpt lat="46.48482" lon="5.36341">
        <ele>245.4</ele>
        <time>2022-03-24T13:09:25Z</time>
      </trkpt>
      <trkpt lat="46.48519" lon="5.36335">
        <ele>245.2</ele>
        <time>2022-03-24T13:09:30Z</time>
      </trkpt>
      <trkpt lat="46.48554" lon="5.3633">
        <ele>244.8</ele>
        <time>2022-03-24T13:09:35Z</time>
      </trkpt>
      <trkpt lat="46.48609" lon="5.36321">
        <ele>244</ele>
        <time>2022-03-24T13:09:42Z</time>
      </trkpt>
      <trkpt lat="46.48617" lon="5.36318">
        <ele>243.8</ele>
        <time>2022-03-24T13:09:43Z</time>
      </trkpt>
      <trkpt lat="46.48624" lon="5.36312">
        <ele>243.4</ele>
        <time>2022-03-24T13:09:44Z</time>
      </trkpt>
      <trkpt lat="46.48631" lon="5.36303">
        <ele>243.4</ele>
        <time>2022-03-24T13:09:45Z</time>
      </trkpt>
      <trkpt lat="46.48636" lon="5.36292">
        <ele>242.8</ele>
        <time>2022-03-24T13:09:46Z</time>
      </trkpt>
      <trkpt lat="46.48638" lon="5.3628">
        <ele>242.4</ele>
        <time>2022-03-24T13:09:47Z</time>
      </trkpt>
      <trkpt lat="46.48639" lon="5.36267">
        <ele>242.2</ele>
        <time>2022-03-24T13:09:48Z</time>
      </trkpt>
      <trkpt lat="46.4864" lon="5.36257">
        <ele>241.8</ele>
        <time>2022-03-24T13:09:49Z</time>
      </trkpt>
      <trkpt lat="46.48641" lon="5.36243">
        <ele>241.2</ele>
        <time>2022-03-24T13:09:50Z</time>
      </trkpt>
      <trkpt lat="46.48643" lon="5.36227">
        <ele>241</ele>
        <time>2022-03-24T13:09:51Z</time>
      </trkpt>
      <trkpt lat="46.48645" lon="5.3619">
        <ele>239.8</ele>
        <time>2022-03-24T13:09:54Z</time>
      </trkpt>
      <trkpt lat="46.48648" lon="5.36161">
        <ele>239.4</ele>
        <time>2022-03-24T13:09:56Z</time>
      </trkpt>
      <trkpt lat="46.4865" lon="5.36136">
        <ele>238.8</ele>
        <time>2022-03-24T13:09:58Z</time>
      </trkpt>
      <trkpt lat="46.48652" lon="5.36123">
        <ele>238.6</ele>
        <time>2022-03-24T13:09:59Z</time>
      </trkpt>
      <trkpt lat="46.48657" lon="5.36101">
        <ele>238</ele>
        <time>2022-03-24T13:10:01Z</time>
      </trkpt>
      <trkpt lat="46.48669" lon="5.36044">
        <ele>237.6</ele>
        <time>2022-03-24T13:10:06Z</time>
      </trkpt>
      <trkpt lat="46.48672" lon="5.36032">
        <ele>237.6</ele>
        <time>2022-03-24T13:10:07Z</time>
      </trkpt>
      <trkpt lat="46.48678" lon="5.35989">
        <ele>237.8</ele>
        <time>2022-03-24T13:10:12Z</time>
      </trkpt>
      <trkpt lat="46.48679" lon="5.3598">
        <ele>238</ele>
        <time>2022-03-24T13:10:13Z</time>
      </trkpt>
      <trkpt lat="46.48684" lon="5.35953">
        <ele>238.6</ele>
        <time>2022-03-24T13:10:16Z</time>
      </trkpt>
      <trkpt lat="46.48689" lon="5.3592">
        <ele>238.6</ele>
        <time>2022-03-24T13:10:19Z</time>
      </trkpt>
      <trkpt lat="46.48695" lon="5.359">
        <ele>238.8</ele>
        <time>2022-03-24T13:10:21Z</time>
      </trkpt>
      <trkpt lat="46.48718" lon="5.35839">
        <ele>238.6</ele>
        <time>2022-03-24T13:10:27Z</time>
      </trkpt>
      <trkpt lat="46.48731" lon="5.3581">
        <ele>238</ele>
        <time>2022-03-24T13:10:30Z</time>
      </trkpt>
      <trkpt lat="46.48743" lon="5.3578">
        <ele>237.6</ele>
        <time>2022-03-24T13:10:33Z</time>
      </trkpt>
      <trkpt lat="46.48747" lon="5.3577">
        <ele>237.4</ele>
        <time>2022-03-24T13:10:34Z</time>
      </trkpt>
      <trkpt lat="46.48767" lon="5.35723">
        <ele>236.8</ele>
        <time>2022-03-24T13:10:39Z</time>
      </trkpt>
      <trkpt lat="46.48771" lon="5.35714">
        <ele>236.8</ele>
        <time>2022-03-24T13:10:40Z</time>
      </trkpt>
      <trkpt lat="46.48794" lon="5.35659">
        <ele>236.8</ele>
        <time>2022-03-24T13:10:46Z</time>
      </trkpt>
      <trkpt lat="46.48804" lon="5.35633">
        <ele>236.6</ele>
        <time>2022-03-24T13:10:49Z</time>
      </trkpt>
      <trkpt lat="46.48814" lon="5.35609">
        <ele>236.4</ele>
        <time>2022-03-24T13:10:52Z</time>
      </trkpt>
      <trkpt lat="46.48828" lon="5.35577">
        <ele>236.2</ele>
        <time>2022-03-24T13:10:56Z</time>
      </trkpt>
      <trkpt lat="46.4884" lon="5.35565">
        <ele>236.2</ele>
        <time>2022-03-24T13:10:58Z</time>
      </trkpt>
      <trkpt lat="46.48847" lon="5.35562">
        <ele>236.2</ele>
        <time>2022-03-24T13:10:59Z</time>
      </trkpt>
      <trkpt lat="46.48862" lon="5.35559">
        <ele>236.2</ele>
        <time>2022-03-24T13:11:01Z</time>
      </trkpt>
      <trkpt lat="46.48908" lon="5.35559">
        <ele>236</ele>
        <time>2022-03-24T13:11:07Z</time>
      </trkpt>
      <trkpt lat="46.48933" lon="5.35558">
        <ele>235.6</ele>
        <time>2022-03-24T13:11:10Z</time>
      </trkpt>
      <trkpt lat="46.48976" lon="5.35554">
        <ele>234.8</ele>
        <time>2022-03-24T13:11:15Z</time>
      </trkpt>
      <trkpt lat="46.48993" lon="5.35553">
        <ele>234.2</ele>
        <time>2022-03-24T13:11:17Z</time>
      </trkpt>
      <trkpt lat="46.49039" lon="5.35552">
        <ele>233.8</ele>
        <time>2022-03-24T13:11:23Z</time>
      </trkpt>
      <trkpt lat="46.49078" lon="5.35551">
        <ele>234</ele>
        <time>2022-03-24T13:11:29Z</time>
      </trkpt>
      <trkpt lat="46.49093" lon="5.35551">
        <ele>234.2</ele>
        <time>2022-03-24T13:11:32Z</time>
      </trkpt>
      <trkpt lat="46.49098" lon="5.35552">
        <ele>234.2</ele>
        <time>2022-03-24T13:11:33Z</time>
      </trkpt>
      <trkpt lat="46.49131" lon="5.3555">
        <ele>234.6</ele>
        <time>2022-03-24T13:11:39Z</time>
      </trkpt>
      <trkpt lat="46.49156" lon="5.35548">
        <ele>235.4</ele>
        <time>2022-03-24T13:11:43Z</time>
      </trkpt>
      <trkpt lat="46.49161" lon="5.35547">
        <ele>235.6</ele>
        <time>2022-03-24T13:11:44Z</time>
      </trkpt>
      <trkpt lat="46.49171" lon="5.35547">
        <ele>235.8</ele>
        <time>2022-03-24T13:11:46Z</time>
      </trkpt>
      <trkpt lat="46.49179" lon="5.35547">
        <ele>236.2</ele>
        <time>2022-03-24T13:11:47Z</time>
      </trkpt>
      <trkpt lat="46.4919" lon="5.35546">
        <ele>236.6</ele>
        <time>2022-03-24T13:11:49Z</time>
      </trkpt>
      <trkpt lat="46.49201" lon="5.35545">
        <ele>237</ele>
        <time>2022-03-24T13:11:51Z</time>
      </trkpt>
      <trkpt lat="46.49226" lon="5.35543">
        <ele>237.6</ele>
        <time>2022-03-24T13:11:55Z</time>
      </trkpt>
      <trkpt lat="46.4924" lon="5.35542">
        <ele>237.6</ele>
        <time>2022-03-24T13:11:57Z</time>
      </trkpt>
      <trkpt lat="46.49292" lon="5.35539">
        <ele>237.4</ele>
        <time>2022-03-24T13:12:05Z</time>
      </trkpt>
      <trkpt lat="46.49305" lon="5.35539">
        <ele>237.4</ele>
        <time>2022-03-24T13:12:07Z</time>
      </trkpt>
      <trkpt lat="46.49345" lon="5.35537">
        <ele>237.2</ele>
        <time>2022-03-24T13:12:13Z</time>
      </trkpt>
      <trkpt lat="46.49391" lon="5.35541">
        <ele>236.6</ele>
        <time>2022-03-24T13:12:19Z</time>
      </trkpt>
      <trkpt lat="46.49429" lon="5.35553">
        <ele>236.2</ele>
        <time>2022-03-24T13:12:24Z</time>
      </trkpt>
      <trkpt lat="46.49436" lon="5.35556">
        <ele>236.2</ele>
        <time>2022-03-24T13:12:25Z</time>
      </trkpt>
      <trkpt lat="46.49491" lon="5.35577">
        <ele>235.4</ele>
        <time>2022-03-24T13:12:33Z</time>
      </trkpt>
      <trkpt lat="46.49549" lon="5.35601">
        <ele>235.2</ele>
        <time>2022-03-24T13:12:41Z</time>
      </trkpt>
      <trkpt lat="46.49563" lon="5.35606">
        <ele>235.2</ele>
        <time>2022-03-24T13:12:43Z</time>
      </trkpt>
      <trkpt lat="46.49592" lon="5.35615">
        <ele>234.6</ele>
        <time>2022-03-24T13:12:47Z</time>
      </trkpt>
      <trkpt lat="46.49606" lon="5.3562">
        <ele>234.4</ele>
        <time>2022-03-24T13:12:49Z</time>
      </trkpt>
      <trkpt lat="46.49628" lon="5.35626">
        <ele>234</ele>
        <time>2022-03-24T13:12:52Z</time>
      </trkpt>
      <trkpt lat="46.49663" lon="5.35636">
        <ele>233</ele>
        <time>2022-03-24T13:12:57Z</time>
      </trkpt>
      <trkpt lat="46.49676" lon="5.35641">
        <ele>232.4</ele>
        <time>2022-03-24T13:12:59Z</time>
      </trkpt>
      <trkpt lat="46.49694" lon="5.35647">
        <ele>232</ele>
        <time>2022-03-24T13:13:02Z</time>
      </trkpt>
      <trkpt lat="46.49698" lon="5.35646">
        <ele>231.6</ele>
        <time>2022-03-24T13:13:03Z</time>
      </trkpt>
      <trkpt lat="46.49701" lon="5.35643">
        <ele>231.2</ele>
        <time>2022-03-24T13:13:04Z</time>
      </trkpt>
      <trkpt lat="46.49706" lon="5.35632">
        <ele>230.8</ele>
        <time>2022-03-24T13:13:06Z</time>
      </trkpt>
      <trkpt lat="46.49708" lon="5.35625">
        <ele>230.6</ele>
        <time>2022-03-24T13:13:07Z</time>
      </trkpt>
      <trkpt lat="46.49711" lon="5.35597">
        <ele>230</ele>
        <time>2022-03-24T13:13:10Z</time>
      </trkpt>
      <trkpt lat="46.49715" lon="5.35567">
        <ele>229.6</ele>
        <time>2022-03-24T13:13:13Z</time>
      </trkpt>
      <trkpt lat="46.4972" lon="5.35525">
        <ele>229.2</ele>
        <time>2022-03-24T13:13:17Z</time>
      </trkpt>
      <trkpt lat="46.49722" lon="5.35504">
        <ele>229.2</ele>
        <time>2022-03-24T13:13:19Z</time>
      </trkpt>
      <trkpt lat="46.49726" lon="5.35461">
        <ele>229.2</ele>
        <time>2022-03-24T13:13:23Z</time>
      </trkpt>
      <trkpt lat="46.49728" lon="5.35439">
        <ele>229.2</ele>
        <time>2022-03-24T13:13:25Z</time>
      </trkpt>
      <trkpt lat="46.49736" lon="5.35373">
        <ele>228.4</ele>
        <time>2022-03-24T13:13:31Z</time>
      </trkpt>
      <trkpt lat="46.49736" lon="5.35361">
        <ele>228.2</ele>
        <time>2022-03-24T13:13:32Z</time>
      </trkpt>
      <trkpt lat="46.49733" lon="5.35309">
        <ele>228</ele>
        <time>2022-03-24T13:13:37Z</time>
      </trkpt>
      <trkpt lat="46.49723" lon="5.35254">
        <ele>228.4</ele>
        <time>2022-03-24T13:13:43Z</time>
      </trkpt>
      <trkpt lat="46.4971" lon="5.35198">
        <ele>229</ele>
        <time>2022-03-24T13:13:50Z</time>
      </trkpt>
      <trkpt lat="46.49694" lon="5.3512">
        <ele>229</ele>
        <time>2022-03-24T13:13:59Z</time>
      </trkpt>
      <trkpt lat="46.4969" lon="5.35104">
        <ele>229</ele>
        <time>2022-03-24T13:14:01Z</time>
      </trkpt>
      <trkpt lat="46.49675" lon="5.35029">
        <ele>228.6</ele>
        <time>2022-03-24T13:14:10Z</time>
      </trkpt>
      <trkpt lat="46.49665" lon="5.34971">
        <ele>228.8</ele>
        <time>2022-03-24T13:14:18Z</time>
      </trkpt>
      <trkpt lat="46.49656" lon="5.34931">
        <ele>229.6</ele>
        <time>2022-03-24T13:14:24Z</time>
      </trkpt>
      <trkpt lat="46.49645" lon="5.34883">
        <ele>230</ele>
        <time>2022-03-24T13:14:30Z</time>
      </trkpt>
      <trkpt lat="46.49635" lon="5.34822">
        <ele>229.8</ele>
        <time>2022-03-24T13:14:37Z</time>
      </trkpt>
      <trkpt lat="46.4963" lon="5.34774">
        <ele>229.6</ele>
        <time>2022-03-24T13:14:42Z</time>
      </trkpt>
      <trkpt lat="46.49631" lon="5.34719">
        <ele>228.2</ele>
        <time>2022-03-24T13:14:47Z</time>
      </trkpt>
      <trkpt lat="46.49632" lon="5.34708">
        <ele>228</ele>
        <time>2022-03-24T13:14:48Z</time>
      </trkpt>
      <trkpt lat="46.49635" lon="5.34662">
        <ele>227.2</ele>
        <time>2022-03-24T13:14:52Z</time>
      </trkpt>
      <trkpt lat="46.49637" lon="5.34638">
        <ele>226.2</ele>
        <time>2022-03-24T13:14:54Z</time>
      </trkpt>
      <trkpt lat="46.49638" lon="5.34626">
        <ele>225.8</ele>
        <time>2022-03-24T13:14:55Z</time>
      </trkpt>
      <trkpt lat="46.49641" lon="5.34602">
        <ele>224.6</ele>
        <time>2022-03-24T13:14:57Z</time>
      </trkpt>
      <trkpt lat="46.49648" lon="5.34554">
        <ele>223.4</ele>
        <time>2022-03-24T13:15:01Z</time>
      </trkpt>
      <trkpt lat="46.49658" lon="5.34504">
        <ele>222.6</ele>
        <time>2022-03-24T13:15:06Z</time>
      </trkpt>
      <trkpt lat="46.49671" lon="5.34455">
        <ele>222.8</ele>
        <time>2022-03-24T13:15:12Z</time>
      </trkpt>
      <trkpt lat="46.49677" lon="5.34434">
        <ele>223.4</ele>
        <time>2022-03-24T13:15:15Z</time>
      </trkpt>
      <trkpt lat="46.49679" lon="5.34427">
        <ele>223.4</ele>
        <time>2022-03-24T13:15:16Z</time>
      </trkpt>
      <trkpt lat="46.49694" lon="5.34382">
        <ele>224.2</ele>
        <time>2022-03-24T13:15:23Z</time>
      </trkpt>
      <trkpt lat="46.49696" lon="5.34376">
        <ele>224.6</ele>
        <time>2022-03-24T13:15:24Z</time>
      </trkpt>
      <trkpt lat="46.49698" lon="5.3437">
        <ele>224.8</ele>
        <time>2022-03-24T13:15:25Z</time>
      </trkpt>
      <trkpt lat="46.49705" lon="5.34345">
        <ele>225.8</ele>
        <time>2022-03-24T13:15:29Z</time>
      </trkpt>
      <trkpt lat="46.49717" lon="5.34315">
        <ele>226.8</ele>
        <time>2022-03-24T13:15:34Z</time>
      </trkpt>
      <trkpt lat="46.49721" lon="5.34308">
        <ele>226.8</ele>
        <time>2022-03-24T13:15:35Z</time>
      </trkpt>
      <trkpt lat="46.49744" lon="5.34258">
        <ele>226.8</ele>
        <time>2022-03-24T13:15:42Z</time>
      </trkpt>
      <trkpt lat="46.49783" lon="5.34194">
        <ele>227</ele>
        <time>2022-03-24T13:15:52Z</time>
      </trkpt>
      <trkpt lat="46.49807" lon="5.34153">
        <ele>227.2</ele>
        <time>2022-03-24T13:15:59Z</time>
      </trkpt>
      <trkpt lat="46.49828" lon="5.34117">
        <ele>227.8</ele>
        <time>2022-03-24T13:16:05Z</time>
      </trkpt>
      <trkpt lat="46.49832" lon="5.34112">
        <ele>227.8</ele>
        <time>2022-03-24T13:16:06Z</time>
      </trkpt>
      <trkpt lat="46.49842" lon="5.34095">
        <ele>227.6</ele>
        <time>2022-03-24T13:16:09Z</time>
      </trkpt>
      <trkpt lat="46.49854" lon="5.34077">
        <ele>227.6</ele>
        <time>2022-03-24T13:16:12Z</time>
      </trkpt>
      <trkpt lat="46.49877" lon="5.34046">
        <ele>227</ele>
        <time>2022-03-24T13:16:17Z</time>
      </trkpt>
      <trkpt lat="46.49906" lon="5.34014">
        <ele>227</ele>
        <time>2022-03-24T13:16:23Z</time>
      </trkpt>
      <trkpt lat="46.49928" lon="5.33988">
        <ele>227.6</ele>
        <time>2022-03-24T13:16:29Z</time>
      </trkpt>
      <trkpt lat="46.49935" lon="5.33982">
        <ele>227.8</ele>
        <time>2022-03-24T13:16:31Z</time>
      </trkpt>
      <trkpt lat="46.49954" lon="5.3396">
        <ele>228.4</ele>
        <time>2022-03-24T13:16:36Z</time>
      </trkpt>
      <trkpt lat="46.49962" lon="5.33952">
        <ele>228.6</ele>
        <time>2022-03-24T13:16:38Z</time>
      </trkpt>
      <trkpt lat="46.49979" lon="5.33934">
        <ele>229.6</ele>
        <time>2022-03-24T13:16:42Z</time>
      </trkpt>
      <trkpt lat="46.49985" lon="5.3393">
        <ele>229.8</ele>
        <time>2022-03-24T13:16:43Z</time>
      </trkpt>
      <trkpt lat="46.49999" lon="5.33915">
        <ele>230.2</ele>
        <time>2022-03-24T13:16:46Z</time>
      </trkpt>
      <trkpt lat="46.50004" lon="5.33909">
        <ele>230</ele>
        <time>2022-03-24T13:16:47Z</time>
      </trkpt>
      <trkpt lat="46.5001" lon="5.33904">
        <ele>230</ele>
        <time>2022-03-24T13:16:48Z</time>
      </trkpt>
      <trkpt lat="46.50026" lon="5.33886">
        <ele>230.2</ele>
        <time>2022-03-24T13:16:51Z</time>
      </trkpt>
      <trkpt lat="46.50038" lon="5.33875">
        <ele>230.2</ele>
        <time>2022-03-24T13:16:53Z</time>
      </trkpt>
      <trkpt lat="46.50053" lon="5.33858">
        <ele>229.8</ele>
        <time>2022-03-24T13:16:56Z</time>
      </trkpt>
      <trkpt lat="46.50098" lon="5.33808">
        <ele>229</ele>
        <time>2022-03-24T13:17:04Z</time>
      </trkpt>
      <trkpt lat="46.50109" lon="5.33796">
        <ele>228.6</ele>
        <time>2022-03-24T13:17:06Z</time>
      </trkpt>
      <trkpt lat="46.50148" lon="5.33754">
        <ele>227.8</ele>
        <time>2022-03-24T13:17:13Z</time>
      </trkpt>
      <trkpt lat="46.50172" lon="5.33727">
        <ele>227.6</ele>
        <time>2022-03-24T13:17:18Z</time>
      </trkpt>
      <trkpt lat="46.50201" lon="5.33696">
        <ele>228</ele>
        <time>2022-03-24T13:17:24Z</time>
      </trkpt>
      <trkpt lat="46.50229" lon="5.33664">
        <ele>228.4</ele>
        <time>2022-03-24T13:17:30Z</time>
      </trkpt>
      <trkpt lat="46.5024" lon="5.33652">
        <ele>228.4</ele>
        <time>2022-03-24T13:17:32Z</time>
      </trkpt>
      <trkpt lat="46.50263" lon="5.33628">
        <ele>228.2</ele>
        <time>2022-03-24T13:17:36Z</time>
      </trkpt>
      <trkpt lat="46.50302" lon="5.33586">
        <ele>227.6</ele>
        <time>2022-03-24T13:17:43Z</time>
      </trkpt>
      <trkpt lat="46.50327" lon="5.33557">
        <ele>227.2</ele>
        <time>2022-03-24T13:17:48Z</time>
      </trkpt>
      <trkpt lat="46.50338" lon="5.33547">
        <ele>227</ele>
        <time>2022-03-24T13:17:50Z</time>
      </trkpt>
      <trkpt lat="46.50387" lon="5.33495">
        <ele>226.2</ele>
        <time>2022-03-24T13:17:59Z</time>
      </trkpt>
      <trkpt lat="46.50397" lon="5.33484">
        <ele>226.2</ele>
        <time>2022-03-24T13:18:01Z</time>
      </trkpt>
      <trkpt lat="46.50436" lon="5.33438">
        <ele>225.4</ele>
        <time>2022-03-24T13:18:08Z</time>
      </trkpt>
      <trkpt lat="46.50446" lon="5.33422">
        <ele>225.2</ele>
        <time>2022-03-24T13:18:10Z</time>
      </trkpt>
      <trkpt lat="46.5045" lon="5.33414">
        <ele>225.2</ele>
        <time>2022-03-24T13:18:11Z</time>
      </trkpt>
      <trkpt lat="46.50457" lon="5.33397">
        <ele>225</ele>
        <time>2022-03-24T13:18:13Z</time>
      </trkpt>
      <trkpt lat="46.50462" lon="5.33379">
        <ele>224.8</ele>
        <time>2022-03-24T13:18:15Z</time>
      </trkpt>
      <trkpt lat="46.50465" lon="5.3336">
        <ele>224.4</ele>
        <time>2022-03-24T13:18:17Z</time>
      </trkpt>
      <trkpt lat="46.50465" lon="5.3335">
        <ele>224.2</ele>
        <time>2022-03-24T13:18:18Z</time>
      </trkpt>
      <trkpt lat="46.50466" lon="5.33341">
        <ele>224.2</ele>
        <time>2022-03-24T13:18:19Z</time>
      </trkpt>
      <trkpt lat="46.50465" lon="5.33304">
        <ele>224</ele>
        <time>2022-03-24T13:18:23Z</time>
      </trkpt>
      <trkpt lat="46.50467" lon="5.33245">
        <ele>224.2</ele>
        <time>2022-03-24T13:18:30Z</time>
      </trkpt>
      <trkpt lat="46.50467" lon="5.33195">
        <ele>224.6</ele>
        <time>2022-03-24T13:18:36Z</time>
      </trkpt>
      <trkpt lat="46.50468" lon="5.33186">
        <ele>224.6</ele>
        <time>2022-03-24T13:18:37Z</time>
      </trkpt>
      <trkpt lat="46.50467" lon="5.33158">
        <ele>224.8</ele>
        <time>2022-03-24T13:18:40Z</time>
      </trkpt>
      <trkpt lat="46.50469" lon="5.33107">
        <ele>224</ele>
        <time>2022-03-24T13:18:45Z</time>
      </trkpt>
      <trkpt lat="46.5047" lon="5.33095">
        <ele>223.6</ele>
        <time>2022-03-24T13:18:46Z</time>
      </trkpt>
      <trkpt lat="46.50472" lon="5.33046">
        <ele>222.6</ele>
        <time>2022-03-24T13:18:50Z</time>
      </trkpt>
      <trkpt lat="46.50472" lon="5.3302">
        <ele>221.6</ele>
        <time>2022-03-24T13:18:52Z</time>
      </trkpt>
      <trkpt lat="46.50473" lon="5.33007">
        <ele>221.4</ele>
        <time>2022-03-24T13:18:53Z</time>
      </trkpt>
      <trkpt lat="46.50473" lon="5.32983">
        <ele>220.4</ele>
        <time>2022-03-24T13:18:55Z</time>
      </trkpt>
      <trkpt lat="46.50473" lon="5.32953">
        <ele>219.2</ele>
        <time>2022-03-24T13:18:57Z</time>
      </trkpt>
      <trkpt lat="46.50474" lon="5.32926">
        <ele>218</ele>
        <time>2022-03-24T13:18:59Z</time>
      </trkpt>
      <trkpt lat="46.50474" lon="5.32886">
        <ele>216.6</ele>
        <time>2022-03-24T13:19:02Z</time>
      </trkpt>
      <trkpt lat="46.50475" lon="5.32833">
        <ele>215.2</ele>
        <time>2022-03-24T13:19:06Z</time>
      </trkpt>
      <trkpt lat="46.50476" lon="5.32789">
        <ele>213.6</ele>
        <time>2022-03-24T13:19:09Z</time>
      </trkpt>
      <trkpt lat="46.50476" lon="5.32751">
        <ele>212.6</ele>
        <time>2022-03-24T13:19:12Z</time>
      </trkpt>
      <trkpt lat="46.50477" lon="5.32715">
        <ele>212</ele>
        <time>2022-03-24T13:19:15Z</time>
      </trkpt>
      <trkpt lat="46.50478" lon="5.32669">
        <ele>211.6</ele>
        <time>2022-03-24T13:19:19Z</time>
      </trkpt>
      <trkpt lat="46.50478" lon="5.32623">
        <ele>210.8</ele>
        <time>2022-03-24T13:19:23Z</time>
      </trkpt>
      <trkpt lat="46.50478" lon="5.32601">
        <ele>210.6</ele>
        <time>2022-03-24T13:19:25Z</time>
      </trkpt>
      <trkpt lat="46.50473" lon="5.32522">
        <ele>209.4</ele>
        <time>2022-03-24T13:19:32Z</time>
      </trkpt>
      <trkpt lat="46.50466" lon="5.32435">
        <ele>208.4</ele>
        <time>2022-03-24T13:19:40Z</time>
      </trkpt>
      <trkpt lat="46.50464" lon="5.32424">
        <ele>208.4</ele>
        <time>2022-03-24T13:19:41Z</time>
      </trkpt>
      <trkpt lat="46.5045" lon="5.32361">
        <ele>208</ele>
        <time>2022-03-24T13:19:47Z</time>
      </trkpt>
      <trkpt lat="46.50435" lon="5.32281">
        <ele>207.6</ele>
        <time>2022-03-24T13:19:55Z</time>
      </trkpt>
      <trkpt lat="46.50431" lon="5.32222">
        <ele>207.6</ele>
        <time>2022-03-24T13:20:01Z</time>
      </trkpt>
      <trkpt lat="46.50432" lon="5.32212">
        <ele>207.6</ele>
        <time>2022-03-24T13:20:02Z</time>
      </trkpt>
      <trkpt lat="46.50438" lon="5.32196">
        <ele>207.4</ele>
        <time>2022-03-24T13:20:04Z</time>
      </trkpt>
      <trkpt lat="46.50454" lon="5.32183">
        <ele>207.4</ele>
        <time>2022-03-24T13:20:07Z</time>
      </trkpt>
      <trkpt lat="46.50463" lon="5.3217">
        <ele>207.4</ele>
        <time>2022-03-24T13:20:09Z</time>
      </trkpt>
      <trkpt lat="46.50466" lon="5.32162">
        <ele>207.4</ele>
        <time>2022-03-24T13:20:10Z</time>
      </trkpt>
      <trkpt lat="46.50484" lon="5.32102">
        <ele>207.4</ele>
        <time>2022-03-24T13:20:17Z</time>
      </trkpt>
      <trkpt lat="46.50519" lon="5.32034">
        <ele>207.6</ele>
        <time>2022-03-24T13:20:26Z</time>
      </trkpt>
      <trkpt lat="46.50551" lon="5.31986">
        <ele>207.8</ele>
        <time>2022-03-24T13:20:34Z</time>
      </trkpt>
      <trkpt lat="46.50563" lon="5.31958">
        <ele>208.8</ele>
        <time>2022-03-24T13:20:39Z</time>
      </trkpt>
      <trkpt lat="46.50567" lon="5.31947">
        <ele>209.2</ele>
        <time>2022-03-24T13:20:41Z</time>
      </trkpt>
      <trkpt lat="46.50575" lon="5.31925">
        <ele>210</ele>
        <time>2022-03-24T13:20:45Z</time>
      </trkpt>
      <trkpt lat="46.50581" lon="5.31909">
        <ele>211</ele>
        <time>2022-03-24T13:20:48Z</time>
      </trkpt>
      <trkpt lat="46.50582" lon="5.31904">
        <ele>211.2</ele>
        <time>2022-03-24T13:20:49Z</time>
      </trkpt>
      <trkpt lat="46.50592" lon="5.31876">
        <ele>212.4</ele>
        <time>2022-03-24T13:20:55Z</time>
      </trkpt>
      <trkpt lat="46.50601" lon="5.3185">
        <ele>213.4</ele>
        <time>2022-03-24T13:21:01Z</time>
      </trkpt>
      <trkpt lat="46.50603" lon="5.3184">
        <ele>213.8</ele>
        <time>2022-03-24T13:21:03Z</time>
      </trkpt>
      <trkpt lat="46.50606" lon="5.3183">
        <ele>214.4</ele>
        <time>2022-03-24T13:21:05Z</time>
      </trkpt>
      <trkpt lat="46.50613" lon="5.31812">
        <ele>215.2</ele>
        <time>2022-03-24T13:21:08Z</time>
      </trkpt>
      <trkpt lat="46.50615" lon="5.31805">
        <ele>215.6</ele>
        <time>2022-03-24T13:21:09Z</time>
      </trkpt>
      <trkpt lat="46.50629" lon="5.31767">
        <ele>216.4</ele>
        <time>2022-03-24T13:21:15Z</time>
      </trkpt>
      <trkpt lat="46.50632" lon="5.31759">
        <ele>216.6</ele>
        <time>2022-03-24T13:21:16Z</time>
      </trkpt>
      <trkpt lat="46.5065" lon="5.31727">
        <ele>216.8</ele>
        <time>2022-03-24T13:21:21Z</time>
      </trkpt>
      <trkpt lat="46.50669" lon="5.31714">
        <ele>216.8</ele>
        <time>2022-03-24T13:21:25Z</time>
      </trkpt>
      <trkpt lat="46.50707" lon="5.31708">
        <ele>217</ele>
        <time>2022-03-24T13:21:32Z</time>
      </trkpt>
      <trkpt lat="46.50752" lon="5.31704">
        <ele>217</ele>
        <time>2022-03-24T13:21:40Z</time>
      </trkpt>
      <trkpt lat="46.50763" lon="5.31705">
        <ele>217.2</ele>
        <time>2022-03-24T13:21:42Z</time>
      </trkpt>
      <trkpt lat="46.50769" lon="5.31706">
        <ele>217.2</ele>
        <time>2022-03-24T13:21:43Z</time>
      </trkpt>
      <trkpt lat="46.5078" lon="5.31711">
        <ele>217.4</ele>
        <time>2022-03-24T13:21:45Z</time>
      </trkpt>
      <trkpt lat="46.50785" lon="5.31714">
        <ele>217.4</ele>
        <time>2022-03-24T13:21:46Z</time>
      </trkpt>
      <trkpt lat="46.50824" lon="5.31744">
        <ele>217.8</ele>
        <time>2022-03-24T13:21:54Z</time>
      </trkpt>
      <trkpt lat="46.50829" lon="5.31747">
        <ele>217.8</ele>
        <time>2022-03-24T13:21:55Z</time>
      </trkpt>
      <trkpt lat="46.50838" lon="5.31748">
        <ele>218</ele>
        <time>2022-03-24T13:21:57Z</time>
      </trkpt>
      <trkpt lat="46.50843" lon="5.31747">
        <ele>218.2</ele>
        <time>2022-03-24T13:21:58Z</time>
      </trkpt>
      <trkpt lat="46.50848" lon="5.31745">
        <ele>218.2</ele>
        <time>2022-03-24T13:21:59Z</time>
      </trkpt>
      <trkpt lat="46.50856" lon="5.31739">
        <ele>218.4</ele>
        <time>2022-03-24T13:22:01Z</time>
      </trkpt>
      <trkpt lat="46.5086" lon="5.31735">
        <ele>218.6</ele>
        <time>2022-03-24T13:22:02Z</time>
      </trkpt>
      <trkpt lat="46.5088" lon="5.31711">
        <ele>218.8</ele>
        <time>2022-03-24T13:22:07Z</time>
      </trkpt>
      <trkpt lat="46.50893" lon="5.31697">
        <ele>219</ele>
        <time>2022-03-24T13:22:10Z</time>
      </trkpt>
      <trkpt lat="46.50924" lon="5.31665">
        <ele>218.6</ele>
        <time>2022-03-24T13:22:16Z</time>
      </trkpt>
      <trkpt lat="46.50964" lon="5.31624">
        <ele>217.6</ele>
        <time>2022-03-24T13:22:22Z</time>
      </trkpt>
      <trkpt lat="46.50999" lon="5.31588">
        <ele>217</ele>
        <time>2022-03-24T13:22:28Z</time>
      </trkpt>
      <trkpt lat="46.51027" lon="5.31553">
        <ele>217.8</ele>
        <time>2022-03-24T13:22:34Z</time>
      </trkpt>
      <trkpt lat="46.51032" lon="5.31546">
        <ele>217.8</ele>
        <time>2022-03-24T13:22:35Z</time>
      </trkpt>
      <trkpt lat="46.5104" lon="5.31521">
        <ele>218</ele>
        <time>2022-03-24T13:22:38Z</time>
      </trkpt>
      <trkpt lat="46.51052" lon="5.3147">
        <ele>217.2</ele>
        <time>2022-03-24T13:22:43Z</time>
      </trkpt>
      <trkpt lat="46.51055" lon="5.31459">
        <ele>216.6</ele>
        <time>2022-03-24T13:22:44Z</time>
      </trkpt>
      <trkpt lat="46.51065" lon="5.31415">
        <ele>215.6</ele>
        <time>2022-03-24T13:22:48Z</time>
      </trkpt>
      <trkpt lat="46.51069" lon="5.31393">
        <ele>215</ele>
        <time>2022-03-24T13:22:50Z</time>
      </trkpt>
      <trkpt lat="46.51071" lon="5.31358">
        <ele>214.2</ele>
        <time>2022-03-24T13:22:53Z</time>
      </trkpt>
      <trkpt lat="46.5107" lon="5.31346">
        <ele>214</ele>
        <time>2022-03-24T13:22:54Z</time>
      </trkpt>
      <trkpt lat="46.51069" lon="5.31335">
        <ele>213.6</ele>
        <time>2022-03-24T13:22:55Z</time>
      </trkpt>
      <trkpt lat="46.5107" lon="5.31324">
        <ele>213.6</ele>
        <time>2022-03-24T13:22:56Z</time>
      </trkpt>
      <trkpt lat="46.51075" lon="5.31302">
        <ele>213</ele>
        <time>2022-03-24T13:22:58Z</time>
      </trkpt>
      <trkpt lat="46.51099" lon="5.31267">
        <ele>211.8</ele>
        <time>2022-03-24T13:23:02Z</time>
      </trkpt>
      <trkpt lat="46.51119" lon="5.31243">
        <ele>210.8</ele>
        <time>2022-03-24T13:23:05Z</time>
      </trkpt>
      <trkpt lat="46.51147" lon="5.31209">
        <ele>209.4</ele>
        <time>2022-03-24T13:23:09Z</time>
      </trkpt>
      <trkpt lat="46.51154" lon="5.31201">
        <ele>209.2</ele>
        <time>2022-03-24T13:23:10Z</time>
      </trkpt>
      <trkpt lat="46.51186" lon="5.31162">
        <ele>208.4</ele>
        <time>2022-03-24T13:23:15Z</time>
      </trkpt>
      <trkpt lat="46.51192" lon="5.31154">
        <ele>208.2</ele>
        <time>2022-03-24T13:23:16Z</time>
      </trkpt>
      <trkpt lat="46.51198" lon="5.31147">
        <ele>208.2</ele>
        <time>2022-03-24T13:23:17Z</time>
      </trkpt>
      <trkpt lat="46.51218" lon="5.31124">
        <ele>207.8</ele>
        <time>2022-03-24T13:23:20Z</time>
      </trkpt>
      <trkpt lat="46.51239" lon="5.31099">
        <ele>207.6</ele>
        <time>2022-03-24T13:23:23Z</time>
      </trkpt>
      <trkpt lat="46.51255" lon="5.31086">
        <ele>207</ele>
        <time>2022-03-24T13:23:25Z</time>
      </trkpt>
      <trkpt lat="46.51281" lon="5.31078">
        <ele>206.2</ele>
        <time>2022-03-24T13:23:28Z</time>
      </trkpt>
      <trkpt lat="46.51298" lon="5.31077">
        <ele>205.8</ele>
        <time>2022-03-24T13:23:30Z</time>
      </trkpt>
      <trkpt lat="46.51338" lon="5.31075">
        <ele>205.8</ele>
        <time>2022-03-24T13:23:35Z</time>
      </trkpt>
      <trkpt lat="46.51389" lon="5.31073">
        <ele>205.8</ele>
        <time>2022-03-24T13:23:42Z</time>
      </trkpt>
      <trkpt lat="46.51445" lon="5.31071">
        <ele>206</ele>
        <time>2022-03-24T13:23:50Z</time>
      </trkpt>
      <trkpt lat="46.51452" lon="5.31071">
        <ele>206</ele>
        <time>2022-03-24T13:23:51Z</time>
      </trkpt>
      <trkpt lat="46.51498" lon="5.31072">
        <ele>205.8</ele>
        <time>2022-03-24T13:23:58Z</time>
      </trkpt>
      <trkpt lat="46.51548" lon="5.31076">
        <ele>206</ele>
        <time>2022-03-24T13:24:06Z</time>
      </trkpt>
      <trkpt lat="46.51602" lon="5.31089">
        <ele>206.4</ele>
        <time>2022-03-24T13:24:15Z</time>
      </trkpt>
      <trkpt lat="46.51631" lon="5.31105">
        <ele>207</ele>
        <time>2022-03-24T13:24:21Z</time>
      </trkpt>
      <trkpt lat="46.5164" lon="5.31107">
        <ele>207.2</ele>
        <time>2022-03-24T13:24:23Z</time>
      </trkpt>
      <trkpt lat="46.51649" lon="5.31107">
        <ele>207.4</ele>
        <time>2022-03-24T13:24:25Z</time>
      </trkpt>
      <trkpt lat="46.51654" lon="5.31106">
        <ele>207.6</ele>
        <time>2022-03-24T13:24:26Z</time>
      </trkpt>
      <trkpt lat="46.51659" lon="5.31106">
        <ele>207.6</ele>
        <time>2022-03-24T13:24:27Z</time>
      </trkpt>
      <trkpt lat="46.51668" lon="5.3111">
        <ele>207.8</ele>
        <time>2022-03-24T13:24:29Z</time>
      </trkpt>
      <trkpt lat="46.51671" lon="5.31114">
        <ele>208</ele>
        <time>2022-03-24T13:24:30Z</time>
      </trkpt>
      <trkpt lat="46.51674" lon="5.31119">
        <ele>208.2</ele>
        <time>2022-03-24T13:24:31Z</time>
      </trkpt>
      <trkpt lat="46.51684" lon="5.31139">
        <ele>208.6</ele>
        <time>2022-03-24T13:24:34Z</time>
      </trkpt>
      <trkpt lat="46.51709" lon="5.31167">
        <ele>208.8</ele>
        <time>2022-03-24T13:24:39Z</time>
      </trkpt>
      <trkpt lat="46.51722" lon="5.31175">
        <ele>208.4</ele>
        <time>2022-03-24T13:24:41Z</time>
      </trkpt>
      <trkpt lat="46.51736" lon="5.3118">
        <ele>208</ele>
        <time>2022-03-24T13:24:43Z</time>
      </trkpt>
      <trkpt lat="46.5177" lon="5.31181">
        <ele>207.2</ele>
        <time>2022-03-24T13:24:47Z</time>
      </trkpt>
      <trkpt lat="46.51787" lon="5.31182">
        <ele>206.6</ele>
        <time>2022-03-24T13:24:49Z</time>
      </trkpt>
      <trkpt lat="46.51825" lon="5.31185">
        <ele>205.2</ele>
        <time>2022-03-24T13:24:53Z</time>
      </trkpt>
      <trkpt lat="46.51843" lon="5.31192">
        <ele>204.4</ele>
        <time>2022-03-24T13:24:55Z</time>
      </trkpt>
      <trkpt lat="46.51852" lon="5.31198">
        <ele>203.8</ele>
        <time>2022-03-24T13:24:56Z</time>
      </trkpt>
      <trkpt lat="46.51859" lon="5.31205">
        <ele>203.6</ele>
        <time>2022-03-24T13:24:57Z</time>
      </trkpt>
      <trkpt lat="46.5188" lon="5.3123">
        <ele>202.4</ele>
        <time>2022-03-24T13:25:00Z</time>
      </trkpt>
      <trkpt lat="46.51892" lon="5.31248">
        <ele>201.8</ele>
        <time>2022-03-24T13:25:02Z</time>
      </trkpt>
      <trkpt lat="46.51926" lon="5.313">
        <ele>201.4</ele>
        <time>2022-03-24T13:25:08Z</time>
      </trkpt>
      <trkpt lat="46.51937" lon="5.31316">
        <ele>201.4</ele>
        <time>2022-03-24T13:25:10Z</time>
      </trkpt>
      <trkpt lat="46.51958" lon="5.31348">
        <ele>201.2</ele>
        <time>2022-03-24T13:25:14Z</time>
      </trkpt>
      <trkpt lat="46.51994" lon="5.31401">
        <ele>201.6</ele>
        <time>2022-03-24T13:25:21Z</time>
      </trkpt>
      <trkpt lat="46.52018" lon="5.31436">
        <ele>202</ele>
        <time>2022-03-24T13:25:26Z</time>
      </trkpt>
      <trkpt lat="46.52027" lon="5.3145">
        <ele>202.2</ele>
        <time>2022-03-24T13:25:28Z</time>
      </trkpt>
      <trkpt lat="46.5204" lon="5.3147">
        <ele>202.6</ele>
        <time>2022-03-24T13:25:31Z</time>
      </trkpt>
      <trkpt lat="46.52048" lon="5.3148">
        <ele>203</ele>
        <time>2022-03-24T13:25:33Z</time>
      </trkpt>
      <trkpt lat="46.52058" lon="5.31492">
        <ele>203</ele>
        <time>2022-03-24T13:25:35Z</time>
      </trkpt>
      <trkpt lat="46.52066" lon="5.31503">
        <ele>203.4</ele>
        <time>2022-03-24T13:25:37Z</time>
      </trkpt>
      <trkpt lat="46.52074" lon="5.31514">
        <ele>203.6</ele>
        <time>2022-03-24T13:25:39Z</time>
      </trkpt>
      <trkpt lat="46.52082" lon="5.31525">
        <ele>203.8</ele>
        <time>2022-03-24T13:25:41Z</time>
      </trkpt>
      <trkpt lat="46.52089" lon="5.31536">
        <ele>204.2</ele>
        <time>2022-03-24T13:25:43Z</time>
      </trkpt>
      <trkpt lat="46.52096" lon="5.31546">
        <ele>204.8</ele>
        <time>2022-03-24T13:25:45Z</time>
      </trkpt>
      <trkpt lat="46.52103" lon="5.31555">
        <ele>205</ele>
        <time>2022-03-24T13:25:47Z</time>
      </trkpt>
      <trkpt lat="46.52125" lon="5.31584">
        <ele>206</ele>
        <time>2022-03-24T13:25:53Z</time>
      </trkpt>
      <trkpt lat="46.52132" lon="5.31595">
        <ele>206.4</ele>
        <time>2022-03-24T13:25:55Z</time>
      </trkpt>
      <trkpt lat="46.52142" lon="5.31611">
        <ele>207.2</ele>
        <time>2022-03-24T13:25:58Z</time>
      </trkpt>
      <trkpt lat="46.52153" lon="5.31627">
        <ele>207.8</ele>
        <time>2022-03-24T13:26:01Z</time>
      </trkpt>
      <trkpt lat="46.5216" lon="5.31637">
        <ele>208.2</ele>
        <time>2022-03-24T13:26:03Z</time>
      </trkpt>
      <trkpt lat="46.52177" lon="5.31661">
        <ele>209</ele>
        <time>2022-03-24T13:26:08Z</time>
      </trkpt>
      <trkpt lat="46.5218" lon="5.31666">
        <ele>209.4</ele>
        <time>2022-03-24T13:26:09Z</time>
      </trkpt>
      <trkpt lat="46.52184" lon="5.3167">
        <ele>209.4</ele>
        <time>2022-03-24T13:26:10Z</time>
      </trkpt>
      <trkpt lat="46.52197" lon="5.31689">
        <ele>210.2</ele>
        <time>2022-03-24T13:26:14Z</time>
      </trkpt>
      <trkpt lat="46.5223" lon="5.31736">
        <ele>211.2</ele>
        <time>2022-03-24T13:26:24Z</time>
      </trkpt>
      <trkpt lat="46.52256" lon="5.31774">
        <ele>211.8</ele>
        <time>2022-03-24T13:26:32Z</time>
      </trkpt>
      <trkpt lat="46.5227" lon="5.31793">
        <ele>212.2</ele>
        <time>2022-03-24T13:26:36Z</time>
      </trkpt>
      <trkpt lat="46.52289" lon="5.31822">
        <ele>213.2</ele>
        <time>2022-03-24T13:26:42Z</time>
      </trkpt>
      <trkpt lat="46.52296" lon="5.31832">
        <ele>213.4</ele>
        <time>2022-03-24T13:26:44Z</time>
      </trkpt>
      <trkpt lat="46.52303" lon="5.31841">
        <ele>213.6</ele>
        <time>2022-03-24T13:26:46Z</time>
      </trkpt>
      <trkpt lat="46.52307" lon="5.31846">
        <ele>213.8</ele>
        <time>2022-03-24T13:26:47Z</time>
      </trkpt>
      <trkpt lat="46.52314" lon="5.31855">
        <ele>214.2</ele>
        <time>2022-03-24T13:26:49Z</time>
      </trkpt>
      <trkpt lat="46.5232" lon="5.31864">
        <ele>214.8</ele>
        <time>2022-03-24T13:26:51Z</time>
      </trkpt>
      <trkpt lat="46.52347" lon="5.319">
        <ele>215.6</ele>
        <time>2022-03-24T13:26:59Z</time>
      </trkpt>
      <trkpt lat="46.52351" lon="5.31905">
        <ele>215.8</ele>
        <time>2022-03-24T13:27:00Z</time>
      </trkpt>
      <trkpt lat="46.52372" lon="5.31938">
        <ele>216.6</ele>
        <time>2022-03-24T13:27:06Z</time>
      </trkpt>
      <trkpt lat="46.52399" lon="5.31977">
        <ele>216.2</ele>
        <time>2022-03-24T13:27:12Z</time>
      </trkpt>
      <trkpt lat="46.52435" lon="5.32029">
        <ele>214.6</ele>
        <time>2022-03-24T13:27:19Z</time>
      </trkpt>
      <trkpt lat="46.52441" lon="5.32037">
        <ele>214.4</ele>
        <time>2022-03-24T13:27:20Z</time>
      </trkpt>
      <trkpt lat="46.52462" lon="5.32067">
        <ele>213.4</ele>
        <time>2022-03-24T13:27:24Z</time>
      </trkpt>
      <trkpt lat="46.52482" lon="5.32097">
        <ele>212.4</ele>
        <time>2022-03-24T13:27:28Z</time>
      </trkpt>
      <trkpt lat="46.52511" lon="5.32137">
        <ele>211.2</ele>
        <time>2022-03-24T13:27:33Z</time>
      </trkpt>
      <trkpt lat="46.52523" lon="5.32153">
        <ele>210.8</ele>
        <time>2022-03-24T13:27:35Z</time>
      </trkpt>
      <trkpt lat="46.52542" lon="5.32174">
        <ele>210</ele>
        <time>2022-03-24T13:27:38Z</time>
      </trkpt>
      <trkpt lat="46.52555" lon="5.32183">
        <ele>209.2</ele>
        <time>2022-03-24T13:27:40Z</time>
      </trkpt>
      <trkpt lat="46.52565" lon="5.32185">
        <ele>208.6</ele>
        <time>2022-03-24T13:27:42Z</time>
      </trkpt>
      <trkpt lat="46.52575" lon="5.32178">
        <ele>207.8</ele>
        <time>2022-03-24T13:27:44Z</time>
      </trkpt>
      <trkpt lat="46.52578" lon="5.32171">
        <ele>207.2</ele>
        <time>2022-03-24T13:27:45Z</time>
      </trkpt>
      <trkpt lat="46.52585" lon="5.32153">
        <ele>206.8</ele>
        <time>2022-03-24T13:27:48Z</time>
      </trkpt>
      <trkpt lat="46.5259" lon="5.32142">
        <ele>206.6</ele>
        <time>2022-03-24T13:27:50Z</time>
      </trkpt>
      <trkpt lat="46.52601" lon="5.32122">
        <ele>206.8</ele>
        <time>2022-03-24T13:27:54Z</time>
      </trkpt>
      <trkpt lat="46.52605" lon="5.32111">
        <ele>207</ele>
        <time>2022-03-24T13:27:56Z</time>
      </trkpt>
      <trkpt lat="46.52624" lon="5.32069">
        <ele>208.2</ele>
        <time>2022-03-24T13:28:04Z</time>
      </trkpt>
      <trkpt lat="46.52628" lon="5.32057">
        <ele>208.4</ele>
        <time>2022-03-24T13:28:06Z</time>
      </trkpt>
      <trkpt lat="46.52635" lon="5.32037">
        <ele>209.4</ele>
        <time>2022-03-24T13:28:10Z</time>
      </trkpt>
      <trkpt lat="46.52641" lon="5.32018">
        <ele>209.8</ele>
        <time>2022-03-24T13:28:14Z</time>
      </trkpt>
      <trkpt lat="46.52647" lon="5.32">
        <ele>210.4</ele>
        <time>2022-03-24T13:28:18Z</time>
      </trkpt>
      <trkpt lat="46.52652" lon="5.31981">
        <ele>211.6</ele>
        <time>2022-03-24T13:28:22Z</time>
      </trkpt>
      <trkpt lat="46.52653" lon="5.31975">
        <ele>211.8</ele>
        <time>2022-03-24T13:28:23Z</time>
      </trkpt>
      <trkpt lat="46.52657" lon="5.31954">
        <ele>212.6</ele>
        <time>2022-03-24T13:28:27Z</time>
      </trkpt>
      <trkpt lat="46.52664" lon="5.3193">
        <ele>213.8</ele>
        <time>2022-03-24T13:28:32Z</time>
      </trkpt>
      <trkpt lat="46.5267" lon="5.31908">
        <ele>214.8</ele>
        <time>2022-03-24T13:28:37Z</time>
      </trkpt>
      <trkpt lat="46.52674" lon="5.31895">
        <ele>215.4</ele>
        <time>2022-03-24T13:28:40Z</time>
      </trkpt>
      <trkpt lat="46.52676" lon="5.31886">
        <ele>216</ele>
        <time>2022-03-24T13:28:42Z</time>
      </trkpt>
      <trkpt lat="46.52681" lon="5.3187">
        <ele>216.6</ele>
        <time>2022-03-24T13:28:46Z</time>
      </trkpt>
      <trkpt lat="46.52683" lon="5.31865">
        <ele>217</ele>
        <time>2022-03-24T13:28:47Z</time>
      </trkpt>
      <trkpt lat="46.52689" lon="5.31848">
        <ele>218</ele>
        <time>2022-03-24T13:28:51Z</time>
      </trkpt>
      <trkpt lat="46.52698" lon="5.31829">
        <ele>218.8</ele>
        <time>2022-03-24T13:28:55Z</time>
      </trkpt>
      <trkpt lat="46.52706" lon="5.31816">
        <ele>219.2</ele>
        <time>2022-03-24T13:28:58Z</time>
      </trkpt>
      <trkpt lat="46.52713" lon="5.31809">
        <ele>219.4</ele>
        <time>2022-03-24T13:29:00Z</time>
      </trkpt>
      <trkpt lat="46.52734" lon="5.31793">
        <ele>219.8</ele>
        <time>2022-03-24T13:29:05Z</time>
      </trkpt>
      <trkpt lat="46.52744" lon="5.31788">
        <ele>220</ele>
        <time>2022-03-24T13:29:07Z</time>
      </trkpt>
      <trkpt lat="46.52773" lon="5.31776">
        <ele>220.2</ele>
        <time>2022-03-24T13:29:13Z</time>
      </trkpt>
      <trkpt lat="46.52797" lon="5.31764">
        <ele>220.6</ele>
        <time>2022-03-24T13:29:18Z</time>
      </trkpt>
      <trkpt lat="46.52805" lon="5.31761">
        <ele>220.6</ele>
        <time>2022-03-24T13:29:20Z</time>
      </trkpt>
      <trkpt lat="46.52821" lon="5.31755">
        <ele>220.6</ele>
        <time>2022-03-24T13:29:23Z</time>
      </trkpt>
      <trkpt lat="46.52847" lon="5.31745">
        <ele>220.6</ele>
        <time>2022-03-24T13:29:28Z</time>
      </trkpt>
      <trkpt lat="46.52852" lon="5.31744">
        <ele>220.6</ele>
        <time>2022-03-24T13:29:29Z</time>
      </trkpt>
      <trkpt lat="46.52884" lon="5.3173">
        <ele>220.6</ele>
        <time>2022-03-24T13:29:34Z</time>
      </trkpt>
      <trkpt lat="46.52889" lon="5.3173">
        <ele>220.4</ele>
        <time>2022-03-24T13:29:35Z</time>
      </trkpt>
      <trkpt lat="46.52895" lon="5.31731">
        <ele>220.2</ele>
        <time>2022-03-24T13:29:36Z</time>
      </trkpt>
      <trkpt lat="46.52909" lon="5.31734">
        <ele>220</ele>
        <time>2022-03-24T13:29:38Z</time>
      </trkpt>
      <trkpt lat="46.52916" lon="5.31738">
        <ele>220</ele>
        <time>2022-03-24T13:29:39Z</time>
      </trkpt>
      <trkpt lat="46.52926" lon="5.31747">
        <ele>219.8</ele>
        <time>2022-03-24T13:29:41Z</time>
      </trkpt>
      <trkpt lat="46.52964" lon="5.31778">
        <ele>219.8</ele>
        <time>2022-03-24T13:29:48Z</time>
      </trkpt>
      <trkpt lat="46.5297" lon="5.31782">
        <ele>219.8</ele>
        <time>2022-03-24T13:29:49Z</time>
      </trkpt>
      <trkpt lat="46.52982" lon="5.31786">
        <ele>219.8</ele>
        <time>2022-03-24T13:29:51Z</time>
      </trkpt>
      <trkpt lat="46.52987" lon="5.31785">
        <ele>219.6</ele>
        <time>2022-03-24T13:29:52Z</time>
      </trkpt>
      <trkpt lat="46.52993" lon="5.31782">
        <ele>219.6</ele>
        <time>2022-03-24T13:29:53Z</time>
      </trkpt>
      <trkpt lat="46.53006" lon="5.31772">
        <ele>219.6</ele>
        <time>2022-03-24T13:29:55Z</time>
      </trkpt>
      <trkpt lat="46.53014" lon="5.31759">
        <ele>219.2</ele>
        <time>2022-03-24T13:29:57Z</time>
      </trkpt>
      <trkpt lat="46.53018" lon="5.31751">
        <ele>219.2</ele>
        <time>2022-03-24T13:29:58Z</time>
      </trkpt>
      <trkpt lat="46.53021" lon="5.31744">
        <ele>219</ele>
        <time>2022-03-24T13:29:59Z</time>
      </trkpt>
      <trkpt lat="46.53036" lon="5.31702">
        <ele>218</ele>
        <time>2022-03-24T13:30:04Z</time>
      </trkpt>
      <trkpt lat="46.53039" lon="5.31693">
        <ele>218</ele>
        <time>2022-03-24T13:30:05Z</time>
      </trkpt>
      <trkpt lat="46.53049" lon="5.31673">
        <ele>217.6</ele>
        <time>2022-03-24T13:30:07Z</time>
      </trkpt>
      <trkpt lat="46.5306" lon="5.31658">
        <ele>217.2</ele>
        <time>2022-03-24T13:30:09Z</time>
      </trkpt>
      <trkpt lat="46.53069" lon="5.31651">
        <ele>217</ele>
        <time>2022-03-24T13:30:10Z</time>
      </trkpt>
      <trkpt lat="46.53086" lon="5.31643">
        <ele>216.2</ele>
        <time>2022-03-24T13:30:12Z</time>
      </trkpt>
      <trkpt lat="46.53093" lon="5.3164">
        <ele>215.6</ele>
        <time>2022-03-24T13:30:13Z</time>
      </trkpt>
      <trkpt lat="46.53123" lon="5.31628">
        <ele>214.6</ele>
        <time>2022-03-24T13:30:16Z</time>
      </trkpt>
      <trkpt lat="46.53131" lon="5.31625">
        <ele>214.2</ele>
        <time>2022-03-24T13:30:17Z</time>
      </trkpt>
      <trkpt lat="46.53148" lon="5.31618">
        <ele>213.6</ele>
        <time>2022-03-24T13:30:19Z</time>
      </trkpt>
      <trkpt lat="46.53165" lon="5.31609">
        <ele>212.4</ele>
        <time>2022-03-24T13:30:21Z</time>
      </trkpt>
      <trkpt lat="46.53184" lon="5.316">
        <ele>212</ele>
        <time>2022-03-24T13:30:23Z</time>
      </trkpt>
      <trkpt lat="46.53212" lon="5.31587">
        <ele>210.8</ele>
        <time>2022-03-24T13:30:26Z</time>
      </trkpt>
      <trkpt lat="46.53229" lon="5.31578">
        <ele>209.6</ele>
        <time>2022-03-24T13:30:28Z</time>
      </trkpt>
      <trkpt lat="46.53238" lon="5.31572">
        <ele>208.8</ele>
        <time>2022-03-24T13:30:29Z</time>
      </trkpt>
      <trkpt lat="46.53246" lon="5.31566">
        <ele>208.6</ele>
        <time>2022-03-24T13:30:30Z</time>
      </trkpt>
      <trkpt lat="46.53272" lon="5.31548">
        <ele>207.2</ele>
        <time>2022-03-24T13:30:33Z</time>
      </trkpt>
      <trkpt lat="46.53289" lon="5.31533">
        <ele>206.2</ele>
        <time>2022-03-24T13:30:35Z</time>
      </trkpt>
      <trkpt lat="46.53299" lon="5.31523">
        <ele>205.4</ele>
        <time>2022-03-24T13:30:36Z</time>
      </trkpt>
      <trkpt lat="46.53323" lon="5.31503">
        <ele>204.2</ele>
        <time>2022-03-24T13:30:39Z</time>
      </trkpt>
      <trkpt lat="46.53339" lon="5.31488">
        <ele>203.2</ele>
        <time>2022-03-24T13:30:41Z</time>
      </trkpt>
      <trkpt lat="46.53355" lon="5.31474">
        <ele>202.6</ele>
        <time>2022-03-24T13:30:43Z</time>
      </trkpt>
      <trkpt lat="46.53371" lon="5.31455">
        <ele>202.4</ele>
        <time>2022-03-24T13:30:46Z</time>
      </trkpt>
      <trkpt lat="46.53378" lon="5.31445">
        <ele>202.4</ele>
        <time>2022-03-24T13:30:47Z</time>
      </trkpt>
      <trkpt lat="46.53402" lon="5.31393">
        <ele>202.8</ele>
        <time>2022-03-24T13:30:53Z</time>
      </trkpt>
      <trkpt lat="46.53433" lon="5.31327">
        <ele>203</ele>
        <time>2022-03-24T13:31:00Z</time>
      </trkpt>
      <trkpt lat="46.53442" lon="5.31307">
        <ele>203</ele>
        <time>2022-03-24T13:31:02Z</time>
      </trkpt>
      <trkpt lat="46.53452" lon="5.31285">
        <ele>202</ele>
        <time>2022-03-24T13:31:04Z</time>
      </trkpt>
      <trkpt lat="46.53477" lon="5.31229">
        <ele>201.4</ele>
        <time>2022-03-24T13:31:10Z</time>
      </trkpt>
      <trkpt lat="46.53485" lon="5.31203">
        <ele>201.4</ele>
        <time>2022-03-24T13:31:13Z</time>
      </trkpt>
      <trkpt lat="46.53488" lon="5.31187">
        <ele>201.6</ele>
        <time>2022-03-24T13:31:15Z</time>
      </trkpt>
      <trkpt lat="46.53494" lon="5.31141">
        <ele>202.6</ele>
        <time>2022-03-24T13:31:21Z</time>
      </trkpt>
      <trkpt lat="46.53496" lon="5.31134">
        <ele>202.8</ele>
        <time>2022-03-24T13:31:22Z</time>
      </trkpt>
      <trkpt lat="46.53501" lon="5.31122">
        <ele>203.2</ele>
        <time>2022-03-24T13:31:24Z</time>
      </trkpt>
      <trkpt lat="46.53504" lon="5.31117">
        <ele>203.4</ele>
        <time>2022-03-24T13:31:25Z</time>
      </trkpt>
      <trkpt lat="46.5351" lon="5.31109">
        <ele>203.8</ele>
        <time>2022-03-24T13:31:27Z</time>
      </trkpt>
      <trkpt lat="46.53523" lon="5.31098">
        <ele>204.4</ele>
        <time>2022-03-24T13:31:30Z</time>
      </trkpt>
      <trkpt lat="46.53545" lon="5.31083">
        <ele>205.6</ele>
        <time>2022-03-24T13:31:35Z</time>
      </trkpt>
      <trkpt lat="46.53555" lon="5.31078">
        <ele>205.8</ele>
        <time>2022-03-24T13:31:37Z</time>
      </trkpt>
      <trkpt lat="46.53603" lon="5.3105">
        <ele>206.4</ele>
        <time>2022-03-24T13:31:46Z</time>
      </trkpt>
      <trkpt lat="46.53649" lon="5.31024">
        <ele>206.2</ele>
        <time>2022-03-24T13:31:54Z</time>
      </trkpt>
      <trkpt lat="46.53655" lon="5.31023">
        <ele>206.2</ele>
        <time>2022-03-24T13:31:55Z</time>
      </trkpt>
      <trkpt lat="46.53668" lon="5.31021">
        <ele>206.2</ele>
        <time>2022-03-24T13:31:57Z</time>
      </trkpt>
      <trkpt lat="46.53674" lon="5.31022">
        <ele>206.2</ele>
        <time>2022-03-24T13:31:58Z</time>
      </trkpt>
      <trkpt lat="46.53731" lon="5.3103">
        <ele>206.4</ele>
        <time>2022-03-24T13:32:07Z</time>
      </trkpt>
      <trkpt lat="46.53778" lon="5.31017">
        <ele>206.2</ele>
        <time>2022-03-24T13:32:14Z</time>
      </trkpt>
      <trkpt lat="46.53793" lon="5.31012">
        <ele>205.8</ele>
        <time>2022-03-24T13:32:16Z</time>
      </trkpt>
      <trkpt lat="46.538" lon="5.31006">
        <ele>205.6</ele>
        <time>2022-03-24T13:32:17Z</time>
      </trkpt>
      <trkpt lat="46.53805" lon="5.30997">
        <ele>205.2</ele>
        <time>2022-03-24T13:32:18Z</time>
      </trkpt>
      <trkpt lat="46.53814" lon="5.30978">
        <ele>204.6</ele>
        <time>2022-03-24T13:32:20Z</time>
      </trkpt>
      <trkpt lat="46.53842" lon="5.30911">
        <ele>203.8</ele>
        <time>2022-03-24T13:32:27Z</time>
      </trkpt>
      <trkpt lat="46.53849" lon="5.30894">
        <ele>203.6</ele>
        <time>2022-03-24T13:32:29Z</time>
      </trkpt>
      <trkpt lat="46.53862" lon="5.30862">
        <ele>203.8</ele>
        <time>2022-03-24T13:32:33Z</time>
      </trkpt>
      <trkpt lat="46.53878" lon="5.30822">
        <ele>204.4</ele>
        <time>2022-03-24T13:32:39Z</time>
      </trkpt>
      <trkpt lat="46.5388" lon="5.30817">
        <ele>204.4</ele>
        <time>2022-03-24T13:32:40Z</time>
      </trkpt>
      <trkpt lat="46.53884" lon="5.308">
        <ele>204.8</ele>
        <time>2022-03-24T13:32:43Z</time>
      </trkpt>
      <trkpt lat="46.53886" lon="5.30794">
        <ele>205</ele>
        <time>2022-03-24T13:32:44Z</time>
      </trkpt>
      <trkpt lat="46.53888" lon="5.30783">
        <ele>205.6</ele>
        <time>2022-03-24T13:32:46Z</time>
      </trkpt>
      <trkpt lat="46.5389" lon="5.30762">
        <ele>205.8</ele>
        <time>2022-03-24T13:32:50Z</time>
      </trkpt>
      <trkpt lat="46.53892" lon="5.3073">
        <ele>207.2</ele>
        <time>2022-03-24T13:32:56Z</time>
      </trkpt>
      <trkpt lat="46.53892" lon="5.30718">
        <ele>207.4</ele>
        <time>2022-03-24T13:32:58Z</time>
      </trkpt>
      <trkpt lat="46.53893" lon="5.30707">
        <ele>208.4</ele>
        <time>2022-03-24T13:33:00Z</time>
      </trkpt>
      <trkpt lat="46.53897" lon="5.30676">
        <ele>209.2</ele>
        <time>2022-03-24T13:33:05Z</time>
      </trkpt>
      <trkpt lat="46.53898" lon="5.30669">
        <ele>209.6</ele>
        <time>2022-03-24T13:33:06Z</time>
      </trkpt>
      <trkpt lat="46.53907" lon="5.30634">
        <ele>210.2</ele>
        <time>2022-03-24T13:33:12Z</time>
      </trkpt>
      <trkpt lat="46.53922" lon="5.30596">
        <ele>210.6</ele>
        <time>2022-03-24T13:33:19Z</time>
      </trkpt>
      <trkpt lat="46.53926" lon="5.30586">
        <ele>211</ele>
        <time>2022-03-24T13:33:21Z</time>
      </trkpt>
      <trkpt lat="46.53936" lon="5.30567">
        <ele>211.6</ele>
        <time>2022-03-24T13:33:25Z</time>
      </trkpt>
      <trkpt lat="46.53942" lon="5.30559">
        <ele>212</ele>
        <time>2022-03-24T13:33:27Z</time>
      </trkpt>
      <trkpt lat="46.53945" lon="5.30555">
        <ele>212</ele>
        <time>2022-03-24T13:33:28Z</time>
      </trkpt>
      <trkpt lat="46.53948" lon="5.30552">
        <ele>212.4</ele>
        <time>2022-03-24T13:33:29Z</time>
      </trkpt>
      <trkpt lat="46.53955" lon="5.30546">
        <ele>212.6</ele>
        <time>2022-03-24T13:33:31Z</time>
      </trkpt>
      <trkpt lat="46.53966" lon="5.3054">
        <ele>213</ele>
        <time>2022-03-24T13:33:34Z</time>
      </trkpt>
      <trkpt lat="46.53982" lon="5.30533">
        <ele>213.8</ele>
        <time>2022-03-24T13:33:38Z</time>
      </trkpt>
      <trkpt lat="46.53999" lon="5.30523">
        <ele>215</ele>
        <time>2022-03-24T13:33:43Z</time>
      </trkpt>
      <trkpt lat="46.54003" lon="5.30521">
        <ele>215.2</ele>
        <time>2022-03-24T13:33:44Z</time>
      </trkpt>
      <trkpt lat="46.54021" lon="5.30509">
        <ele>215.8</ele>
        <time>2022-03-24T13:33:49Z</time>
      </trkpt>
      <trkpt lat="46.54028" lon="5.30501">
        <ele>216.2</ele>
        <time>2022-03-24T13:33:51Z</time>
      </trkpt>
      <trkpt lat="46.54037" lon="5.30486">
        <ele>217</ele>
        <time>2022-03-24T13:33:54Z</time>
      </trkpt>
      <trkpt lat="46.5404" lon="5.3048">
        <ele>217.2</ele>
        <time>2022-03-24T13:33:55Z</time>
      </trkpt>
      <trkpt lat="46.54046" lon="5.30469">
        <ele>217.4</ele>
        <time>2022-03-24T13:33:57Z</time>
      </trkpt>
      <trkpt lat="46.54051" lon="5.30455">
        <ele>217.4</ele>
        <time>2022-03-24T13:33:59Z</time>
      </trkpt>
      <trkpt lat="46.54053" lon="5.30447">
        <ele>217.4</ele>
        <time>2022-03-24T13:34:00Z</time>
      </trkpt>
      <trkpt lat="46.54057" lon="5.30433">
        <ele>217.4</ele>
        <time>2022-03-24T13:34:02Z</time>
      </trkpt>
      <trkpt lat="46.54063" lon="5.30403">
        <ele>217.2</ele>
        <time>2022-03-24T13:34:06Z</time>
      </trkpt>
      <trkpt lat="46.54076" lon="5.30346">
        <ele>217.6</ele>
        <time>2022-03-24T13:34:14Z</time>
      </trkpt>
      <trkpt lat="46.54089" lon="5.30305">
        <ele>218.2</ele>
        <time>2022-03-24T13:34:20Z</time>
      </trkpt>
      <trkpt lat="46.54091" lon="5.30298">
        <ele>218.2</ele>
        <time>2022-03-24T13:34:21Z</time>
      </trkpt>
      <trkpt lat="46.54095" lon="5.30284">
        <ele>218.4</ele>
        <time>2022-03-24T13:34:23Z</time>
      </trkpt>
      <trkpt lat="46.5412" lon="5.30211">
        <ele>218.8</ele>
        <time>2022-03-24T13:34:33Z</time>
      </trkpt>
      <trkpt lat="46.54122" lon="5.30204">
        <ele>218.8</ele>
        <time>2022-03-24T13:34:34Z</time>
      </trkpt>
      <trkpt lat="46.54144" lon="5.30135">
        <ele>219</ele>
        <time>2022-03-24T13:34:43Z</time>
      </trkpt>
      <trkpt lat="46.54149" lon="5.3012">
        <ele>218.8</ele>
        <time>2022-03-24T13:34:45Z</time>
      </trkpt>
      <trkpt lat="46.54157" lon="5.3011">
        <ele>218.8</ele>
        <time>2022-03-24T13:34:47Z</time>
      </trkpt>
      <trkpt lat="46.54184" lon="5.30098">
        <ele>218.6</ele>
        <time>2022-03-24T13:34:52Z</time>
      </trkpt>
      <trkpt lat="46.54195" lon="5.30095">
        <ele>218.6</ele>
        <time>2022-03-24T13:34:54Z</time>
      </trkpt>
      <trkpt lat="46.54207" lon="5.30094">
        <ele>218.6</ele>
        <time>2022-03-24T13:34:56Z</time>
      </trkpt>
      <trkpt lat="46.54213" lon="5.30094">
        <ele>218.6</ele>
        <time>2022-03-24T13:34:57Z</time>
      </trkpt>
      <trkpt lat="46.5427" lon="5.30102">
        <ele>218.4</ele>
        <time>2022-03-24T13:35:06Z</time>
      </trkpt>
      <trkpt lat="46.54319" lon="5.30108">
        <ele>218</ele>
        <time>2022-03-24T13:35:13Z</time>
      </trkpt>
      <trkpt lat="46.54358" lon="5.30122">
        <ele>217.2</ele>
        <time>2022-03-24T13:35:18Z</time>
      </trkpt>
      <trkpt lat="46.54367" lon="5.30126">
        <ele>217</ele>
        <time>2022-03-24T13:35:19Z</time>
      </trkpt>
      <trkpt lat="46.54401" lon="5.3014">
        <ele>215.6</ele>
        <time>2022-03-24T13:35:23Z</time>
      </trkpt>
      <trkpt lat="46.54418" lon="5.30144">
        <ele>214.8</ele>
        <time>2022-03-24T13:35:25Z</time>
      </trkpt>
      <trkpt lat="46.54427" lon="5.30146">
        <ele>214.4</ele>
        <time>2022-03-24T13:35:26Z</time>
      </trkpt>
      <trkpt lat="46.54445" lon="5.30147">
        <ele>213.8</ele>
        <time>2022-03-24T13:35:28Z</time>
      </trkpt>
      <trkpt lat="46.54463" lon="5.30145">
        <ele>213.4</ele>
        <time>2022-03-24T13:35:30Z</time>
      </trkpt>
      <trkpt lat="46.545" lon="5.30131">
        <ele>212</ele>
        <time>2022-03-24T13:35:34Z</time>
      </trkpt>
      <trkpt lat="46.54509" lon="5.30126">
        <ele>211.6</ele>
        <time>2022-03-24T13:35:35Z</time>
      </trkpt>
      <trkpt lat="46.54528" lon="5.30115">
        <ele>210.6</ele>
        <time>2022-03-24T13:35:37Z</time>
      </trkpt>
      <trkpt lat="46.54546" lon="5.30104">
        <ele>209.4</ele>
        <time>2022-03-24T13:35:39Z</time>
      </trkpt>
      <trkpt lat="46.54556" lon="5.30098">
        <ele>209.2</ele>
        <time>2022-03-24T13:35:40Z</time>
      </trkpt>
      <trkpt lat="46.54575" lon="5.30087">
        <ele>208.4</ele>
        <time>2022-03-24T13:35:42Z</time>
      </trkpt>
      <trkpt lat="46.54595" lon="5.30075">
        <ele>207</ele>
        <time>2022-03-24T13:35:44Z</time>
      </trkpt>
      <trkpt lat="46.54614" lon="5.30063">
        <ele>205.8</ele>
        <time>2022-03-24T13:35:46Z</time>
      </trkpt>
      <trkpt lat="46.54624" lon="5.30057">
        <ele>205.6</ele>
        <time>2022-03-24T13:35:47Z</time>
      </trkpt>
      <trkpt lat="46.54644" lon="5.30045">
        <ele>204.6</ele>
        <time>2022-03-24T13:35:49Z</time>
      </trkpt>
      <trkpt lat="46.54663" lon="5.30033">
        <ele>203.6</ele>
        <time>2022-03-24T13:35:51Z</time>
      </trkpt>
      <trkpt lat="46.54683" lon="5.3002">
        <ele>202.4</ele>
        <time>2022-03-24T13:35:53Z</time>
      </trkpt>
      <trkpt lat="46.54702" lon="5.30008">
        <ele>201.4</ele>
        <time>2022-03-24T13:35:55Z</time>
      </trkpt>
      <trkpt lat="46.5472" lon="5.29995">
        <ele>200.2</ele>
        <time>2022-03-24T13:35:57Z</time>
      </trkpt>
      <trkpt lat="46.54745" lon="5.29973">
        <ele>199</ele>
        <time>2022-03-24T13:36:00Z</time>
      </trkpt>
      <trkpt lat="46.54769" lon="5.29952">
        <ele>198.4</ele>
        <time>2022-03-24T13:36:03Z</time>
      </trkpt>
      <trkpt lat="46.54776" lon="5.29945">
        <ele>198.2</ele>
        <time>2022-03-24T13:36:04Z</time>
      </trkpt>
      <trkpt lat="46.54812" lon="5.29905">
        <ele>197.4</ele>
        <time>2022-03-24T13:36:09Z</time>
      </trkpt>
      <trkpt lat="46.54825" lon="5.29888">
        <ele>197.2</ele>
        <time>2022-03-24T13:36:11Z</time>
      </trkpt>
      <trkpt lat="46.5485" lon="5.29855">
        <ele>196.4</ele>
        <time>2022-03-24T13:36:15Z</time>
      </trkpt>
      <trkpt lat="46.54884" lon="5.29812">
        <ele>196.4</ele>
        <time>2022-03-24T13:36:21Z</time>
      </trkpt>
      <trkpt lat="46.54913" lon="5.29765">
        <ele>196.6</ele>
        <time>2022-03-24T13:36:27Z</time>
      </trkpt>
      <trkpt lat="46.54941" lon="5.29714">
        <ele>196.4</ele>
        <time>2022-03-24T13:36:33Z</time>
      </trkpt>
      <trkpt lat="46.54947" lon="5.29695">
        <ele>196</ele>
        <time>2022-03-24T13:36:35Z</time>
      </trkpt>
      <trkpt lat="46.54955" lon="5.29659">
        <ele>196</ele>
        <time>2022-03-24T13:36:39Z</time>
      </trkpt>
      <trkpt lat="46.54963" lon="5.29618">
        <ele>196</ele>
        <time>2022-03-24T13:36:44Z</time>
      </trkpt>
      <trkpt lat="46.54974" lon="5.29585">
        <ele>196.8</ele>
        <time>2022-03-24T13:36:49Z</time>
      </trkpt>
      <trkpt lat="46.54979" lon="5.29575">
        <ele>197.2</ele>
        <time>2022-03-24T13:36:51Z</time>
      </trkpt>
      <trkpt lat="46.54992" lon="5.29557">
        <ele>198</ele>
        <time>2022-03-24T13:36:55Z</time>
      </trkpt>
      <trkpt lat="46.54995" lon="5.29552">
        <ele>198.2</ele>
        <time>2022-03-24T13:36:56Z</time>
      </trkpt>
      <trkpt lat="46.5501" lon="5.29529">
        <ele>199</ele>
        <time>2022-03-24T13:37:01Z</time>
      </trkpt>
      <trkpt lat="46.55016" lon="5.2952">
        <ele>199.4</ele>
        <time>2022-03-24T13:37:03Z</time>
      </trkpt>
      <trkpt lat="46.55023" lon="5.29514">
        <ele>199.6</ele>
        <time>2022-03-24T13:37:05Z</time>
      </trkpt>
      <trkpt lat="46.5503" lon="5.29509">
        <ele>199.8</ele>
        <time>2022-03-24T13:37:07Z</time>
      </trkpt>
      <trkpt lat="46.55044" lon="5.29502">
        <ele>200.6</ele>
        <time>2022-03-24T13:37:11Z</time>
      </trkpt>
      <trkpt lat="46.5505" lon="5.295">
        <ele>201</ele>
        <time>2022-03-24T13:37:13Z</time>
      </trkpt>
      <trkpt lat="46.5506" lon="5.29498">
        <ele>201.8</ele>
        <time>2022-03-24T13:37:16Z</time>
      </trkpt>
      <trkpt lat="46.55074" lon="5.295">
        <ele>202.8</ele>
        <time>2022-03-24T13:37:20Z</time>
      </trkpt>
      <trkpt lat="46.55077" lon="5.29501">
        <ele>203</ele>
        <time>2022-03-24T13:37:21Z</time>
      </trkpt>
      <trkpt lat="46.55098" lon="5.2951">
        <ele>203.8</ele>
        <time>2022-03-24T13:37:27Z</time>
      </trkpt>
      <trkpt lat="46.55102" lon="5.29511">
        <ele>204</ele>
        <time>2022-03-24T13:37:28Z</time>
      </trkpt>
      <trkpt lat="46.55126" lon="5.2952">
        <ele>205.2</ele>
        <time>2022-03-24T13:37:34Z</time>
      </trkpt>
      <trkpt lat="46.55134" lon="5.29524">
        <ele>205.6</ele>
        <time>2022-03-24T13:37:36Z</time>
      </trkpt>
      <trkpt lat="46.55166" lon="5.29537">
        <ele>206.2</ele>
        <time>2022-03-24T13:37:44Z</time>
      </trkpt>
      <trkpt lat="46.55171" lon="5.29538">
        <ele>206.2</ele>
        <time>2022-03-24T13:37:45Z</time>
      </trkpt>
      <trkpt lat="46.55179" lon="5.2954">
        <ele>206.6</ele>
        <time>2022-03-24T13:37:47Z</time>
      </trkpt>
      <trkpt lat="46.55192" lon="5.2954">
        <ele>206.8</ele>
        <time>2022-03-24T13:37:50Z</time>
      </trkpt>
      <trkpt lat="46.55196" lon="5.29539">
        <ele>206.8</ele>
        <time>2022-03-24T13:37:51Z</time>
      </trkpt>
      <trkpt lat="46.55209" lon="5.29536">
        <ele>207.2</ele>
        <time>2022-03-24T13:37:54Z</time>
      </trkpt>
      <trkpt lat="46.55224" lon="5.29528">
        <ele>207.8</ele>
        <time>2022-03-24T13:37:58Z</time>
      </trkpt>
      <trkpt lat="46.55238" lon="5.29519">
        <ele>208.4</ele>
        <time>2022-03-24T13:38:02Z</time>
      </trkpt>
      <trkpt lat="46.55253" lon="5.29508">
        <ele>209.2</ele>
        <time>2022-03-24T13:38:06Z</time>
      </trkpt>
      <trkpt lat="46.5526" lon="5.29503">
        <ele>209.4</ele>
        <time>2022-03-24T13:38:08Z</time>
      </trkpt>
      <trkpt lat="46.55274" lon="5.29493">
        <ele>209.6</ele>
        <time>2022-03-24T13:38:12Z</time>
      </trkpt>
      <trkpt lat="46.55276" lon="5.29489">
        <ele>209.8</ele>
        <time>2022-03-24T13:38:13Z</time>
      </trkpt>
      <trkpt lat="46.55278" lon="5.29478">
        <ele>209.8</ele>
        <time>2022-03-24T13:38:15Z</time>
      </trkpt>
      <trkpt lat="46.5527" lon="5.29448">
        <ele>210.2</ele>
        <time>2022-03-24T13:38:20Z</time>
      </trkpt>
      <trkpt lat="46.55265" lon="5.2943">
        <ele>210.6</ele>
        <time>2022-03-24T13:38:23Z</time>
      </trkpt>
      <trkpt lat="46.55258" lon="5.29406">
        <ele>211.4</ele>
        <time>2022-03-24T13:38:27Z</time>
      </trkpt>
      <trkpt lat="46.55255" lon="5.294">
        <ele>211.6</ele>
        <time>2022-03-24T13:38:28Z</time>
      </trkpt>
      <trkpt lat="46.55254" lon="5.29393">
        <ele>211.8</ele>
        <time>2022-03-24T13:38:29Z</time>
      </trkpt>
      <trkpt lat="46.55251" lon="5.29371">
        <ele>212.8</ele>
        <time>2022-03-24T13:38:32Z</time>
      </trkpt>
      <trkpt lat="46.55252" lon="5.29358">
        <ele>213</ele>
        <time>2022-03-24T13:38:34Z</time>
      </trkpt>
      <trkpt lat="46.55255" lon="5.29343">
        <ele>213.2</ele>
        <time>2022-03-24T13:38:36Z</time>
      </trkpt>
      <trkpt lat="46.55258" lon="5.29335">
        <ele>213.2</ele>
        <time>2022-03-24T13:38:37Z</time>
      </trkpt>
      <trkpt lat="46.55268" lon="5.29295">
        <ele>213.2</ele>
        <time>2022-03-24T13:38:41Z</time>
      </trkpt>
      <trkpt lat="46.55284" lon="5.29238">
        <ele>211</ele>
        <time>2022-03-24T13:38:46Z</time>
      </trkpt>
      <trkpt lat="46.55287" lon="5.29226">
        <ele>210.4</ele>
        <time>2022-03-24T13:38:47Z</time>
      </trkpt>
      <trkpt lat="46.55293" lon="5.29203">
        <ele>209.8</ele>
        <time>2022-03-24T13:38:49Z</time>
      </trkpt>
      <trkpt lat="46.55297" lon="5.29192">
        <ele>209.6</ele>
        <time>2022-03-24T13:38:50Z</time>
      </trkpt>
      <trkpt lat="46.55302" lon="5.29182">
        <ele>209.2</ele>
        <time>2022-03-24T13:38:51Z</time>
      </trkpt>
      <trkpt lat="46.55312" lon="5.29163">
        <ele>208.6</ele>
        <time>2022-03-24T13:38:53Z</time>
      </trkpt>
      <trkpt lat="46.55322" lon="5.2914">
        <ele>207.8</ele>
        <time>2022-03-24T13:38:55Z</time>
      </trkpt>
      <trkpt lat="46.55326" lon="5.29127">
        <ele>207.4</ele>
        <time>2022-03-24T13:38:56Z</time>
      </trkpt>
      <trkpt lat="46.55334" lon="5.29101">
        <ele>206.2</ele>
        <time>2022-03-24T13:38:58Z</time>
      </trkpt>
      <trkpt lat="46.55344" lon="5.29061">
        <ele>205</ele>
        <time>2022-03-24T13:39:01Z</time>
      </trkpt>
      <trkpt lat="46.5535" lon="5.29035">
        <ele>204.4</ele>
        <time>2022-03-24T13:39:03Z</time>
      </trkpt>
      <trkpt lat="46.55356" lon="5.29009">
        <ele>204</ele>
        <time>2022-03-24T13:39:05Z</time>
      </trkpt>
      <trkpt lat="46.55368" lon="5.28957">
        <ele>202.8</ele>
        <time>2022-03-24T13:39:09Z</time>
      </trkpt>
      <trkpt lat="46.55376" lon="5.28921">
        <ele>201.8</ele>
        <time>2022-03-24T13:39:12Z</time>
      </trkpt>
      <trkpt lat="46.55379" lon="5.28908">
        <ele>201.6</ele>
        <time>2022-03-24T13:39:13Z</time>
      </trkpt>
      <trkpt lat="46.55388" lon="5.28859">
        <ele>200.6</ele>
        <time>2022-03-24T13:39:17Z</time>
      </trkpt>
      <trkpt lat="46.55389" lon="5.28846">
        <ele>200.6</ele>
        <time>2022-03-24T13:39:18Z</time>
      </trkpt>
      <trkpt lat="46.5539" lon="5.28832">
        <ele>200.4</ele>
        <time>2022-03-24T13:39:19Z</time>
      </trkpt>
      <trkpt lat="46.55396" lon="5.28778">
        <ele>199.2</ele>
        <time>2022-03-24T13:39:23Z</time>
      </trkpt>
      <trkpt lat="46.55399" lon="5.28766">
        <ele>198.6</ele>
        <time>2022-03-24T13:39:24Z</time>
      </trkpt>
      <trkpt lat="46.55407" lon="5.28742">
        <ele>198</ele>
        <time>2022-03-24T13:39:26Z</time>
      </trkpt>
      <trkpt lat="46.55415" lon="5.28722">
        <ele>197.4</ele>
        <time>2022-03-24T13:39:28Z</time>
      </trkpt>
      <trkpt lat="46.55438" lon="5.28668">
        <ele>197.8</ele>
        <time>2022-03-24T13:39:34Z</time>
      </trkpt>
      <trkpt lat="46.55459" lon="5.28623">
        <ele>198.4</ele>
        <time>2022-03-24T13:39:40Z</time>
      </trkpt>
      <trkpt lat="46.5549" lon="5.28558">
        <ele>199</ele>
        <time>2022-03-24T13:39:49Z</time>
      </trkpt>
      <trkpt lat="46.55516" lon="5.28506">
        <ele>199</ele>
        <time>2022-03-24T13:39:56Z</time>
      </trkpt>
      <trkpt lat="46.55547" lon="5.2844">
        <ele>198.6</ele>
        <time>2022-03-24T13:40:05Z</time>
      </trkpt>
      <trkpt lat="46.55576" lon="5.28391">
        <ele>198.6</ele>
        <time>2022-03-24T13:40:12Z</time>
      </trkpt>
      <trkpt lat="46.55581" lon="5.28385">
        <ele>198.6</ele>
        <time>2022-03-24T13:40:13Z</time>
      </trkpt>
      <trkpt lat="46.55616" lon="5.28347">
        <ele>198.4</ele>
        <time>2022-03-24T13:40:20Z</time>
      </trkpt>
      <trkpt lat="46.55662" lon="5.2831">
        <ele>198.6</ele>
        <time>2022-03-24T13:40:28Z</time>
      </trkpt>
      <trkpt lat="46.55687" lon="5.28282">
        <ele>198</ele>
        <time>2022-03-24T13:40:32Z</time>
      </trkpt>
      <trkpt lat="46.55714" lon="5.2824">
        <ele>196.8</ele>
        <time>2022-03-24T13:40:37Z</time>
      </trkpt>
      <trkpt lat="46.55726" lon="5.28225">
        <ele>196.4</ele>
        <time>2022-03-24T13:40:39Z</time>
      </trkpt>
      <trkpt lat="46.55732" lon="5.28218">
        <ele>196.4</ele>
        <time>2022-03-24T13:40:40Z</time>
      </trkpt>
      <trkpt lat="46.55753" lon="5.28202">
        <ele>195.8</ele>
        <time>2022-03-24T13:40:43Z</time>
      </trkpt>
      <trkpt lat="46.55759" lon="5.28198">
        <ele>195.6</ele>
        <time>2022-03-24T13:40:44Z</time>
      </trkpt>
      <trkpt lat="46.55797" lon="5.28172">
        <ele>195.4</ele>
        <time>2022-03-24T13:40:50Z</time>
      </trkpt>
      <trkpt lat="46.55828" lon="5.28155">
        <ele>195.8</ele>
        <time>2022-03-24T13:40:55Z</time>
      </trkpt>
      <trkpt lat="46.55848" lon="5.28153">
        <ele>196.2</ele>
        <time>2022-03-24T13:40:58Z</time>
      </trkpt>
      <trkpt lat="46.55861" lon="5.28155">
        <ele>196.2</ele>
        <time>2022-03-24T13:41:00Z</time>
      </trkpt>
      <trkpt lat="46.55894" lon="5.28173">
        <ele>196.6</ele>
        <time>2022-03-24T13:41:05Z</time>
      </trkpt>
      <trkpt lat="46.55912" lon="5.28191">
        <ele>196.6</ele>
        <time>2022-03-24T13:41:08Z</time>
      </trkpt>
      <trkpt lat="46.55923" lon="5.28205">
        <ele>196.6</ele>
        <time>2022-03-24T13:41:10Z</time>
      </trkpt>
      <trkpt lat="46.55929" lon="5.28211">
        <ele>196.6</ele>
        <time>2022-03-24T13:41:11Z</time>
      </trkpt>
      <trkpt lat="46.55943" lon="5.28219">
        <ele>196.4</ele>
        <time>2022-03-24T13:41:13Z</time>
      </trkpt>
      <trkpt lat="46.5595" lon="5.28221">
        <ele>196.4</ele>
        <time>2022-03-24T13:41:14Z</time>
      </trkpt>
      <trkpt lat="46.55975" lon="5.28224">
        <ele>196.2</ele>
        <time>2022-03-24T13:41:17Z</time>
      </trkpt>
      <trkpt lat="46.55996" lon="5.28225">
        <ele>195.8</ele>
        <time>2022-03-24T13:41:20Z</time>
      </trkpt>
      <trkpt lat="46.56041" lon="5.2822">
        <ele>195.2</ele>
        <time>2022-03-24T13:41:26Z</time>
      </trkpt>
      <trkpt lat="46.56089" lon="5.28214">
        <ele>195.6</ele>
        <time>2022-03-24T13:41:33Z</time>
      </trkpt>
      <trkpt lat="46.56133" lon="5.28209">
        <ele>196.6</ele>
        <time>2022-03-24T13:41:41Z</time>
      </trkpt>
      <trkpt lat="46.56154" lon="5.28203">
        <ele>197.2</ele>
        <time>2022-03-24T13:41:45Z</time>
      </trkpt>
      <trkpt lat="46.56163" lon="5.28197">
        <ele>197.2</ele>
        <time>2022-03-24T13:41:47Z</time>
      </trkpt>
      <trkpt lat="46.56177" lon="5.2818">
        <ele>197.4</ele>
        <time>2022-03-24T13:41:51Z</time>
      </trkpt>
      <trkpt lat="46.5618" lon="5.28174">
        <ele>197.8</ele>
        <time>2022-03-24T13:41:52Z</time>
      </trkpt>
      <trkpt lat="46.56189" lon="5.28153">
        <ele>198</ele>
        <time>2022-03-24T13:41:56Z</time>
      </trkpt>
      <trkpt lat="46.56195" lon="5.28142">
        <ele>198.2</ele>
        <time>2022-03-24T13:41:58Z</time>
      </trkpt>
      <trkpt lat="46.56199" lon="5.28137">
        <ele>198.4</ele>
        <time>2022-03-24T13:41:59Z</time>
      </trkpt>
      <trkpt lat="46.56203" lon="5.28132">
        <ele>198.6</ele>
        <time>2022-03-24T13:42:00Z</time>
      </trkpt>
      <trkpt lat="46.56216" lon="5.28119">
        <ele>199</ele>
        <time>2022-03-24T13:42:03Z</time>
      </trkpt>
      <trkpt lat="46.5624" lon="5.28099">
        <ele>200</ele>
        <time>2022-03-24T13:42:08Z</time>
      </trkpt>
      <trkpt lat="46.56245" lon="5.28095">
        <ele>200</ele>
        <time>2022-03-24T13:42:09Z</time>
      </trkpt>
      <trkpt lat="46.56249" lon="5.2809">
        <ele>200.2</ele>
        <time>2022-03-24T13:42:10Z</time>
      </trkpt>
      <trkpt lat="46.56266" lon="5.28072">
        <ele>201</ele>
        <time>2022-03-24T13:42:14Z</time>
      </trkpt>
      <trkpt lat="46.56273" lon="5.28061">
        <ele>200.8</ele>
        <time>2022-03-24T13:42:16Z</time>
      </trkpt>
      <trkpt lat="46.56282" lon="5.28044">
        <ele>201.2</ele>
        <time>2022-03-24T13:42:19Z</time>
      </trkpt>
      <trkpt lat="46.56298" lon="5.28017">
        <ele>201.2</ele>
        <time>2022-03-24T13:42:23Z</time>
      </trkpt>
      <trkpt lat="46.56328" lon="5.27971">
        <ele>200.2</ele>
        <time>2022-03-24T13:42:29Z</time>
      </trkpt>
      <trkpt lat="46.56339" lon="5.27958">
        <ele>200</ele>
        <time>2022-03-24T13:42:31Z</time>
      </trkpt>
      <trkpt lat="46.56374" lon="5.2792">
        <ele>199.4</ele>
        <time>2022-03-24T13:42:37Z</time>
      </trkpt>
      <trkpt lat="46.56392" lon="5.27903">
        <ele>199.2</ele>
        <time>2022-03-24T13:42:40Z</time>
      </trkpt>
      <trkpt lat="46.56438" lon="5.27863">
        <ele>198</ele>
        <time>2022-03-24T13:42:47Z</time>
      </trkpt>
      <trkpt lat="46.56486" lon="5.27822">
        <ele>196.8</ele>
        <time>2022-03-24T13:42:54Z</time>
      </trkpt>
      <trkpt lat="46.565" lon="5.27811">
        <ele>196.2</ele>
        <time>2022-03-24T13:42:56Z</time>
      </trkpt>
      <trkpt lat="46.56522" lon="5.27795">
        <ele>195.6</ele>
        <time>2022-03-24T13:42:59Z</time>
      </trkpt>
      <trkpt lat="46.5655" lon="5.27776">
        <ele>194.4</ele>
        <time>2022-03-24T13:43:03Z</time>
      </trkpt>
      <trkpt lat="46.56584" lon="5.27756">
        <ele>194.2</ele>
        <time>2022-03-24T13:43:08Z</time>
      </trkpt>
      <trkpt lat="46.56596" lon="5.27747">
        <ele>194</ele>
        <time>2022-03-24T13:43:10Z</time>
      </trkpt>
      <trkpt lat="46.56607" lon="5.27734">
        <ele>194.2</ele>
        <time>2022-03-24T13:43:12Z</time>
      </trkpt>
      <trkpt lat="46.56632" lon="5.27689">
        <ele>195</ele>
        <time>2022-03-24T13:43:18Z</time>
      </trkpt>
      <trkpt lat="46.56642" lon="5.27655">
        <ele>195.6</ele>
        <time>2022-03-24T13:43:22Z</time>
      </trkpt>
      <trkpt lat="46.56646" lon="5.27638">
        <ele>195.8</ele>
        <time>2022-03-24T13:43:24Z</time>
      </trkpt>
      <trkpt lat="46.56653" lon="5.27606">
        <ele>196.6</ele>
        <time>2022-03-24T13:43:28Z</time>
      </trkpt>
      <trkpt lat="46.56661" lon="5.27578">
        <ele>197</ele>
        <time>2022-03-24T13:43:32Z</time>
      </trkpt>
      <trkpt lat="46.56668" lon="5.27553">
        <ele>197.6</ele>
        <time>2022-03-24T13:43:36Z</time>
      </trkpt>
      <trkpt lat="46.56672" lon="5.27543">
        <ele>198.2</ele>
        <time>2022-03-24T13:43:38Z</time>
      </trkpt>
      <trkpt lat="46.56676" lon="5.27527">
        <ele>199</ele>
        <time>2022-03-24T13:43:41Z</time>
      </trkpt>
      <trkpt lat="46.56683" lon="5.27509">
        <ele>199.4</ele>
        <time>2022-03-24T13:43:45Z</time>
      </trkpt>
      <trkpt lat="46.56688" lon="5.27495">
        <ele>200</ele>
        <time>2022-03-24T13:43:48Z</time>
      </trkpt>
      <trkpt lat="46.56692" lon="5.27484">
        <ele>201.2</ele>
        <time>2022-03-24T13:43:51Z</time>
      </trkpt>
      <trkpt lat="46.56698" lon="5.27468">
        <ele>202.4</ele>
        <time>2022-03-24T13:43:55Z</time>
      </trkpt>
      <trkpt lat="46.567" lon="5.2746">
        <ele>203.2</ele>
        <time>2022-03-24T13:43:57Z</time>
      </trkpt>
      <trkpt lat="46.56701" lon="5.27456">
        <ele>203.6</ele>
        <time>2022-03-24T13:43:58Z</time>
      </trkpt>
      <trkpt lat="46.56704" lon="5.2744">
        <ele>204.8</ele>
        <time>2022-03-24T13:44:03Z</time>
      </trkpt>
      <trkpt lat="46.56708" lon="5.27429">
        <ele>206</ele>
        <time>2022-03-24T13:44:06Z</time>
      </trkpt>
      <trkpt lat="46.56712" lon="5.2742">
        <ele>206.4</ele>
        <time>2022-03-24T13:44:09Z</time>
      </trkpt>
      <trkpt lat="46.56715" lon="5.27412">
        <ele>207</ele>
        <time>2022-03-24T13:44:11Z</time>
      </trkpt>
      <trkpt lat="46.56718" lon="5.27398">
        <ele>207.8</ele>
        <time>2022-03-24T13:44:14Z</time>
      </trkpt>
      <trkpt lat="46.5672" lon="5.27391">
        <ele>208</ele>
        <time>2022-03-24T13:44:15Z</time>
      </trkpt>
      <trkpt lat="46.56724" lon="5.27376">
        <ele>209.2</ele>
        <time>2022-03-24T13:44:18Z</time>
      </trkpt>
      <trkpt lat="46.56729" lon="5.27353">
        <ele>210.2</ele>
        <time>2022-03-24T13:44:23Z</time>
      </trkpt>
      <trkpt lat="46.56729" lon="5.27349">
        <ele>210.4</ele>
        <time>2022-03-24T13:44:24Z</time>
      </trkpt>
      <trkpt lat="46.56733" lon="5.27326">
        <ele>211.8</ele>
        <time>2022-03-24T13:44:29Z</time>
      </trkpt>
      <trkpt lat="46.56734" lon="5.27322">
        <ele>212.2</ele>
        <time>2022-03-24T13:44:30Z</time>
      </trkpt>
      <trkpt lat="46.56736" lon="5.27303">
        <ele>213</ele>
        <time>2022-03-24T13:44:34Z</time>
      </trkpt>
      <trkpt lat="46.56738" lon="5.27292">
        <ele>213</ele>
        <time>2022-03-24T13:44:36Z</time>
      </trkpt>
      <trkpt lat="46.56745" lon="5.27249">
        <ele>213.2</ele>
        <time>2022-03-24T13:44:42Z</time>
      </trkpt>
      <trkpt lat="46.56756" lon="5.27198">
        <ele>212.4</ele>
        <time>2022-03-24T13:44:48Z</time>
      </trkpt>
      <trkpt lat="46.56762" lon="5.27172">
        <ele>212</ele>
        <time>2022-03-24T13:44:51Z</time>
      </trkpt>
      <trkpt lat="46.56765" lon="5.27164">
        <ele>211.8</ele>
        <time>2022-03-24T13:44:52Z</time>
      </trkpt>
      <trkpt lat="46.5677" lon="5.27148">
        <ele>211.4</ele>
        <time>2022-03-24T13:44:54Z</time>
      </trkpt>
      <trkpt lat="46.56777" lon="5.27131">
        <ele>211</ele>
        <time>2022-03-24T13:44:56Z</time>
      </trkpt>
      <trkpt lat="46.56781" lon="5.27123">
        <ele>210.6</ele>
        <time>2022-03-24T13:44:57Z</time>
      </trkpt>
      <trkpt lat="46.56785" lon="5.27114">
        <ele>210.4</ele>
        <time>2022-03-24T13:44:58Z</time>
      </trkpt>
      <trkpt lat="46.5681" lon="5.27058">
        <ele>209.4</ele>
        <time>2022-03-24T13:45:04Z</time>
      </trkpt>
      <trkpt lat="46.56817" lon="5.27038">
        <ele>209.2</ele>
        <time>2022-03-24T13:45:06Z</time>
      </trkpt>
      <trkpt lat="46.56827" lon="5.27009">
        <ele>209.2</ele>
        <time>2022-03-24T13:45:09Z</time>
      </trkpt>
      <trkpt lat="46.5685" lon="5.26957">
        <ele>209</ele>
        <time>2022-03-24T13:45:15Z</time>
      </trkpt>
      <trkpt lat="46.56875" lon="5.26906">
        <ele>209.6</ele>
        <time>2022-03-24T13:45:22Z</time>
      </trkpt>
      <trkpt lat="46.56879" lon="5.269">
        <ele>209.6</ele>
        <time>2022-03-24T13:45:23Z</time>
      </trkpt>
      <trkpt lat="46.56893" lon="5.26875">
        <ele>210</ele>
        <time>2022-03-24T13:45:27Z</time>
      </trkpt>
      <trkpt lat="46.56904" lon="5.26849">
        <ele>210.6</ele>
        <time>2022-03-24T13:45:31Z</time>
      </trkpt>
      <trkpt lat="46.56912" lon="5.26829">
        <ele>211.6</ele>
        <time>2022-03-24T13:45:34Z</time>
      </trkpt>
      <trkpt lat="46.56914" lon="5.26822">
        <ele>211.8</ele>
        <time>2022-03-24T13:45:35Z</time>
      </trkpt>
      <trkpt lat="46.56919" lon="5.26809">
        <ele>212</ele>
        <time>2022-03-24T13:45:37Z</time>
      </trkpt>
      <trkpt lat="46.56926" lon="5.26787">
        <ele>212.8</ele>
        <time>2022-03-24T13:45:40Z</time>
      </trkpt>
      <trkpt lat="46.56931" lon="5.26771">
        <ele>213</ele>
        <time>2022-03-24T13:45:42Z</time>
      </trkpt>
      <trkpt lat="46.56945" lon="5.26711">
        <ele>213.2</ele>
        <time>2022-03-24T13:45:49Z</time>
      </trkpt>
      <trkpt lat="46.56955" lon="5.26682">
        <ele>212.8</ele>
        <time>2022-03-24T13:45:52Z</time>
      </trkpt>
      <trkpt lat="46.56965" lon="5.26664">
        <ele>212.2</ele>
        <time>2022-03-24T13:45:54Z</time>
      </trkpt>
      <trkpt lat="46.56977" lon="5.26647">
        <ele>211.6</ele>
        <time>2022-03-24T13:45:56Z</time>
      </trkpt>
      <trkpt lat="46.56995" lon="5.2662">
        <ele>210.4</ele>
        <time>2022-03-24T13:45:59Z</time>
      </trkpt>
      <trkpt lat="46.57006" lon="5.266">
        <ele>209.6</ele>
        <time>2022-03-24T13:46:01Z</time>
      </trkpt>
      <trkpt lat="46.57011" lon="5.26589">
        <ele>208.6</ele>
        <time>2022-03-24T13:46:02Z</time>
      </trkpt>
      <trkpt lat="46.57027" lon="5.26556">
        <ele>207.8</ele>
        <time>2022-03-24T13:46:05Z</time>
      </trkpt>
      <trkpt lat="46.57037" lon="5.26533">
        <ele>206.8</ele>
        <time>2022-03-24T13:46:07Z</time>
      </trkpt>
      <trkpt lat="46.57042" lon="5.26521">
        <ele>206</ele>
        <time>2022-03-24T13:46:08Z</time>
      </trkpt>
      <trkpt lat="46.57057" lon="5.26486">
        <ele>205</ele>
        <time>2022-03-24T13:46:11Z</time>
      </trkpt>
      <trkpt lat="46.57079" lon="5.26431">
        <ele>203.6</ele>
        <time>2022-03-24T13:46:16Z</time>
      </trkpt>
      <trkpt lat="46.57088" lon="5.26412">
        <ele>203.4</ele>
        <time>2022-03-24T13:46:18Z</time>
      </trkpt>
      <trkpt lat="46.57102" lon="5.26388">
        <ele>203.4</ele>
        <time>2022-03-24T13:46:21Z</time>
      </trkpt>
      <trkpt lat="46.57111" lon="5.26374">
        <ele>203.6</ele>
        <time>2022-03-24T13:46:23Z</time>
      </trkpt>
      <trkpt lat="46.57124" lon="5.26359">
        <ele>203.6</ele>
        <time>2022-03-24T13:46:26Z</time>
      </trkpt>
      <trkpt lat="46.57136" lon="5.26346">
        <ele>203.8</ele>
        <time>2022-03-24T13:46:29Z</time>
      </trkpt>
      <trkpt lat="46.57144" lon="5.26339">
        <ele>204.2</ele>
        <time>2022-03-24T13:46:31Z</time>
      </trkpt>
      <trkpt lat="46.57148" lon="5.26336">
        <ele>204.8</ele>
        <time>2022-03-24T13:46:32Z</time>
      </trkpt>
      <trkpt lat="46.57155" lon="5.26329">
        <ele>205.2</ele>
        <time>2022-03-24T13:46:34Z</time>
      </trkpt>
      <trkpt lat="46.57162" lon="5.26324">
        <ele>206.2</ele>
        <time>2022-03-24T13:46:36Z</time>
      </trkpt>
      <trkpt lat="46.57165" lon="5.26322">
        <ele>206.4</ele>
        <time>2022-03-24T13:46:37Z</time>
      </trkpt>
      <trkpt lat="46.57169" lon="5.26319">
        <ele>206.8</ele>
        <time>2022-03-24T13:46:38Z</time>
      </trkpt>
      <trkpt lat="46.57175" lon="5.26313">
        <ele>207.4</ele>
        <time>2022-03-24T13:46:40Z</time>
      </trkpt>
      <trkpt lat="46.57178" lon="5.2631">
        <ele>207.6</ele>
        <time>2022-03-24T13:46:41Z</time>
      </trkpt>
      <trkpt lat="46.57191" lon="5.26298">
        <ele>208.8</ele>
        <time>2022-03-24T13:46:45Z</time>
      </trkpt>
      <trkpt lat="46.57194" lon="5.26295">
        <ele>209.2</ele>
        <time>2022-03-24T13:46:46Z</time>
      </trkpt>
      <trkpt lat="46.57206" lon="5.26282">
        <ele>210</ele>
        <time>2022-03-24T13:46:50Z</time>
      </trkpt>
      <trkpt lat="46.57209" lon="5.26279">
        <ele>210</ele>
        <time>2022-03-24T13:46:51Z</time>
      </trkpt>
      <trkpt lat="46.57221" lon="5.26266">
        <ele>211.2</ele>
        <time>2022-03-24T13:46:55Z</time>
      </trkpt>
      <trkpt lat="46.57229" lon="5.26254">
        <ele>211.6</ele>
        <time>2022-03-24T13:46:58Z</time>
      </trkpt>
      <trkpt lat="46.57241" lon="5.26238">
        <ele>212.2</ele>
        <time>2022-03-24T13:47:02Z</time>
      </trkpt>
      <trkpt lat="46.5725" lon="5.26225">
        <ele>212.8</ele>
        <time>2022-03-24T13:47:05Z</time>
      </trkpt>
      <trkpt lat="46.57258" lon="5.26215">
        <ele>213.6</ele>
        <time>2022-03-24T13:47:08Z</time>
      </trkpt>
      <trkpt lat="46.57281" lon="5.26189">
        <ele>214.6</ele>
        <time>2022-03-24T13:47:15Z</time>
      </trkpt>
      <trkpt lat="46.57284" lon="5.26186">
        <ele>215</ele>
        <time>2022-03-24T13:47:16Z</time>
      </trkpt>
      <trkpt lat="46.57317" lon="5.26151">
        <ele>215.6</ele>
        <time>2022-03-24T13:47:26Z</time>
      </trkpt>
      <trkpt lat="46.57327" lon="5.2614">
        <ele>215.6</ele>
        <time>2022-03-24T13:47:29Z</time>
      </trkpt>
      <trkpt lat="46.57334" lon="5.26133">
        <ele>216</ele>
        <time>2022-03-24T13:47:31Z</time>
      </trkpt>
      <trkpt lat="46.57358" lon="5.26107">
        <ele>216.4</ele>
        <time>2022-03-24T13:47:38Z</time>
      </trkpt>
      <trkpt lat="46.57365" lon="5.261">
        <ele>216.6</ele>
        <time>2022-03-24T13:47:40Z</time>
      </trkpt>
      <trkpt lat="46.5738" lon="5.26083">
        <ele>216.8</ele>
        <time>2022-03-24T13:47:44Z</time>
      </trkpt>
      <trkpt lat="46.57419" lon="5.26044">
        <ele>216.6</ele>
        <time>2022-03-24T13:47:53Z</time>
      </trkpt>
      <trkpt lat="46.57443" lon="5.26018">
        <ele>216.2</ele>
        <time>2022-03-24T13:47:59Z</time>
      </trkpt>
      <trkpt lat="46.57452" lon="5.26006">
        <ele>215</ele>
        <time>2022-03-24T13:48:03Z</time>
      </trkpt>
      <trkpt lat="46.57453" lon="5.26005">
        <ele>214.8</ele>
        <time>2022-03-24T13:48:05Z</time>
      </trkpt>
      <trkpt lat="46.57453" lon="5.26005">
        <ele>214.6</ele>
        <time>2022-03-24T13:48:06Z</time>
      </trkpt>
      <trkpt lat="46.57456" lon="5.25998">
        <ele>213.4</ele>
        <time>2022-03-24T13:48:54Z</time>
      </trkpt>
      <trkpt lat="46.57465" lon="5.25981">
        <ele>213.4</ele>
        <time>2022-03-24T13:48:57Z</time>
      </trkpt>
      <trkpt lat="46.57468" lon="5.25974">
        <ele>213.4</ele>
        <time>2022-03-24T13:48:58Z</time>
      </trkpt>
      <trkpt lat="46.5747" lon="5.25966">
        <ele>213.2</ele>
        <time>2022-03-24T13:48:59Z</time>
      </trkpt>
      <trkpt lat="46.57476" lon="5.25934">
        <ele>212.6</ele>
        <time>2022-03-24T13:49:02Z</time>
      </trkpt>
      <trkpt lat="46.5748" lon="5.25911">
        <ele>212.2</ele>
        <time>2022-03-24T13:49:04Z</time>
      </trkpt>
      <trkpt lat="46.57487" lon="5.25877">
        <ele>211.4</ele>
        <time>2022-03-24T13:49:07Z</time>
      </trkpt>
      <trkpt lat="46.5749" lon="5.25866">
        <ele>211.2</ele>
        <time>2022-03-24T13:49:08Z</time>
      </trkpt>
      <trkpt lat="46.57495" lon="5.25833">
        <ele>210.2</ele>
        <time>2022-03-24T13:49:11Z</time>
      </trkpt>
      <trkpt lat="46.575" lon="5.25811">
        <ele>209.8</ele>
        <time>2022-03-24T13:49:13Z</time>
      </trkpt>
      <trkpt lat="46.57508" lon="5.25781">
        <ele>209.2</ele>
        <time>2022-03-24T13:49:16Z</time>
      </trkpt>
      <trkpt lat="46.57522" lon="5.25743">
        <ele>208.8</ele>
        <time>2022-03-24T13:49:19Z</time>
      </trkpt>
      <trkpt lat="46.57543" lon="5.25686">
        <ele>208.2</ele>
        <time>2022-03-24T13:49:25Z</time>
      </trkpt>
      <trkpt lat="46.57553" lon="5.25659">
        <ele>207.8</ele>
        <time>2022-03-24T13:49:28Z</time>
      </trkpt>
      <trkpt lat="46.57563" lon="5.25634">
        <ele>207.8</ele>
        <time>2022-03-24T13:49:31Z</time>
      </trkpt>
      <trkpt lat="46.57576" lon="5.25603">
        <ele>207.4</ele>
        <time>2022-03-24T13:49:35Z</time>
      </trkpt>
      <trkpt lat="46.57578" lon="5.25595">
        <ele>207.4</ele>
        <time>2022-03-24T13:49:36Z</time>
      </trkpt>
      <trkpt lat="46.57582" lon="5.25579">
        <ele>207.2</ele>
        <time>2022-03-24T13:49:38Z</time>
      </trkpt>
      <trkpt lat="46.57582" lon="5.25579">
        <ele>207</ele>
        <time>2022-03-24T13:49:39Z</time>
      </trkpt>
      <trkpt lat="46.57583" lon="5.25559">
        <ele>207</ele>
        <time>2022-03-24T13:49:40Z</time>
      </trkpt>
      <trkpt lat="46.57582" lon="5.25535">
        <ele>206.6</ele>
        <time>2022-03-24T13:49:42Z</time>
      </trkpt>
      <trkpt lat="46.57579" lon="5.25494">
        <ele>205.8</ele>
        <time>2022-03-24T13:49:45Z</time>
      </trkpt>
      <trkpt lat="46.57577" lon="5.25465">
        <ele>205</ele>
        <time>2022-03-24T13:49:47Z</time>
      </trkpt>
      <trkpt lat="46.57576" lon="5.2545">
        <ele>204.4</ele>
        <time>2022-03-24T13:49:48Z</time>
      </trkpt>
      <trkpt lat="46.57574" lon="5.25419">
        <ele>203.4</ele>
        <time>2022-03-24T13:49:50Z</time>
      </trkpt>
      <trkpt lat="46.57573" lon="5.25387">
        <ele>202</ele>
        <time>2022-03-24T13:49:52Z</time>
      </trkpt>
      <trkpt lat="46.57575" lon="5.25371">
        <ele>200.8</ele>
        <time>2022-03-24T13:49:53Z</time>
      </trkpt>
      <trkpt lat="46.57584" lon="5.25343">
        <ele>199.6</ele>
        <time>2022-03-24T13:49:55Z</time>
      </trkpt>
      <trkpt lat="46.5759" lon="5.25333">
        <ele>198.8</ele>
        <time>2022-03-24T13:49:56Z</time>
      </trkpt>
      <trkpt lat="46.57598" lon="5.25325">
        <ele>198.4</ele>
        <time>2022-03-24T13:49:57Z</time>
      </trkpt>
      <trkpt lat="46.57615" lon="5.25312">
        <ele>198</ele>
        <time>2022-03-24T13:49:59Z</time>
      </trkpt>
      <trkpt lat="46.57631" lon="5.25299">
        <ele>197.4</ele>
        <time>2022-03-24T13:50:01Z</time>
      </trkpt>
      <trkpt lat="46.57655" lon="5.25278">
        <ele>196.4</ele>
        <time>2022-03-24T13:50:05Z</time>
      </trkpt>
      <trkpt lat="46.57677" lon="5.25259">
        <ele>196</ele>
        <time>2022-03-24T13:50:07Z</time>
      </trkpt>
      <trkpt lat="46.57699" lon="5.25239">
        <ele>195.4</ele>
        <time>2022-03-24T13:50:10Z</time>
      </trkpt>
      <trkpt lat="46.57742" lon="5.25202">
        <ele>194.2</ele>
        <time>2022-03-24T13:50:16Z</time>
      </trkpt>
      <trkpt lat="46.57783" lon="5.25167">
        <ele>193.8</ele>
        <time>2022-03-24T13:50:22Z</time>
      </trkpt>
      <trkpt lat="46.57823" lon="5.2514">
        <ele>193.4</ele>
        <time>2022-03-24T13:50:28Z</time>
      </trkpt>
      <trkpt lat="46.5785" lon="5.25132">
        <ele>193.6</ele>
        <time>2022-03-24T13:50:32Z</time>
      </trkpt>
      <trkpt lat="46.57856" lon="5.25131">
        <ele>193.6</ele>
        <time>2022-03-24T13:50:33Z</time>
      </trkpt>
      <trkpt lat="46.579" lon="5.25137">
        <ele>194.4</ele>
        <time>2022-03-24T13:50:40Z</time>
      </trkpt>
      <trkpt lat="46.57952" lon="5.25145">
        <ele>194.6</ele>
        <time>2022-03-24T13:50:49Z</time>
      </trkpt>
      <trkpt lat="46.57957" lon="5.25144">
        <ele>194.8</ele>
        <time>2022-03-24T13:50:50Z</time>
      </trkpt>
      <trkpt lat="46.57965" lon="5.25139">
        <ele>194.8</ele>
        <time>2022-03-24T13:50:52Z</time>
      </trkpt>
      <trkpt lat="46.57971" lon="5.25129">
        <ele>195</ele>
        <time>2022-03-24T13:50:54Z</time>
      </trkpt>
      <trkpt lat="46.57973" lon="5.25123">
        <ele>195.2</ele>
        <time>2022-03-24T13:50:55Z</time>
      </trkpt>
      <trkpt lat="46.57975" lon="5.25104">
        <ele>195.4</ele>
        <time>2022-03-24T13:50:58Z</time>
      </trkpt>
      <trkpt lat="46.57973" lon="5.25098">
        <ele>195.6</ele>
        <time>2022-03-24T13:50:59Z</time>
      </trkpt>
      <trkpt lat="46.5797" lon="5.25094">
        <ele>195.6</ele>
        <time>2022-03-24T13:51:00Z</time>
      </trkpt>
      <trkpt lat="46.5796" lon="5.25091">
        <ele>195.8</ele>
        <time>2022-03-24T13:51:02Z</time>
      </trkpt>
      <trkpt lat="46.57912" lon="5.25094">
        <ele>196.2</ele>
        <time>2022-03-24T13:51:11Z</time>
      </trkpt>
      <trkpt lat="46.5789" lon="5.25094">
        <ele>196.8</ele>
        <time>2022-03-24T13:51:15Z</time>
      </trkpt>
      <trkpt lat="46.57869" lon="5.25094">
        <ele>197.6</ele>
        <time>2022-03-24T13:51:19Z</time>
      </trkpt>
      <trkpt lat="46.57859" lon="5.25095">
        <ele>198</ele>
        <time>2022-03-24T13:51:21Z</time>
      </trkpt>
      <trkpt lat="46.57819" lon="5.25093">
        <ele>198.8</ele>
        <time>2022-03-24T13:51:29Z</time>
      </trkpt>
      <trkpt lat="46.57815" lon="5.25093">
        <ele>199</ele>
        <time>2022-03-24T13:51:30Z</time>
      </trkpt>
      <trkpt lat="46.57764" lon="5.25092">
        <ele>200</ele>
        <time>2022-03-24T13:51:40Z</time>
      </trkpt>
      <trkpt lat="46.57758" lon="5.25091">
        <ele>200</ele>
        <time>2022-03-24T13:51:41Z</time>
      </trkpt>
      <trkpt lat="46.57705" lon="5.25092">
        <ele>200.4</ele>
        <time>2022-03-24T13:51:50Z</time>
      </trkpt>
      <trkpt lat="46.57672" lon="5.25102">
        <ele>200.2</ele>
        <time>2022-03-24T13:51:55Z</time>
      </trkpt>
      <trkpt lat="46.5762" lon="5.25133">
        <ele>198.8</ele>
        <time>2022-03-24T13:52:02Z</time>
      </trkpt>
      <trkpt lat="46.57605" lon="5.25137">
        <ele>198.2</ele>
        <time>2022-03-24T13:52:04Z</time>
      </trkpt>
      <trkpt lat="46.57597" lon="5.25138">
        <ele>197.8</ele>
        <time>2022-03-24T13:52:05Z</time>
      </trkpt>
      <trkpt lat="46.57588" lon="5.25138">
        <ele>197.4</ele>
        <time>2022-03-24T13:52:06Z</time>
      </trkpt>
      <trkpt lat="46.57563" lon="5.25132">
        <ele>197</ele>
        <time>2022-03-24T13:52:09Z</time>
      </trkpt>
      <trkpt lat="46.57555" lon="5.25128">
        <ele>196.6</ele>
        <time>2022-03-24T13:52:10Z</time>
      </trkpt>
      <trkpt lat="46.57547" lon="5.25123">
        <ele>196.8</ele>
        <time>2022-03-24T13:52:11Z</time>
      </trkpt>
      <trkpt lat="46.57539" lon="5.25117">
        <ele>196.4</ele>
        <time>2022-03-24T13:52:12Z</time>
      </trkpt>
      <trkpt lat="46.57531" lon="5.2511">
        <ele>195.8</ele>
        <time>2022-03-24T13:52:13Z</time>
      </trkpt>
      <trkpt lat="46.57524" lon="5.25101">
        <ele>195.6</ele>
        <time>2022-03-24T13:52:14Z</time>
      </trkpt>
      <trkpt lat="46.57518" lon="5.25092">
        <ele>194.8</ele>
        <time>2022-03-24T13:52:15Z</time>
      </trkpt>
      <trkpt lat="46.57512" lon="5.25083">
        <ele>194.6</ele>
        <time>2022-03-24T13:52:16Z</time>
      </trkpt>
      <trkpt lat="46.5749" lon="5.25041">
        <ele>193.4</ele>
        <time>2022-03-24T13:52:20Z</time>
      </trkpt>
      <trkpt lat="46.57459" lon="5.24969">
        <ele>192.8</ele>
        <time>2022-03-24T13:52:27Z</time>
      </trkpt>
      <trkpt lat="46.5745" lon="5.2495">
        <ele>192.6</ele>
        <time>2022-03-24T13:52:29Z</time>
      </trkpt>
      <trkpt lat="46.5742" lon="5.24884">
        <ele>192.6</ele>
        <time>2022-03-24T13:52:36Z</time>
      </trkpt>
      <trkpt lat="46.57417" lon="5.24875">
        <ele>192.6</ele>
        <time>2022-03-24T13:52:37Z</time>
      </trkpt>
      <trkpt lat="46.57401" lon="5.24838">
        <ele>192.4</ele>
        <time>2022-03-24T13:52:41Z</time>
      </trkpt>
      <trkpt lat="46.57389" lon="5.24811">
        <ele>192.2</ele>
        <time>2022-03-24T13:52:44Z</time>
      </trkpt>
      <trkpt lat="46.57381" lon="5.24794">
        <ele>192.2</ele>
        <time>2022-03-24T13:52:46Z</time>
      </trkpt>
      <trkpt lat="46.57371" lon="5.24781">
        <ele>192.2</ele>
        <time>2022-03-24T13:52:48Z</time>
      </trkpt>
      <trkpt lat="46.57331" lon="5.24743">
        <ele>192.4</ele>
        <time>2022-03-24T13:52:55Z</time>
      </trkpt>
      <trkpt lat="46.57308" lon="5.24718">
        <ele>192.4</ele>
        <time>2022-03-24T13:52:59Z</time>
      </trkpt>
      <trkpt lat="46.57299" lon="5.24699">
        <ele>192</ele>
        <time>2022-03-24T13:53:01Z</time>
      </trkpt>
      <trkpt lat="46.57282" lon="5.24643">
        <ele>191.8</ele>
        <time>2022-03-24T13:53:07Z</time>
      </trkpt>
      <trkpt lat="46.57279" lon="5.24591">
        <ele>191.6</ele>
        <time>2022-03-24T13:53:12Z</time>
      </trkpt>
      <trkpt lat="46.5728" lon="5.24542">
        <ele>191.6</ele>
        <time>2022-03-24T13:53:17Z</time>
      </trkpt>
      <trkpt lat="46.57281" lon="5.24534">
        <ele>191.6</ele>
        <time>2022-03-24T13:53:18Z</time>
      </trkpt>
      <trkpt lat="46.57292" lon="5.24487">
        <ele>192.6</ele>
        <time>2022-03-24T13:53:24Z</time>
      </trkpt>
      <trkpt lat="46.57303" lon="5.24449">
        <ele>193</ele>
        <time>2022-03-24T13:53:29Z</time>
      </trkpt>
      <trkpt lat="46.57306" lon="5.24434">
        <ele>193.2</ele>
        <time>2022-03-24T13:53:31Z</time>
      </trkpt>
      <trkpt lat="46.5731" lon="5.24413">
        <ele>193.6</ele>
        <time>2022-03-24T13:53:34Z</time>
      </trkpt>
      <trkpt lat="46.57312" lon="5.24392">
        <ele>194</ele>
        <time>2022-03-24T13:53:37Z</time>
      </trkpt>
      <trkpt lat="46.57312" lon="5.24384">
        <ele>194</ele>
        <time>2022-03-24T13:53:38Z</time>
      </trkpt>
      <trkpt lat="46.57308" lon="5.24331">
        <ele>194.8</ele>
        <time>2022-03-24T13:53:46Z</time>
      </trkpt>
      <trkpt lat="46.57303" lon="5.24293">
        <ele>195.8</ele>
        <time>2022-03-24T13:53:52Z</time>
      </trkpt>
      <trkpt lat="46.57298" lon="5.24265">
        <ele>197.2</ele>
        <time>2022-03-24T13:53:57Z</time>
      </trkpt>
      <trkpt lat="46.57291" lon="5.24246">
        <ele>198.2</ele>
        <time>2022-03-24T13:54:01Z</time>
      </trkpt>
      <trkpt lat="46.57284" lon="5.24232">
        <ele>198.8</ele>
        <time>2022-03-24T13:54:04Z</time>
      </trkpt>
      <trkpt lat="46.57279" lon="5.24224">
        <ele>199.4</ele>
        <time>2022-03-24T13:54:06Z</time>
      </trkpt>
      <trkpt lat="46.57265" lon="5.24207">
        <ele>200.6</ele>
        <time>2022-03-24T13:54:11Z</time>
      </trkpt>
      <trkpt lat="46.57262" lon="5.24203">
        <ele>200.8</ele>
        <time>2022-03-24T13:54:12Z</time>
      </trkpt>
      <trkpt lat="46.57246" lon="5.2419">
        <ele>201.8</ele>
        <time>2022-03-24T13:54:17Z</time>
      </trkpt>
      <trkpt lat="46.57237" lon="5.24184">
        <ele>202.6</ele>
        <time>2022-03-24T13:54:20Z</time>
      </trkpt>
      <trkpt lat="46.57234" lon="5.24182">
        <ele>202.8</ele>
        <time>2022-03-24T13:54:21Z</time>
      </trkpt>
      <trkpt lat="46.57221" lon="5.24174">
        <ele>203.8</ele>
        <time>2022-03-24T13:54:25Z</time>
      </trkpt>
      <trkpt lat="46.57212" lon="5.24167">
        <ele>204.4</ele>
        <time>2022-03-24T13:54:28Z</time>
      </trkpt>
      <trkpt lat="46.57206" lon="5.2416">
        <ele>204.8</ele>
        <time>2022-03-24T13:54:30Z</time>
      </trkpt>
      <trkpt lat="46.57199" lon="5.24149">
        <ele>205.6</ele>
        <time>2022-03-24T13:54:33Z</time>
      </trkpt>
      <trkpt lat="46.57197" lon="5.24144">
        <ele>205.8</ele>
        <time>2022-03-24T13:54:34Z</time>
      </trkpt>
      <trkpt lat="46.57187" lon="5.24123">
        <ele>207</ele>
        <time>2022-03-24T13:54:39Z</time>
      </trkpt>
      <trkpt lat="46.57183" lon="5.24114">
        <ele>207.6</ele>
        <time>2022-03-24T13:54:41Z</time>
      </trkpt>
      <trkpt lat="46.5718" lon="5.24105">
        <ele>208.2</ele>
        <time>2022-03-24T13:54:43Z</time>
      </trkpt>
      <trkpt lat="46.5717" lon="5.24084">
        <ele>209.6</ele>
        <time>2022-03-24T13:54:48Z</time>
      </trkpt>
      <trkpt lat="46.57158" lon="5.24058">
        <ele>210.8</ele>
        <time>2022-03-24T13:54:54Z</time>
      </trkpt>
      <trkpt lat="46.57145" lon="5.24037">
        <ele>212</ele>
        <time>2022-03-24T13:54:59Z</time>
      </trkpt>
      <trkpt lat="46.57136" lon="5.24024">
        <ele>212.4</ele>
        <time>2022-03-24T13:55:02Z</time>
      </trkpt>
      <trkpt lat="46.57126" lon="5.24011">
        <ele>213</ele>
        <time>2022-03-24T13:55:05Z</time>
      </trkpt>
      <trkpt lat="46.57109" lon="5.23997">
        <ele>213.4</ele>
        <time>2022-03-24T13:55:09Z</time>
      </trkpt>
      <trkpt lat="46.57078" lon="5.23983">
        <ele>213.8</ele>
        <time>2022-03-24T13:55:15Z</time>
      </trkpt>
      <trkpt lat="46.57061" lon="5.23979">
        <ele>214</ele>
        <time>2022-03-24T13:55:18Z</time>
      </trkpt>
      <trkpt lat="46.57033" lon="5.2397">
        <ele>214.4</ele>
        <time>2022-03-24T13:55:23Z</time>
      </trkpt>
      <trkpt lat="46.56977" lon="5.23953">
        <ele>214.6</ele>
        <time>2022-03-24T13:55:32Z</time>
      </trkpt>
      <trkpt lat="46.56964" lon="5.2395">
        <ele>214.6</ele>
        <time>2022-03-24T13:55:34Z</time>
      </trkpt>
      <trkpt lat="46.56919" lon="5.23933">
        <ele>214.6</ele>
        <time>2022-03-24T13:55:41Z</time>
      </trkpt>
      <trkpt lat="46.56906" lon="5.23926">
        <ele>214.6</ele>
        <time>2022-03-24T13:55:43Z</time>
      </trkpt>
      <trkpt lat="46.56867" lon="5.23901">
        <ele>214.2</ele>
        <time>2022-03-24T13:55:49Z</time>
      </trkpt>
      <trkpt lat="46.56825" lon="5.23876">
        <ele>213.6</ele>
        <time>2022-03-24T13:55:55Z</time>
      </trkpt>
      <trkpt lat="46.56804" lon="5.23858">
        <ele>213</ele>
        <time>2022-03-24T13:55:58Z</time>
      </trkpt>
      <trkpt lat="46.56783" lon="5.23836">
        <ele>212.4</ele>
        <time>2022-03-24T13:56:01Z</time>
      </trkpt>
      <trkpt lat="46.56767" lon="5.23809">
        <ele>211.8</ele>
        <time>2022-03-24T13:56:04Z</time>
      </trkpt>
      <trkpt lat="46.56758" lon="5.23791">
        <ele>211.4</ele>
        <time>2022-03-24T13:56:06Z</time>
      </trkpt>
      <trkpt lat="46.56725" lon="5.2373">
        <ele>211.4</ele>
        <time>2022-03-24T13:56:13Z</time>
      </trkpt>
      <trkpt lat="46.56687" lon="5.23673">
        <ele>211.6</ele>
        <time>2022-03-24T13:56:21Z</time>
      </trkpt>
      <trkpt lat="46.56656" lon="5.23637">
        <ele>212.8</ele>
        <time>2022-03-24T13:56:28Z</time>
      </trkpt>
      <trkpt lat="46.56647" lon="5.23629">
        <ele>213.2</ele>
        <time>2022-03-24T13:56:30Z</time>
      </trkpt>
      <trkpt lat="46.56612" lon="5.23602">
        <ele>214</ele>
        <time>2022-03-24T13:56:37Z</time>
      </trkpt>
      <trkpt lat="46.5659" lon="5.23589">
        <ele>214.2</ele>
        <time>2022-03-24T13:56:41Z</time>
      </trkpt>
      <trkpt lat="46.56563" lon="5.2357">
        <ele>214.6</ele>
        <time>2022-03-24T13:56:46Z</time>
      </trkpt>
      <trkpt lat="46.5653" lon="5.23533">
        <ele>215.2</ele>
        <time>2022-03-24T13:56:53Z</time>
      </trkpt>
      <trkpt lat="46.56521" lon="5.23521">
        <ele>215.4</ele>
        <time>2022-03-24T13:56:55Z</time>
      </trkpt>
      <trkpt lat="46.56483" lon="5.23464">
        <ele>215.6</ele>
        <time>2022-03-24T13:57:04Z</time>
      </trkpt>
      <trkpt lat="46.56454" lon="5.23415">
        <ele>215.6</ele>
        <time>2022-03-24T13:57:11Z</time>
      </trkpt>
      <trkpt lat="46.56426" lon="5.23352">
        <ele>215.6</ele>
        <time>2022-03-24T13:57:19Z</time>
      </trkpt>
      <trkpt lat="46.56405" lon="5.23295">
        <ele>215.6</ele>
        <time>2022-03-24T13:57:26Z</time>
      </trkpt>
      <trkpt lat="46.56379" lon="5.23223">
        <ele>216</ele>
        <time>2022-03-24T13:57:35Z</time>
      </trkpt>
      <trkpt lat="46.56357" lon="5.23165">
        <ele>216</ele>
        <time>2022-03-24T13:57:42Z</time>
      </trkpt>
      <trkpt lat="46.56328" lon="5.2309">
        <ele>215.8</ele>
        <time>2022-03-24T13:57:51Z</time>
      </trkpt>
      <trkpt lat="46.56303" lon="5.23025">
        <ele>215.6</ele>
        <time>2022-03-24T13:57:58Z</time>
      </trkpt>
      <trkpt lat="46.56277" lon="5.22958">
        <ele>214.4</ele>
        <time>2022-03-24T13:58:04Z</time>
      </trkpt>
      <trkpt lat="46.56273" lon="5.22946">
        <ele>214</ele>
        <time>2022-03-24T13:58:05Z</time>
      </trkpt>
      <trkpt lat="46.56259" lon="5.22907">
        <ele>212.8</ele>
        <time>2022-03-24T13:58:08Z</time>
      </trkpt>
      <trkpt lat="46.56249" lon="5.22882">
        <ele>211.8</ele>
        <time>2022-03-24T13:58:10Z</time>
      </trkpt>
      <trkpt lat="46.56244" lon="5.22869">
        <ele>211.6</ele>
        <time>2022-03-24T13:58:11Z</time>
      </trkpt>
      <trkpt lat="46.56234" lon="5.22843">
        <ele>210.6</ele>
        <time>2022-03-24T13:58:13Z</time>
      </trkpt>
      <trkpt lat="46.56224" lon="5.22817">
        <ele>209.6</ele>
        <time>2022-03-24T13:58:15Z</time>
      </trkpt>
      <trkpt lat="46.56214" lon="5.22789">
        <ele>208.6</ele>
        <time>2022-03-24T13:58:17Z</time>
      </trkpt>
      <trkpt lat="46.56209" lon="5.22775">
        <ele>208.4</ele>
        <time>2022-03-24T13:58:18Z</time>
      </trkpt>
      <trkpt lat="46.56198" lon="5.22747">
        <ele>206.8</ele>
        <time>2022-03-24T13:58:20Z</time>
      </trkpt>
      <trkpt lat="46.56187" lon="5.22719">
        <ele>205.8</ele>
        <time>2022-03-24T13:58:22Z</time>
      </trkpt>
      <trkpt lat="46.56177" lon="5.22691">
        <ele>204.4</ele>
        <time>2022-03-24T13:58:24Z</time>
      </trkpt>
      <trkpt lat="46.56172" lon="5.22678">
        <ele>203.8</ele>
        <time>2022-03-24T13:58:25Z</time>
      </trkpt>
      <trkpt lat="46.56167" lon="5.22664">
        <ele>203.2</ele>
        <time>2022-03-24T13:58:26Z</time>
      </trkpt>
      <trkpt lat="46.56148" lon="5.22613">
        <ele>201.8</ele>
        <time>2022-03-24T13:58:30Z</time>
      </trkpt>
      <trkpt lat="46.5614" lon="5.22588">
        <ele>201.2</ele>
        <time>2022-03-24T13:58:32Z</time>
      </trkpt>
      <trkpt lat="46.56132" lon="5.22564">
        <ele>200.8</ele>
        <time>2022-03-24T13:58:34Z</time>
      </trkpt>
      <trkpt lat="46.56114" lon="5.22506">
        <ele>200.2</ele>
        <time>2022-03-24T13:58:39Z</time>
      </trkpt>
      <trkpt lat="46.56094" lon="5.22438">
        <ele>200</ele>
        <time>2022-03-24T13:58:45Z</time>
      </trkpt>
      <trkpt lat="46.56087" lon="5.22416">
        <ele>199.8</ele>
        <time>2022-03-24T13:58:47Z</time>
      </trkpt>
      <trkpt lat="46.56064" lon="5.22339">
        <ele>200</ele>
        <time>2022-03-24T13:58:54Z</time>
      </trkpt>
      <trkpt lat="46.56054" lon="5.22306">
        <ele>200</ele>
        <time>2022-03-24T13:58:57Z</time>
      </trkpt>
      <trkpt lat="46.56031" lon="5.22232">
        <ele>200</ele>
        <time>2022-03-24T13:59:04Z</time>
      </trkpt>
      <trkpt lat="46.56028" lon="5.22222">
        <ele>200</ele>
        <time>2022-03-24T13:59:05Z</time>
      </trkpt>
      <trkpt lat="46.56006" lon="5.22146">
        <ele>200.8</ele>
        <time>2022-03-24T13:59:13Z</time>
      </trkpt>
      <trkpt lat="46.55982" lon="5.22065">
        <ele>200.6</ele>
        <time>2022-03-24T13:59:21Z</time>
      </trkpt>
      <trkpt lat="46.55972" lon="5.22035">
        <ele>200.4</ele>
        <time>2022-03-24T13:59:24Z</time>
      </trkpt>
      <trkpt lat="46.5595" lon="5.21959">
        <ele>200.4</ele>
        <time>2022-03-24T13:59:32Z</time>
      </trkpt>
      <trkpt lat="46.55947" lon="5.2195">
        <ele>200.4</ele>
        <time>2022-03-24T13:59:33Z</time>
      </trkpt>
      <trkpt lat="46.55924" lon="5.21875">
        <ele>200.6</ele>
        <time>2022-03-24T13:59:42Z</time>
      </trkpt>
      <trkpt lat="46.559" lon="5.21798">
        <ele>200.6</ele>
        <time>2022-03-24T13:59:51Z</time>
      </trkpt>
      <trkpt lat="46.55888" lon="5.21741">
        <ele>201</ele>
        <time>2022-03-24T13:59:58Z</time>
      </trkpt>
      <trkpt lat="46.55885" lon="5.21719">
        <ele>201.4</ele>
        <time>2022-03-24T14:00:01Z</time>
      </trkpt>
      <trkpt lat="46.55882" lon="5.2169">
        <ele>202</ele>
        <time>2022-03-24T14:00:05Z</time>
      </trkpt>
      <trkpt lat="46.5588" lon="5.21676">
        <ele>202.4</ele>
        <time>2022-03-24T14:00:07Z</time>
      </trkpt>
      <trkpt lat="46.55878" lon="5.21663">
        <ele>202.8</ele>
        <time>2022-03-24T14:00:09Z</time>
      </trkpt>
      <trkpt lat="46.55875" lon="5.21641">
        <ele>203.6</ele>
        <time>2022-03-24T14:00:12Z</time>
      </trkpt>
      <trkpt lat="46.55871" lon="5.21611">
        <ele>204.6</ele>
        <time>2022-03-24T14:00:17Z</time>
      </trkpt>
      <trkpt lat="46.55871" lon="5.21605">
        <ele>204.8</ele>
        <time>2022-03-24T14:00:18Z</time>
      </trkpt>
      <trkpt lat="46.55869" lon="5.21594">
        <ele>205.6</ele>
        <time>2022-03-24T14:00:20Z</time>
      </trkpt>
      <trkpt lat="46.55869" lon="5.21588">
        <ele>205.8</ele>
        <time>2022-03-24T14:00:21Z</time>
      </trkpt>
      <trkpt lat="46.55866" lon="5.21568">
        <ele>206.6</ele>
        <time>2022-03-24T14:00:24Z</time>
      </trkpt>
      <trkpt lat="46.55864" lon="5.21554">
        <ele>207</ele>
        <time>2022-03-24T14:00:26Z</time>
      </trkpt>
      <trkpt lat="46.55861" lon="5.21519">
        <ele>208.2</ele>
        <time>2022-03-24T14:00:31Z</time>
      </trkpt>
      <trkpt lat="46.55861" lon="5.21507">
        <ele>208.4</ele>
        <time>2022-03-24T14:00:33Z</time>
      </trkpt>
      <trkpt lat="46.55861" lon="5.21482">
        <ele>209.2</ele>
        <time>2022-03-24T14:00:37Z</time>
      </trkpt>
      <trkpt lat="46.5586" lon="5.21475">
        <ele>209.6</ele>
        <time>2022-03-24T14:00:38Z</time>
      </trkpt>
      <trkpt lat="46.55861" lon="5.21457">
        <ele>210</ele>
        <time>2022-03-24T14:00:41Z</time>
      </trkpt>
      <trkpt lat="46.5586" lon="5.2145">
        <ele>210.2</ele>
        <time>2022-03-24T14:00:42Z</time>
      </trkpt>
      <trkpt lat="46.55861" lon="5.21426">
        <ele>211.2</ele>
        <time>2022-03-24T14:00:46Z</time>
      </trkpt>
      <trkpt lat="46.55861" lon="5.21401">
        <ele>212.2</ele>
        <time>2022-03-24T14:00:50Z</time>
      </trkpt>
      <trkpt lat="46.55861" lon="5.21394">
        <ele>212.2</ele>
        <time>2022-03-24T14:00:51Z</time>
      </trkpt>
      <trkpt lat="46.55861" lon="5.2136">
        <ele>213.2</ele>
        <time>2022-03-24T14:00:56Z</time>
      </trkpt>
      <trkpt lat="46.55861" lon="5.21329">
        <ele>213.6</ele>
        <time>2022-03-24T14:01:00Z</time>
      </trkpt>
      <trkpt lat="46.55862" lon="5.21269">
        <ele>213.6</ele>
        <time>2022-03-24T14:01:07Z</time>
      </trkpt>
      <trkpt lat="46.55862" lon="5.21204">
        <ele>213.4</ele>
        <time>2022-03-24T14:01:14Z</time>
      </trkpt>
      <trkpt lat="46.55861" lon="5.21116">
        <ele>213.2</ele>
        <time>2022-03-24T14:01:23Z</time>
      </trkpt>
      <trkpt lat="46.55861" lon="5.21107">
        <ele>213.2</ele>
        <time>2022-03-24T14:01:24Z</time>
      </trkpt>
      <trkpt lat="46.55856" lon="5.21021">
        <ele>213.6</ele>
        <time>2022-03-24T14:01:33Z</time>
      </trkpt>
      <trkpt lat="46.5585" lon="5.20949">
        <ele>214.4</ele>
        <time>2022-03-24T14:01:41Z</time>
      </trkpt>
      <trkpt lat="46.55849" lon="5.2094">
        <ele>214.4</ele>
        <time>2022-03-24T14:01:42Z</time>
      </trkpt>
      <trkpt lat="46.55842" lon="5.20854">
        <ele>214.6</ele>
        <time>2022-03-24T14:01:51Z</time>
      </trkpt>
      <trkpt lat="46.55838" lon="5.20772">
        <ele>214.6</ele>
        <time>2022-03-24T14:01:59Z</time>
      </trkpt>
      <trkpt lat="46.55839" lon="5.20761">
        <ele>214.6</ele>
        <time>2022-03-24T14:02:00Z</time>
      </trkpt>
      <trkpt lat="46.55848" lon="5.2072">
        <ele>214.6</ele>
        <time>2022-03-24T14:02:04Z</time>
      </trkpt>
      <trkpt lat="46.55871" lon="5.20667">
        <ele>214.4</ele>
        <time>2022-03-24T14:02:10Z</time>
      </trkpt>
      <trkpt lat="46.55903" lon="5.20599">
        <ele>213.8</ele>
        <time>2022-03-24T14:02:18Z</time>
      </trkpt>
      <trkpt lat="46.55906" lon="5.2059">
        <ele>213.8</ele>
        <time>2022-03-24T14:02:19Z</time>
      </trkpt>
      <trkpt lat="46.55912" lon="5.20572">
        <ele>213.8</ele>
        <time>2022-03-24T14:02:21Z</time>
      </trkpt>
      <trkpt lat="46.55915" lon="5.20552">
        <ele>214</ele>
        <time>2022-03-24T14:02:23Z</time>
      </trkpt>
      <trkpt lat="46.55916" lon="5.20542">
        <ele>214</ele>
        <time>2022-03-24T14:02:24Z</time>
      </trkpt>
      <trkpt lat="46.55915" lon="5.20501">
        <ele>214.2</ele>
        <time>2022-03-24T14:02:28Z</time>
      </trkpt>
      <trkpt lat="46.55907" lon="5.20441">
        <ele>214.4</ele>
        <time>2022-03-24T14:02:34Z</time>
      </trkpt>
      <trkpt lat="46.55896" lon="5.20363">
        <ele>214.6</ele>
        <time>2022-03-24T14:02:42Z</time>
      </trkpt>
      <trkpt lat="46.55884" lon="5.20284">
        <ele>215.4</ele>
        <time>2022-03-24T14:02:50Z</time>
      </trkpt>
      <trkpt lat="46.55879" lon="5.20253">
        <ele>215.6</ele>
        <time>2022-03-24T14:02:53Z</time>
      </trkpt>
      <trkpt lat="46.55867" lon="5.2017">
        <ele>215.2</ele>
        <time>2022-03-24T14:03:01Z</time>
      </trkpt>
      <trkpt lat="46.55855" lon="5.20092">
        <ele>215.2</ele>
        <time>2022-03-24T14:03:09Z</time>
      </trkpt>
      <trkpt lat="46.55852" lon="5.20072">
        <ele>215</ele>
        <time>2022-03-24T14:03:11Z</time>
      </trkpt>
      <trkpt lat="46.5584" lon="5.19993">
        <ele>215.2</ele>
        <time>2022-03-24T14:03:19Z</time>
      </trkpt>
      <trkpt lat="46.55837" lon="5.19974">
        <ele>215.4</ele>
        <time>2022-03-24T14:03:21Z</time>
      </trkpt>
      <trkpt lat="46.55825" lon="5.19896">
        <ele>215.4</ele>
        <time>2022-03-24T14:03:29Z</time>
      </trkpt>
      <trkpt lat="46.55822" lon="5.19877">
        <ele>215.8</ele>
        <time>2022-03-24T14:03:31Z</time>
      </trkpt>
      <trkpt lat="46.55811" lon="5.198">
        <ele>216</ele>
        <time>2022-03-24T14:03:39Z</time>
      </trkpt>
      <trkpt lat="46.55806" lon="5.19771">
        <ele>215.8</ele>
        <time>2022-03-24T14:03:42Z</time>
      </trkpt>
      <trkpt lat="46.55794" lon="5.19725">
        <ele>215.8</ele>
        <time>2022-03-24T14:03:47Z</time>
      </trkpt>
      <trkpt lat="46.55769" lon="5.19678">
        <ele>215.6</ele>
        <time>2022-03-24T14:03:53Z</time>
      </trkpt>
      <trkpt lat="46.55747" lon="5.19626">
        <ele>215.6</ele>
        <time>2022-03-24T14:03:59Z</time>
      </trkpt>
      <trkpt lat="46.55741" lon="5.19577">
        <ele>215.6</ele>
        <time>2022-03-24T14:04:04Z</time>
      </trkpt>
      <trkpt lat="46.55735" lon="5.19497">
        <ele>215.2</ele>
        <time>2022-03-24T14:04:12Z</time>
      </trkpt>
      <trkpt lat="46.55735" lon="5.19487">
        <ele>215.2</ele>
        <time>2022-03-24T14:04:13Z</time>
      </trkpt>
      <trkpt lat="46.55731" lon="5.19405">
        <ele>215.6</ele>
        <time>2022-03-24T14:04:21Z</time>
      </trkpt>
      <trkpt lat="46.55727" lon="5.19324">
        <ele>215</ele>
        <time>2022-03-24T14:04:29Z</time>
      </trkpt>
      <trkpt lat="46.55726" lon="5.19303">
        <ele>215</ele>
        <time>2022-03-24T14:04:31Z</time>
      </trkpt>
      <trkpt lat="46.55721" lon="5.19222">
        <ele>215.6</ele>
        <time>2022-03-24T14:04:39Z</time>
      </trkpt>
      <trkpt lat="46.5572" lon="5.19202">
        <ele>215.8</ele>
        <time>2022-03-24T14:04:41Z</time>
      </trkpt>
      <trkpt lat="46.55714" lon="5.19122">
        <ele>216</ele>
        <time>2022-03-24T14:04:49Z</time>
      </trkpt>
      <trkpt lat="46.55711" lon="5.19102">
        <ele>216</ele>
        <time>2022-03-24T14:04:51Z</time>
      </trkpt>
      <trkpt lat="46.55696" lon="5.19023">
        <ele>215.2</ele>
        <time>2022-03-24T14:04:59Z</time>
      </trkpt>
      <trkpt lat="46.55682" lon="5.18944">
        <ele>215.6</ele>
        <time>2022-03-24T14:05:07Z</time>
      </trkpt>
      <trkpt lat="46.55677" lon="5.18914">
        <ele>215.6</ele>
        <time>2022-03-24T14:05:10Z</time>
      </trkpt>
      <trkpt lat="46.55663" lon="5.18834">
        <ele>215.2</ele>
        <time>2022-03-24T14:05:18Z</time>
      </trkpt>
      <trkpt lat="46.55649" lon="5.18755">
        <ele>216</ele>
        <time>2022-03-24T14:05:26Z</time>
      </trkpt>
      <trkpt lat="46.55648" lon="5.18746">
        <ele>215.8</ele>
        <time>2022-03-24T14:05:27Z</time>
      </trkpt>
      <trkpt lat="46.55634" lon="5.18667">
        <ele>215.4</ele>
        <time>2022-03-24T14:05:35Z</time>
      </trkpt>
      <trkpt lat="46.55626" lon="5.18628">
        <ele>215.4</ele>
        <time>2022-03-24T14:05:39Z</time>
      </trkpt>
      <trkpt lat="46.55612" lon="5.18545">
        <ele>215.6</ele>
        <time>2022-03-24T14:05:48Z</time>
      </trkpt>
      <trkpt lat="46.55611" lon="5.18535">
        <ele>215.6</ele>
        <time>2022-03-24T14:05:49Z</time>
      </trkpt>
      <trkpt lat="46.55597" lon="5.18459">
        <ele>216</ele>
        <time>2022-03-24T14:05:57Z</time>
      </trkpt>
      <trkpt lat="46.55583" lon="5.18376">
        <ele>215.4</ele>
        <time>2022-03-24T14:06:06Z</time>
      </trkpt>
      <trkpt lat="46.55581" lon="5.18367">
        <ele>215.4</ele>
        <time>2022-03-24T14:06:07Z</time>
      </trkpt>
      <trkpt lat="46.55567" lon="5.18285">
        <ele>215.2</ele>
        <time>2022-03-24T14:06:16Z</time>
      </trkpt>
      <trkpt lat="46.55562" lon="5.18266">
        <ele>215.2</ele>
        <time>2022-03-24T14:06:18Z</time>
      </trkpt>
      <trkpt lat="46.55557" lon="5.18248">
        <ele>215.2</ele>
        <time>2022-03-24T14:06:20Z</time>
      </trkpt>
      <trkpt lat="46.55548" lon="5.18222">
        <ele>215.2</ele>
        <time>2022-03-24T14:06:23Z</time>
      </trkpt>
      <trkpt lat="46.55526" lon="5.18177">
        <ele>215.8</ele>
        <time>2022-03-24T14:06:29Z</time>
      </trkpt>
      <trkpt lat="46.55488" lon="5.18123">
        <ele>215.8</ele>
        <time>2022-03-24T14:06:37Z</time>
      </trkpt>
      <trkpt lat="46.55451" lon="5.18072">
        <ele>215.4</ele>
        <time>2022-03-24T14:06:44Z</time>
      </trkpt>
      <trkpt lat="46.55434" lon="5.1805">
        <ele>214.8</ele>
        <time>2022-03-24T14:06:47Z</time>
      </trkpt>
      <trkpt lat="46.55413" lon="5.18016">
        <ele>214</ele>
        <time>2022-03-24T14:06:51Z</time>
      </trkpt>
      <trkpt lat="46.55406" lon="5.17997">
        <ele>213.8</ele>
        <time>2022-03-24T14:06:53Z</time>
      </trkpt>
      <trkpt lat="46.55399" lon="5.17973">
        <ele>213.4</ele>
        <time>2022-03-24T14:06:55Z</time>
      </trkpt>
      <trkpt lat="46.55395" lon="5.1791">
        <ele>213</ele>
        <time>2022-03-24T14:07:01Z</time>
      </trkpt>
      <trkpt lat="46.55393" lon="5.17861">
        <ele>213</ele>
        <time>2022-03-24T14:07:06Z</time>
      </trkpt>
      <trkpt lat="46.55393" lon="5.17851">
        <ele>213</ele>
        <time>2022-03-24T14:07:07Z</time>
      </trkpt>
      <trkpt lat="46.55393" lon="5.17808">
        <ele>213.4</ele>
        <time>2022-03-24T14:07:12Z</time>
      </trkpt>
      <trkpt lat="46.55392" lon="5.17759">
        <ele>214.8</ele>
        <time>2022-03-24T14:07:18Z</time>
      </trkpt>
      <trkpt lat="46.55392" lon="5.1775">
        <ele>214.8</ele>
        <time>2022-03-24T14:07:19Z</time>
      </trkpt>
      <trkpt lat="46.55397" lon="5.17693">
        <ele>215.6</ele>
        <time>2022-03-24T14:07:25Z</time>
      </trkpt>
      <trkpt lat="46.55399" lon="5.17674">
        <ele>215.8</ele>
        <time>2022-03-24T14:07:27Z</time>
      </trkpt>
      <trkpt lat="46.55405" lon="5.17616">
        <ele>215.6</ele>
        <time>2022-03-24T14:07:33Z</time>
      </trkpt>
      <trkpt lat="46.55411" lon="5.17544">
        <ele>215.2</ele>
        <time>2022-03-24T14:07:40Z</time>
      </trkpt>
      <trkpt lat="46.55419" lon="5.17458">
        <ele>214.8</ele>
        <time>2022-03-24T14:07:48Z</time>
      </trkpt>
      <trkpt lat="46.5542" lon="5.17436">
        <ele>214.8</ele>
        <time>2022-03-24T14:07:50Z</time>
      </trkpt>
      <trkpt lat="46.55428" lon="5.17351">
        <ele>214.2</ele>
        <time>2022-03-24T14:07:58Z</time>
      </trkpt>
      <trkpt lat="46.55444" lon="5.17283">
        <ele>213.8</ele>
        <time>2022-03-24T14:08:05Z</time>
      </trkpt>
      <trkpt lat="46.55454" lon="5.17249">
        <ele>214</ele>
        <time>2022-03-24T14:08:09Z</time>
      </trkpt>
      <trkpt lat="46.55461" lon="5.17233">
        <ele>214.2</ele>
        <time>2022-03-24T14:08:11Z</time>
      </trkpt>
      <trkpt lat="46.55469" lon="5.17216">
        <ele>214.4</ele>
        <time>2022-03-24T14:08:13Z</time>
      </trkpt>
      <trkpt lat="46.55491" lon="5.1718">
        <ele>214.6</ele>
        <time>2022-03-24T14:08:18Z</time>
      </trkpt>
      <trkpt lat="46.55522" lon="5.17121">
        <ele>214.6</ele>
        <time>2022-03-24T14:08:25Z</time>
      </trkpt>
      <trkpt lat="46.55551" lon="5.17045">
        <ele>214.6</ele>
        <time>2022-03-24T14:08:33Z</time>
      </trkpt>
      <trkpt lat="46.55578" lon="5.16977">
        <ele>214.6</ele>
        <time>2022-03-24T14:08:40Z</time>
      </trkpt>
      <trkpt lat="46.55582" lon="5.16967">
        <ele>214.2</ele>
        <time>2022-03-24T14:08:41Z</time>
      </trkpt>
      <trkpt lat="46.55599" lon="5.16901">
        <ele>214</ele>
        <time>2022-03-24T14:08:47Z</time>
      </trkpt>
      <trkpt lat="46.55609" lon="5.16853">
        <ele>213.6</ele>
        <time>2022-03-24T14:08:51Z</time>
      </trkpt>
      <trkpt lat="46.55622" lon="5.16802">
        <ele>213</ele>
        <time>2022-03-24T14:08:55Z</time>
      </trkpt>
      <trkpt lat="46.55628" lon="5.16779">
        <ele>212.2</ele>
        <time>2022-03-24T14:08:57Z</time>
      </trkpt>
      <trkpt lat="46.5564" lon="5.16727">
        <ele>211.4</ele>
        <time>2022-03-24T14:09:01Z</time>
      </trkpt>
      <trkpt lat="46.55646" lon="5.16702">
        <ele>210.4</ele>
        <time>2022-03-24T14:09:03Z</time>
      </trkpt>
      <trkpt lat="46.55649" lon="5.16689">
        <ele>210.2</ele>
        <time>2022-03-24T14:09:04Z</time>
      </trkpt>
      <trkpt lat="46.55667" lon="5.16619">
        <ele>209.4</ele>
        <time>2022-03-24T14:09:10Z</time>
      </trkpt>
      <trkpt lat="46.55681" lon="5.16562">
        <ele>209.4</ele>
        <time>2022-03-24T14:09:16Z</time>
      </trkpt>
      <trkpt lat="46.55697" lon="5.16496">
        <ele>210.4</ele>
        <time>2022-03-24T14:09:24Z</time>
      </trkpt>
      <trkpt lat="46.55703" lon="5.16474">
        <ele>211.2</ele>
        <time>2022-03-24T14:09:28Z</time>
      </trkpt>
      <trkpt lat="46.55703" lon="5.16472">
        <ele>211.2</ele>
        <time>2022-03-24T14:09:29Z</time>
      </trkpt>
      <trkpt lat="46.55705" lon="5.16464">
        <ele>211.6</ele>
        <time>2022-03-24T14:09:32Z</time>
      </trkpt>
      <trkpt lat="46.55701" lon="5.16456">
        <ele>211.6</ele>
        <time>2022-03-24T14:09:34Z</time>
      </trkpt>
      <trkpt lat="46.55694" lon="5.16446">
        <ele>211.8</ele>
        <time>2022-03-24T14:09:36Z</time>
      </trkpt>
      <trkpt lat="46.55685" lon="5.16438">
        <ele>211.8</ele>
        <time>2022-03-24T14:09:38Z</time>
      </trkpt>
      <trkpt lat="46.55655" lon="5.16427">
        <ele>211.8</ele>
        <time>2022-03-24T14:09:43Z</time>
      </trkpt>
      <trkpt lat="46.55618" lon="5.16422">
        <ele>212.2</ele>
        <time>2022-03-24T14:09:49Z</time>
      </trkpt>
      <trkpt lat="46.55606" lon="5.1642">
        <ele>212.4</ele>
        <time>2022-03-24T14:09:51Z</time>
      </trkpt>
      <trkpt lat="46.55558" lon="5.16411">
        <ele>212.2</ele>
        <time>2022-03-24T14:09:58Z</time>
      </trkpt>
      <trkpt lat="46.55539" lon="5.16416">
        <ele>211.8</ele>
        <time>2022-03-24T14:10:01Z</time>
      </trkpt>
      <trkpt lat="46.55532" lon="5.16421">
        <ele>211.8</ele>
        <time>2022-03-24T14:10:02Z</time>
      </trkpt>
      <trkpt lat="46.55525" lon="5.16425">
        <ele>211.8</ele>
        <time>2022-03-24T14:10:03Z</time>
      </trkpt>
      <trkpt lat="46.55512" lon="5.16434">
        <ele>211.6</ele>
        <time>2022-03-24T14:10:05Z</time>
      </trkpt>
      <trkpt lat="46.55507" lon="5.1644">
        <ele>211.4</ele>
        <time>2022-03-24T14:10:06Z</time>
      </trkpt>
      <trkpt lat="46.55504" lon="5.16449">
        <ele>211.4</ele>
        <time>2022-03-24T14:10:07Z</time>
      </trkpt>
      <trkpt lat="46.55502" lon="5.16459">
        <ele>211.2</ele>
        <time>2022-03-24T14:10:08Z</time>
      </trkpt>
      <trkpt lat="46.55499" lon="5.16469">
        <ele>211</ele>
        <time>2022-03-24T14:10:09Z</time>
      </trkpt>
      <trkpt lat="46.55493" lon="5.16492">
        <ele>210.6</ele>
        <time>2022-03-24T14:10:11Z</time>
      </trkpt>
      <trkpt lat="46.55488" lon="5.16503">
        <ele>210</ele>
        <time>2022-03-24T14:10:12Z</time>
      </trkpt>
      <trkpt lat="46.55482" lon="5.16512">
        <ele>209.8</ele>
        <time>2022-03-24T14:10:13Z</time>
      </trkpt>
      <trkpt lat="46.55459" lon="5.16539">
        <ele>208.8</ele>
        <time>2022-03-24T14:10:16Z</time>
      </trkpt>
      <trkpt lat="46.55453" lon="5.1655">
        <ele>208.6</ele>
        <time>2022-03-24T14:10:17Z</time>
      </trkpt>
      <trkpt lat="46.55446" lon="5.16565">
        <ele>207.8</ele>
        <time>2022-03-24T14:10:18Z</time>
      </trkpt>
      <trkpt lat="46.55443" lon="5.16576">
        <ele>207</ele>
        <time>2022-03-24T14:10:19Z</time>
      </trkpt>
      <trkpt lat="46.5544" lon="5.1659">
        <ele>206.6</ele>
        <time>2022-03-24T14:10:20Z</time>
      </trkpt>
      <trkpt lat="46.55433" lon="5.16618">
        <ele>205.8</ele>
        <time>2022-03-24T14:10:22Z</time>
      </trkpt>
      <trkpt lat="46.55421" lon="5.16641">
        <ele>205</ele>
        <time>2022-03-24T14:10:24Z</time>
      </trkpt>
      <trkpt lat="46.55414" lon="5.16652">
        <ele>204.6</ele>
        <time>2022-03-24T14:10:25Z</time>
      </trkpt>
      <trkpt lat="46.55386" lon="5.16687">
        <ele>204</ele>
        <time>2022-03-24T14:10:29Z</time>
      </trkpt>
      <trkpt lat="46.55352" lon="5.16722">
        <ele>203.6</ele>
        <time>2022-03-24T14:10:34Z</time>
      </trkpt>
      <trkpt lat="46.55346" lon="5.16729">
        <ele>203.6</ele>
        <time>2022-03-24T14:10:35Z</time>
      </trkpt>
      <trkpt lat="46.55307" lon="5.16766">
        <ele>203.4</ele>
        <time>2022-03-24T14:10:41Z</time>
      </trkpt>
      <trkpt lat="46.55253" lon="5.16803">
        <ele>203.4</ele>
        <time>2022-03-24T14:10:49Z</time>
      </trkpt>
      <trkpt lat="46.55213" lon="5.16829">
        <ele>203.2</ele>
        <time>2022-03-24T14:10:55Z</time>
      </trkpt>
      <trkpt lat="46.55177" lon="5.16857">
        <ele>203.2</ele>
        <time>2022-03-24T14:11:01Z</time>
      </trkpt>
      <trkpt lat="46.55129" lon="5.16878">
        <ele>203.6</ele>
        <time>2022-03-24T14:11:08Z</time>
      </trkpt>
      <trkpt lat="46.55077" lon="5.16899">
        <ele>203.4</ele>
        <time>2022-03-24T14:11:16Z</time>
      </trkpt>
      <trkpt lat="46.55071" lon="5.16903">
        <ele>203.4</ele>
        <time>2022-03-24T14:11:17Z</time>
      </trkpt>
      <trkpt lat="46.55061" lon="5.16915">
        <ele>203.4</ele>
        <time>2022-03-24T14:11:19Z</time>
      </trkpt>
      <trkpt lat="46.55057" lon="5.16923">
        <ele>203.4</ele>
        <time>2022-03-24T14:11:20Z</time>
      </trkpt>
      <trkpt lat="46.55054" lon="5.16931">
        <ele>203.6</ele>
        <time>2022-03-24T14:11:21Z</time>
      </trkpt>
      <trkpt lat="46.55048" lon="5.16957">
        <ele>203.8</ele>
        <time>2022-03-24T14:11:24Z</time>
      </trkpt>
      <trkpt lat="46.55038" lon="5.17012">
        <ele>204</ele>
        <time>2022-03-24T14:11:30Z</time>
      </trkpt>
      <trkpt lat="46.55035" lon="5.1702">
        <ele>204</ele>
        <time>2022-03-24T14:11:31Z</time>
      </trkpt>
      <trkpt lat="46.55031" lon="5.17027">
        <ele>204</ele>
        <time>2022-03-24T14:11:32Z</time>
      </trkpt>
      <trkpt lat="46.55012" lon="5.17046">
        <ele>203.6</ele>
        <time>2022-03-24T14:11:35Z</time>
      </trkpt>
      <trkpt lat="46.54981" lon="5.17073">
        <ele>202.4</ele>
        <time>2022-03-24T14:11:39Z</time>
      </trkpt>
      <trkpt lat="46.54973" lon="5.17079">
        <ele>201.8</ele>
        <time>2022-03-24T14:11:40Z</time>
      </trkpt>
      <trkpt lat="46.54963" lon="5.17083">
        <ele>201.4</ele>
        <time>2022-03-24T14:11:41Z</time>
      </trkpt>
      <trkpt lat="46.54944" lon="5.17086">
        <ele>200.4</ele>
        <time>2022-03-24T14:11:43Z</time>
      </trkpt>
      <trkpt lat="46.54935" lon="5.17086">
        <ele>200</ele>
        <time>2022-03-24T14:11:44Z</time>
      </trkpt>
      <trkpt lat="46.54917" lon="5.17092">
        <ele>199.2</ele>
        <time>2022-03-24T14:11:46Z</time>
      </trkpt>
      <trkpt lat="46.54909" lon="5.17098">
        <ele>198.8</ele>
        <time>2022-03-24T14:11:47Z</time>
      </trkpt>
      <trkpt lat="46.54901" lon="5.17106">
        <ele>198.6</ele>
        <time>2022-03-24T14:11:48Z</time>
      </trkpt>
      <trkpt lat="46.54894" lon="5.17115">
        <ele>198.4</ele>
        <time>2022-03-24T14:11:49Z</time>
      </trkpt>
      <trkpt lat="46.54866" lon="5.17146">
        <ele>197.8</ele>
        <time>2022-03-24T14:11:53Z</time>
      </trkpt>
      <trkpt lat="46.54858" lon="5.17151">
        <ele>197.4</ele>
        <time>2022-03-24T14:11:54Z</time>
      </trkpt>
      <trkpt lat="46.54849" lon="5.17155">
        <ele>197.4</ele>
        <time>2022-03-24T14:11:55Z</time>
      </trkpt>
      <trkpt lat="46.54825" lon="5.17158">
        <ele>197.2</ele>
        <time>2022-03-24T14:11:58Z</time>
      </trkpt>
      <trkpt lat="46.54789" lon="5.17152">
        <ele>197.6</ele>
        <time>2022-03-24T14:12:03Z</time>
      </trkpt>
      <trkpt lat="46.54765" lon="5.17148">
        <ele>198.2</ele>
        <time>2022-03-24T14:12:07Z</time>
      </trkpt>
      <trkpt lat="46.54754" lon="5.17146">
        <ele>199</ele>
        <time>2022-03-24T14:12:09Z</time>
      </trkpt>
      <trkpt lat="46.54732" lon="5.17142">
        <ele>200.2</ele>
        <time>2022-03-24T14:12:13Z</time>
      </trkpt>
      <trkpt lat="46.5471" lon="5.17136">
        <ele>201.6</ele>
        <time>2022-03-24T14:12:17Z</time>
      </trkpt>
      <trkpt lat="46.54704" lon="5.17135">
        <ele>201.6</ele>
        <time>2022-03-24T14:12:18Z</time>
      </trkpt>
      <trkpt lat="46.54677" lon="5.17132">
        <ele>202.6</ele>
        <time>2022-03-24T14:12:23Z</time>
      </trkpt>
      <trkpt lat="46.54662" lon="5.17132">
        <ele>203.4</ele>
        <time>2022-03-24T14:12:26Z</time>
      </trkpt>
      <trkpt lat="46.54652" lon="5.17132">
        <ele>203.8</ele>
        <time>2022-03-24T14:12:28Z</time>
      </trkpt>
      <trkpt lat="46.5461" lon="5.17131">
        <ele>205</ele>
        <time>2022-03-24T14:12:36Z</time>
      </trkpt>
      <trkpt lat="46.54569" lon="5.1713">
        <ele>206</ele>
        <time>2022-03-24T14:12:44Z</time>
      </trkpt>
      <trkpt lat="46.54559" lon="5.17129">
        <ele>206.2</ele>
        <time>2022-03-24T14:12:46Z</time>
      </trkpt>
      <trkpt lat="46.54534" lon="5.1713">
        <ele>207</ele>
        <time>2022-03-24T14:12:51Z</time>
      </trkpt>
      <trkpt lat="46.54518" lon="5.1713">
        <ele>207.4</ele>
        <time>2022-03-24T14:12:54Z</time>
      </trkpt>
      <trkpt lat="46.54475" lon="5.1713">
        <ele>208</ele>
        <time>2022-03-24T14:13:02Z</time>
      </trkpt>
      <trkpt lat="46.5447" lon="5.1713">
        <ele>208.2</ele>
        <time>2022-03-24T14:13:03Z</time>
      </trkpt>
      <trkpt lat="46.54433" lon="5.17131">
        <ele>209</ele>
        <time>2022-03-24T14:13:10Z</time>
      </trkpt>
      <trkpt lat="46.54417" lon="5.17131">
        <ele>209.2</ele>
        <time>2022-03-24T14:13:13Z</time>
      </trkpt>
      <trkpt lat="46.544" lon="5.17134">
        <ele>209.4</ele>
        <time>2022-03-24T14:13:16Z</time>
      </trkpt>
      <trkpt lat="46.54396" lon="5.17136">
        <ele>209.4</ele>
        <time>2022-03-24T14:13:17Z</time>
      </trkpt>
      <trkpt lat="46.54367" lon="5.17156">
        <ele>209.6</ele>
        <time>2022-03-24T14:13:22Z</time>
      </trkpt>
      <trkpt lat="46.54324" lon="5.1719">
        <ele>209.4</ele>
        <time>2022-03-24T14:13:29Z</time>
      </trkpt>
      <trkpt lat="46.54269" lon="5.17231">
        <ele>208.6</ele>
        <time>2022-03-24T14:13:37Z</time>
      </trkpt>
      <trkpt lat="46.54252" lon="5.17244">
        <ele>208</ele>
        <time>2022-03-24T14:13:39Z</time>
      </trkpt>
      <trkpt lat="46.54222" lon="5.17268">
        <ele>206.6</ele>
        <time>2022-03-24T14:13:43Z</time>
      </trkpt>
      <trkpt lat="46.54178" lon="5.173">
        <ele>205.6</ele>
        <time>2022-03-24T14:13:49Z</time>
      </trkpt>
      <trkpt lat="46.54172" lon="5.17305">
        <ele>205.6</ele>
        <time>2022-03-24T14:13:50Z</time>
      </trkpt>
      <trkpt lat="46.54139" lon="5.1733">
        <ele>206</ele>
        <time>2022-03-24T14:13:56Z</time>
      </trkpt>
      <trkpt lat="46.54125" lon="5.1734">
        <ele>207.4</ele>
        <time>2022-03-24T14:13:59Z</time>
      </trkpt>
      <trkpt lat="46.54106" lon="5.17353">
        <ele>208.4</ele>
        <time>2022-03-24T14:14:03Z</time>
      </trkpt>
      <trkpt lat="46.54078" lon="5.17376">
        <ele>209.6</ele>
        <time>2022-03-24T14:14:09Z</time>
      </trkpt>
      <trkpt lat="46.54072" lon="5.1738">
        <ele>209.6</ele>
        <time>2022-03-24T14:14:10Z</time>
      </trkpt>
      <trkpt lat="46.54039" lon="5.17405">
        <ele>210.6</ele>
        <time>2022-03-24T14:14:16Z</time>
      </trkpt>
      <trkpt lat="46.54034" lon="5.17409">
        <ele>210.8</ele>
        <time>2022-03-24T14:14:17Z</time>
      </trkpt>
      <trkpt lat="46.53989" lon="5.17443">
        <ele>211.2</ele>
        <time>2022-03-24T14:14:25Z</time>
      </trkpt>
      <trkpt lat="46.53938" lon="5.17481">
        <ele>211.2</ele>
        <time>2022-03-24T14:14:34Z</time>
      </trkpt>
      <trkpt lat="46.53894" lon="5.17515">
        <ele>210.6</ele>
        <time>2022-03-24T14:14:41Z</time>
      </trkpt>
      <trkpt lat="46.53854" lon="5.17537">
        <ele>209.8</ele>
        <time>2022-03-24T14:14:47Z</time>
      </trkpt>
      <trkpt lat="46.53847" lon="5.1754">
        <ele>209.6</ele>
        <time>2022-03-24T14:14:48Z</time>
      </trkpt>
      <trkpt lat="46.53807" lon="5.17548">
        <ele>209.4</ele>
        <time>2022-03-24T14:14:54Z</time>
      </trkpt>
      <trkpt lat="46.53758" lon="5.17558">
        <ele>210.2</ele>
        <time>2022-03-24T14:15:02Z</time>
      </trkpt>
      <trkpt lat="46.53721" lon="5.17567">
        <ele>211</ele>
        <time>2022-03-24T14:15:08Z</time>
      </trkpt>
      <trkpt lat="46.53684" lon="5.17574">
        <ele>211.4</ele>
        <time>2022-03-24T14:15:14Z</time>
      </trkpt>
      <trkpt lat="46.53626" lon="5.17588">
        <ele>211.4</ele>
        <time>2022-03-24T14:15:23Z</time>
      </trkpt>
      <trkpt lat="46.53613" lon="5.1759">
        <ele>211.6</ele>
        <time>2022-03-24T14:15:25Z</time>
      </trkpt>
      <trkpt lat="46.53555" lon="5.17604">
        <ele>211.6</ele>
        <time>2022-03-24T14:15:34Z</time>
      </trkpt>
      <trkpt lat="46.53519" lon="5.17622">
        <ele>211.6</ele>
        <time>2022-03-24T14:15:40Z</time>
      </trkpt>
      <trkpt lat="46.53514" lon="5.17627">
        <ele>211.6</ele>
        <time>2022-03-24T14:15:41Z</time>
      </trkpt>
      <trkpt lat="46.53503" lon="5.17635">
        <ele>211.8</ele>
        <time>2022-03-24T14:15:43Z</time>
      </trkpt>
      <trkpt lat="46.5349" lon="5.17643">
        <ele>211.8</ele>
        <time>2022-03-24T14:15:45Z</time>
      </trkpt>
      <trkpt lat="46.53479" lon="5.17652">
        <ele>211.8</ele>
        <time>2022-03-24T14:15:47Z</time>
      </trkpt>
      <trkpt lat="46.53429" lon="5.17689">
        <ele>211.8</ele>
        <time>2022-03-24T14:15:55Z</time>
      </trkpt>
      <trkpt lat="46.53376" lon="5.17731">
        <ele>211</ele>
        <time>2022-03-24T14:16:03Z</time>
      </trkpt>
      <trkpt lat="46.53361" lon="5.17742">
        <ele>211</ele>
        <time>2022-03-24T14:16:05Z</time>
      </trkpt>
      <trkpt lat="46.53325" lon="5.17758">
        <ele>210.6</ele>
        <time>2022-03-24T14:16:10Z</time>
      </trkpt>
      <trkpt lat="46.53318" lon="5.17759">
        <ele>210.4</ele>
        <time>2022-03-24T14:16:11Z</time>
      </trkpt>
      <trkpt lat="46.53282" lon="5.17761">
        <ele>210.2</ele>
        <time>2022-03-24T14:16:16Z</time>
      </trkpt>
      <trkpt lat="46.53268" lon="5.17761">
        <ele>210</ele>
        <time>2022-03-24T14:16:18Z</time>
      </trkpt>
      <trkpt lat="46.53222" lon="5.17758">
        <ele>210.8</ele>
        <time>2022-03-24T14:16:25Z</time>
      </trkpt>
      <trkpt lat="46.53164" lon="5.17746">
        <ele>211.6</ele>
        <time>2022-03-24T14:16:33Z</time>
      </trkpt>
      <trkpt lat="46.53108" lon="5.17736">
        <ele>211.2</ele>
        <time>2022-03-24T14:16:40Z</time>
      </trkpt>
      <trkpt lat="46.53091" lon="5.17734">
        <ele>210.8</ele>
        <time>2022-03-24T14:16:42Z</time>
      </trkpt>
      <trkpt lat="46.53056" lon="5.17729">
        <ele>209.8</ele>
        <time>2022-03-24T14:16:46Z</time>
      </trkpt>
      <trkpt lat="46.53037" lon="5.17725">
        <ele>209.2</ele>
        <time>2022-03-24T14:16:48Z</time>
      </trkpt>
      <trkpt lat="46.5301" lon="5.17717">
        <ele>208.2</ele>
        <time>2022-03-24T14:16:51Z</time>
      </trkpt>
      <trkpt lat="46.52984" lon="5.17707">
        <ele>207.4</ele>
        <time>2022-03-24T14:16:54Z</time>
      </trkpt>
      <trkpt lat="46.52967" lon="5.177">
        <ele>207.2</ele>
        <time>2022-03-24T14:16:56Z</time>
      </trkpt>
      <trkpt lat="46.52925" lon="5.17681">
        <ele>206</ele>
        <time>2022-03-24T14:17:01Z</time>
      </trkpt>
      <trkpt lat="46.52909" lon="5.17674">
        <ele>205.8</ele>
        <time>2022-03-24T14:17:03Z</time>
      </trkpt>
      <trkpt lat="46.52852" lon="5.17649">
        <ele>205</ele>
        <time>2022-03-24T14:17:10Z</time>
      </trkpt>
      <trkpt lat="46.52836" lon="5.17642">
        <ele>204.6</ele>
        <time>2022-03-24T14:17:12Z</time>
      </trkpt>
      <trkpt lat="46.52828" lon="5.17638">
        <ele>204.4</ele>
        <time>2022-03-24T14:17:13Z</time>
      </trkpt>
      <trkpt lat="46.52814" lon="5.17624">
        <ele>204.4</ele>
        <time>2022-03-24T14:17:15Z</time>
      </trkpt>
      <trkpt lat="46.52802" lon="5.17606">
        <ele>204</ele>
        <time>2022-03-24T14:17:17Z</time>
      </trkpt>
      <trkpt lat="46.52786" lon="5.17578">
        <ele>203.6</ele>
        <time>2022-03-24T14:17:20Z</time>
      </trkpt>
      <trkpt lat="46.5276" lon="5.17532">
        <ele>202.8</ele>
        <time>2022-03-24T14:17:25Z</time>
      </trkpt>
      <trkpt lat="46.5274" lon="5.17498">
        <ele>202.4</ele>
        <time>2022-03-24T14:17:29Z</time>
      </trkpt>
      <trkpt lat="46.52716" lon="5.17463">
        <ele>202.6</ele>
        <time>2022-03-24T14:17:34Z</time>
      </trkpt>
      <trkpt lat="46.52689" lon="5.17432">
        <ele>203.4</ele>
        <time>2022-03-24T14:17:40Z</time>
      </trkpt>
      <trkpt lat="46.52673" lon="5.17414">
        <ele>204</ele>
        <time>2022-03-24T14:17:44Z</time>
      </trkpt>
      <trkpt lat="46.52662" lon="5.17402">
        <ele>204.8</ele>
        <time>2022-03-24T14:17:47Z</time>
      </trkpt>
      <trkpt lat="46.52655" lon="5.17394">
        <ele>205.4</ele>
        <time>2022-03-24T14:17:49Z</time>
      </trkpt>
      <trkpt lat="46.52639" lon="5.17376">
        <ele>206.4</ele>
        <time>2022-03-24T14:17:54Z</time>
      </trkpt>
      <trkpt lat="46.52626" lon="5.17362">
        <ele>207.4</ele>
        <time>2022-03-24T14:17:58Z</time>
      </trkpt>
      <trkpt lat="46.52613" lon="5.17347">
        <ele>208.6</ele>
        <time>2022-03-24T14:18:02Z</time>
      </trkpt>
      <trkpt lat="46.52601" lon="5.17334">
        <ele>209.6</ele>
        <time>2022-03-24T14:18:06Z</time>
      </trkpt>
      <trkpt lat="46.52589" lon="5.17322">
        <ele>210.8</ele>
        <time>2022-03-24T14:18:10Z</time>
      </trkpt>
      <trkpt lat="46.52577" lon="5.17308">
        <ele>211.8</ele>
        <time>2022-03-24T14:18:14Z</time>
      </trkpt>
      <trkpt lat="46.52557" lon="5.17286">
        <ele>212.8</ele>
        <time>2022-03-24T14:18:20Z</time>
      </trkpt>
      <trkpt lat="46.52553" lon="5.17282">
        <ele>213.2</ele>
        <time>2022-03-24T14:18:21Z</time>
      </trkpt>
      <trkpt lat="46.52515" lon="5.17239">
        <ele>214.2</ele>
        <time>2022-03-24T14:18:32Z</time>
      </trkpt>
      <trkpt lat="46.52482" lon="5.17202">
        <ele>215</ele>
        <time>2022-03-24T14:18:41Z</time>
      </trkpt>
      <trkpt lat="46.52476" lon="5.17194">
        <ele>215</ele>
        <time>2022-03-24T14:18:45Z</time>
      </trkpt>
      <trkpt lat="46.52476" lon="5.17194">
        <ele>215</ele>
        <time>2022-03-24T14:18:47Z</time>
      </trkpt>
      <trkpt lat="46.5247" lon="5.17189">
        <ele>214.4</ele>
        <time>2022-03-24T14:19:01Z</time>
      </trkpt>
      <trkpt lat="46.52467" lon="5.17186">
        <ele>214.4</ele>
        <time>2022-03-24T14:19:02Z</time>
      </trkpt>
      <trkpt lat="46.5245" lon="5.17167">
        <ele>214.6</ele>
        <time>2022-03-24T14:19:06Z</time>
      </trkpt>
      <trkpt lat="46.52408" lon="5.17114">
        <ele>215.4</ele>
        <time>2022-03-24T14:19:15Z</time>
      </trkpt>
      <trkpt lat="46.52403" lon="5.17108">
        <ele>215.4</ele>
        <time>2022-03-24T14:19:16Z</time>
      </trkpt>
      <trkpt lat="46.5236" lon="5.17058">
        <ele>215.6</ele>
        <time>2022-03-24T14:19:24Z</time>
      </trkpt>
      <trkpt lat="46.52316" lon="5.17008">
        <ele>215.4</ele>
        <time>2022-03-24T14:19:32Z</time>
      </trkpt>
      <trkpt lat="46.52311" lon="5.17001">
        <ele>215.4</ele>
        <time>2022-03-24T14:19:33Z</time>
      </trkpt>
      <trkpt lat="46.52286" lon="5.16953">
        <ele>215</ele>
        <time>2022-03-24T14:19:39Z</time>
      </trkpt>
      <trkpt lat="46.52277" lon="5.16906">
        <ele>214.8</ele>
        <time>2022-03-24T14:19:44Z</time>
      </trkpt>
      <trkpt lat="46.52277" lon="5.16859">
        <ele>215</ele>
        <time>2022-03-24T14:19:49Z</time>
      </trkpt>
      <trkpt lat="46.52278" lon="5.1679">
        <ele>215.4</ele>
        <time>2022-03-24T14:19:57Z</time>
      </trkpt>
      <trkpt lat="46.52277" lon="5.16714">
        <ele>216.4</ele>
        <time>2022-03-24T14:20:06Z</time>
      </trkpt>
      <trkpt lat="46.52276" lon="5.16705">
        <ele>216.4</ele>
        <time>2022-03-24T14:20:07Z</time>
      </trkpt>
      <trkpt lat="46.52274" lon="5.16697">
        <ele>216.4</ele>
        <time>2022-03-24T14:20:08Z</time>
      </trkpt>
      <trkpt lat="46.52271" lon="5.1669">
        <ele>216.4</ele>
        <time>2022-03-24T14:20:09Z</time>
      </trkpt>
      <trkpt lat="46.52268" lon="5.16682">
        <ele>216.6</ele>
        <time>2022-03-24T14:20:10Z</time>
      </trkpt>
      <trkpt lat="46.52252" lon="5.16656">
        <ele>216.8</ele>
        <time>2022-03-24T14:20:14Z</time>
      </trkpt>
      <trkpt lat="46.52247" lon="5.1665">
        <ele>217</ele>
        <time>2022-03-24T14:20:15Z</time>
      </trkpt>
      <trkpt lat="46.52241" lon="5.16645">
        <ele>217</ele>
        <time>2022-03-24T14:20:16Z</time>
      </trkpt>
      <trkpt lat="46.52215" lon="5.16628">
        <ele>217</ele>
        <time>2022-03-24T14:20:20Z</time>
      </trkpt>
      <trkpt lat="46.52171" lon="5.16603">
        <ele>216.8</ele>
        <time>2022-03-24T14:20:27Z</time>
      </trkpt>
      <trkpt lat="46.52116" lon="5.16574">
        <ele>217</ele>
        <time>2022-03-24T14:20:36Z</time>
      </trkpt>
      <trkpt lat="46.5211" lon="5.1657">
        <ele>217</ele>
        <time>2022-03-24T14:20:37Z</time>
      </trkpt>
      <trkpt lat="46.52062" lon="5.16546">
        <ele>217</ele>
        <time>2022-03-24T14:20:44Z</time>
      </trkpt>
      <trkpt lat="46.52024" lon="5.16544">
        <ele>216.2</ele>
        <time>2022-03-24T14:20:49Z</time>
      </trkpt>
      <trkpt lat="46.51974" lon="5.16553">
        <ele>215.4</ele>
        <time>2022-03-24T14:20:55Z</time>
      </trkpt>
      <trkpt lat="46.51965" lon="5.16554">
        <ele>215.4</ele>
        <time>2022-03-24T14:20:56Z</time>
      </trkpt>
      <trkpt lat="46.51917" lon="5.16564">
        <ele>214.2</ele>
        <time>2022-03-24T14:21:01Z</time>
      </trkpt>
      <trkpt lat="46.51876" lon="5.16573">
        <ele>213.2</ele>
        <time>2022-03-24T14:21:05Z</time>
      </trkpt>
      <trkpt lat="46.51844" lon="5.16577">
        <ele>211.8</ele>
        <time>2022-03-24T14:21:08Z</time>
      </trkpt>
      <trkpt lat="46.51812" lon="5.16575">
        <ele>210.6</ele>
        <time>2022-03-24T14:21:11Z</time>
      </trkpt>
      <trkpt lat="46.51791" lon="5.16574">
        <ele>209.6</ele>
        <time>2022-03-24T14:21:13Z</time>
      </trkpt>
      <trkpt lat="46.51771" lon="5.16573">
        <ele>209.2</ele>
        <time>2022-03-24T14:21:15Z</time>
      </trkpt>
      <trkpt lat="46.51761" lon="5.16574">
        <ele>209</ele>
        <time>2022-03-24T14:21:16Z</time>
      </trkpt>
      <trkpt lat="46.51743" lon="5.16582">
        <ele>208.8</ele>
        <time>2022-03-24T14:21:18Z</time>
      </trkpt>
      <trkpt lat="46.51715" lon="5.16608">
        <ele>208.8</ele>
        <time>2022-03-24T14:21:22Z</time>
      </trkpt>
      <trkpt lat="46.51691" lon="5.16633">
        <ele>209.4</ele>
        <time>2022-03-24T14:21:26Z</time>
      </trkpt>
      <trkpt lat="46.51679" lon="5.16641">
        <ele>209.6</ele>
        <time>2022-03-24T14:21:28Z</time>
      </trkpt>
      <trkpt lat="46.51652" lon="5.16651">
        <ele>210.2</ele>
        <time>2022-03-24T14:21:32Z</time>
      </trkpt>
      <trkpt lat="46.51645" lon="5.16652">
        <ele>210.4</ele>
        <time>2022-03-24T14:21:33Z</time>
      </trkpt>
      <trkpt lat="46.51639" lon="5.16652">
        <ele>210.8</ele>
        <time>2022-03-24T14:21:34Z</time>
      </trkpt>
      <trkpt lat="46.51632" lon="5.16654">
        <ele>211</ele>
        <time>2022-03-24T14:21:35Z</time>
      </trkpt>
      <trkpt lat="46.51611" lon="5.16662">
        <ele>211.4</ele>
        <time>2022-03-24T14:21:38Z</time>
      </trkpt>
      <trkpt lat="46.51584" lon="5.1668">
        <ele>211.8</ele>
        <time>2022-03-24T14:21:42Z</time>
      </trkpt>
      <trkpt lat="46.51562" lon="5.16693">
        <ele>211.8</ele>
        <time>2022-03-24T14:21:45Z</time>
      </trkpt>
      <trkpt lat="46.51546" lon="5.16697">
        <ele>211.6</ele>
        <time>2022-03-24T14:21:47Z</time>
      </trkpt>
      <trkpt lat="46.5153" lon="5.16695">
        <ele>211.4</ele>
        <time>2022-03-24T14:21:49Z</time>
      </trkpt>
      <trkpt lat="46.51505" lon="5.16684">
        <ele>210.8</ele>
        <time>2022-03-24T14:21:52Z</time>
      </trkpt>
      <trkpt lat="46.51491" lon="5.16679">
        <ele>210.4</ele>
        <time>2022-03-24T14:21:54Z</time>
      </trkpt>
      <trkpt lat="46.51445" lon="5.16668">
        <ele>209.8</ele>
        <time>2022-03-24T14:22:00Z</time>
      </trkpt>
      <trkpt lat="46.51422" lon="5.16669">
        <ele>209.8</ele>
        <time>2022-03-24T14:22:03Z</time>
      </trkpt>
      <trkpt lat="46.51408" lon="5.16673">
        <ele>209.6</ele>
        <time>2022-03-24T14:22:05Z</time>
      </trkpt>
      <trkpt lat="46.51377" lon="5.16696">
        <ele>209.6</ele>
        <time>2022-03-24T14:22:10Z</time>
      </trkpt>
      <trkpt lat="46.51332" lon="5.16734">
        <ele>209.8</ele>
        <time>2022-03-24T14:22:17Z</time>
      </trkpt>
      <trkpt lat="46.51277" lon="5.16769">
        <ele>209.4</ele>
        <time>2022-03-24T14:22:25Z</time>
      </trkpt>
      <trkpt lat="46.5127" lon="5.16772">
        <ele>209.2</ele>
        <time>2022-03-24T14:22:26Z</time>
      </trkpt>
      <trkpt lat="46.51262" lon="5.16775">
        <ele>209.2</ele>
        <time>2022-03-24T14:22:27Z</time>
      </trkpt>
      <trkpt lat="46.51246" lon="5.16777">
        <ele>209</ele>
        <time>2022-03-24T14:22:29Z</time>
      </trkpt>
      <trkpt lat="46.51237" lon="5.16776">
        <ele>209</ele>
        <time>2022-03-24T14:22:30Z</time>
      </trkpt>
      <trkpt lat="46.51222" lon="5.1677">
        <ele>208.8</ele>
        <time>2022-03-24T14:22:32Z</time>
      </trkpt>
      <trkpt lat="46.51214" lon="5.16765">
        <ele>208.6</ele>
        <time>2022-03-24T14:22:33Z</time>
      </trkpt>
      <trkpt lat="46.51207" lon="5.1676">
        <ele>208.4</ele>
        <time>2022-03-24T14:22:34Z</time>
      </trkpt>
      <trkpt lat="46.51175" lon="5.16722">
        <ele>208</ele>
        <time>2022-03-24T14:22:39Z</time>
      </trkpt>
      <trkpt lat="46.51151" lon="5.16689">
        <ele>207.8</ele>
        <time>2022-03-24T14:22:43Z</time>
      </trkpt>
      <trkpt lat="46.51126" lon="5.16656">
        <ele>207.4</ele>
        <time>2022-03-24T14:22:47Z</time>
      </trkpt>
      <trkpt lat="46.51098" lon="5.16627">
        <ele>206.8</ele>
        <time>2022-03-24T14:22:51Z</time>
      </trkpt>
      <trkpt lat="46.51091" lon="5.16622">
        <ele>206.6</ele>
        <time>2022-03-24T14:22:52Z</time>
      </trkpt>
      <trkpt lat="46.51051" lon="5.16607">
        <ele>206.2</ele>
        <time>2022-03-24T14:22:57Z</time>
      </trkpt>
      <trkpt lat="46.51021" lon="5.16592">
        <ele>205.6</ele>
        <time>2022-03-24T14:23:01Z</time>
      </trkpt>
      <trkpt lat="46.51013" lon="5.16585">
        <ele>205.4</ele>
        <time>2022-03-24T14:23:02Z</time>
      </trkpt>
      <trkpt lat="46.50988" lon="5.16563">
        <ele>205.4</ele>
        <time>2022-03-24T14:23:06Z</time>
      </trkpt>
      <trkpt lat="46.50981" lon="5.16559">
        <ele>205.4</ele>
        <time>2022-03-24T14:23:07Z</time>
      </trkpt>
      <trkpt lat="46.50973" lon="5.16557">
        <ele>205.4</ele>
        <time>2022-03-24T14:23:08Z</time>
      </trkpt>
      <trkpt lat="46.5095" lon="5.16556">
        <ele>205.6</ele>
        <time>2022-03-24T14:23:11Z</time>
      </trkpt>
      <trkpt lat="46.50896" lon="5.16566">
        <ele>205.6</ele>
        <time>2022-03-24T14:23:18Z</time>
      </trkpt>
      <trkpt lat="46.50881" lon="5.16567">
        <ele>205.6</ele>
        <time>2022-03-24T14:23:20Z</time>
      </trkpt>
      <trkpt lat="46.50858" lon="5.16564">
        <ele>205.2</ele>
        <time>2022-03-24T14:23:23Z</time>
      </trkpt>
      <trkpt lat="46.50843" lon="5.16559">
        <ele>205.2</ele>
        <time>2022-03-24T14:23:25Z</time>
      </trkpt>
      <trkpt lat="46.50785" lon="5.16537">
        <ele>205.2</ele>
        <time>2022-03-24T14:23:33Z</time>
      </trkpt>
      <trkpt lat="46.50778" lon="5.16535">
        <ele>205.2</ele>
        <time>2022-03-24T14:23:34Z</time>
      </trkpt>
      <trkpt lat="46.50749" lon="5.16531">
        <ele>205.2</ele>
        <time>2022-03-24T14:23:38Z</time>
      </trkpt>
      <trkpt lat="46.50735" lon="5.16532">
        <ele>205.2</ele>
        <time>2022-03-24T14:23:40Z</time>
      </trkpt>
      <trkpt lat="46.50687" lon="5.1655">
        <ele>205</ele>
        <time>2022-03-24T14:23:47Z</time>
      </trkpt>
      <trkpt lat="46.50652" lon="5.16577">
        <ele>205.8</ele>
        <time>2022-03-24T14:23:53Z</time>
      </trkpt>
      <trkpt lat="46.50605" lon="5.16617">
        <ele>206</ele>
        <time>2022-03-24T14:24:02Z</time>
      </trkpt>
      <trkpt lat="46.5059" lon="5.16628">
        <ele>206</ele>
        <time>2022-03-24T14:24:05Z</time>
      </trkpt>
      <trkpt lat="46.50573" lon="5.16639">
        <ele>206.2</ele>
        <time>2022-03-24T14:24:08Z</time>
      </trkpt>
      <trkpt lat="46.50519" lon="5.16672">
        <ele>206.4</ele>
        <time>2022-03-24T14:24:17Z</time>
      </trkpt>
      <trkpt lat="46.50468" lon="5.16703">
        <ele>206</ele>
        <time>2022-03-24T14:24:25Z</time>
      </trkpt>
      <trkpt lat="46.50449" lon="5.16711">
        <ele>205.8</ele>
        <time>2022-03-24T14:24:28Z</time>
      </trkpt>
      <trkpt lat="46.50434" lon="5.16711">
        <ele>205.6</ele>
        <time>2022-03-24T14:24:30Z</time>
      </trkpt>
      <trkpt lat="46.50392" lon="5.16702">
        <ele>205.4</ele>
        <time>2022-03-24T14:24:36Z</time>
      </trkpt>
      <trkpt lat="46.50379" lon="5.16698">
        <ele>204.6</ele>
        <time>2022-03-24T14:24:39Z</time>
      </trkpt>
      <trkpt lat="46.50377" lon="5.16697">
        <ele>204.4</ele>
        <time>2022-03-24T14:24:40Z</time>
      </trkpt>
      <trkpt lat="46.50371" lon="5.16695">
        <ele>204.2</ele>
        <time>2022-03-24T14:24:44Z</time>
      </trkpt>
      <trkpt lat="46.50366" lon="5.16693">
        <ele>203.6</ele>
        <time>2022-03-24T14:24:51Z</time>
      </trkpt>
      <trkpt lat="46.50366" lon="5.16693">
        <ele>203.6</ele>
        <time>2022-03-24T14:24:52Z</time>
      </trkpt>
      <trkpt lat="46.50362" lon="5.16692">
        <ele>203.4</ele>
        <time>2022-03-24T14:24:57Z</time>
      </trkpt>
      <trkpt lat="46.50357" lon="5.1669">
        <ele>203.4</ele>
        <time>2022-03-24T14:24:59Z</time>
      </trkpt>
      <trkpt lat="46.50336" lon="5.16677">
        <ele>203.2</ele>
        <time>2022-03-24T14:25:03Z</time>
      </trkpt>
      <trkpt lat="46.50306" lon="5.16642">
        <ele>203.4</ele>
        <time>2022-03-24T14:25:09Z</time>
      </trkpt>
      <trkpt lat="46.50293" lon="5.1663">
        <ele>203.4</ele>
        <time>2022-03-24T14:25:11Z</time>
      </trkpt>
      <trkpt lat="46.50281" lon="5.16625">
        <ele>203.4</ele>
        <time>2022-03-24T14:25:13Z</time>
      </trkpt>
      <trkpt lat="46.50266" lon="5.16622">
        <ele>203.6</ele>
        <time>2022-03-24T14:25:15Z</time>
      </trkpt>
      <trkpt lat="46.50252" lon="5.16623">
        <ele>203.6</ele>
        <time>2022-03-24T14:25:17Z</time>
      </trkpt>
      <trkpt lat="46.50198" lon="5.16626">
        <ele>204.2</ele>
        <time>2022-03-24T14:25:25Z</time>
      </trkpt>
      <trkpt lat="46.5018" lon="5.16628">
        <ele>204.6</ele>
        <time>2022-03-24T14:25:28Z</time>
      </trkpt>
      <trkpt lat="46.50173" lon="5.16628">
        <ele>204.6</ele>
        <time>2022-03-24T14:25:29Z</time>
      </trkpt>
      <trkpt lat="46.50118" lon="5.16629">
        <ele>205.2</ele>
        <time>2022-03-24T14:25:38Z</time>
      </trkpt>
      <trkpt lat="46.50096" lon="5.16627">
        <ele>205.8</ele>
        <time>2022-03-24T14:25:42Z</time>
      </trkpt>
      <trkpt lat="46.50084" lon="5.16625">
        <ele>206</ele>
        <time>2022-03-24T14:25:44Z</time>
      </trkpt>
      <trkpt lat="46.50048" lon="5.16616">
        <ele>207</ele>
        <time>2022-03-24T14:25:51Z</time>
      </trkpt>
      <trkpt lat="46.50037" lon="5.16613">
        <ele>207.2</ele>
        <time>2022-03-24T14:25:53Z</time>
      </trkpt>
      <trkpt lat="46.50006" lon="5.16604">
        <ele>208</ele>
        <time>2022-03-24T14:25:59Z</time>
      </trkpt>
      <trkpt lat="46.50001" lon="5.16602">
        <ele>208.2</ele>
        <time>2022-03-24T14:26:00Z</time>
      </trkpt>
      <trkpt lat="46.49974" lon="5.16594">
        <ele>209.2</ele>
        <time>2022-03-24T14:26:05Z</time>
      </trkpt>
      <trkpt lat="46.49956" lon="5.16588">
        <ele>209.6</ele>
        <time>2022-03-24T14:26:08Z</time>
      </trkpt>
      <trkpt lat="46.49904" lon="5.16574">
        <ele>210.4</ele>
        <time>2022-03-24T14:26:17Z</time>
      </trkpt>
      <trkpt lat="46.49893" lon="5.16572">
        <ele>210.6</ele>
        <time>2022-03-24T14:26:19Z</time>
      </trkpt>
      <trkpt lat="46.49844" lon="5.16566">
        <ele>211.2</ele>
        <time>2022-03-24T14:26:27Z</time>
      </trkpt>
      <trkpt lat="46.49815" lon="5.16561">
        <ele>211.6</ele>
        <time>2022-03-24T14:26:32Z</time>
      </trkpt>
      <trkpt lat="46.49779" lon="5.16555">
        <ele>211.8</ele>
        <time>2022-03-24T14:26:38Z</time>
      </trkpt>
      <trkpt lat="46.49733" lon="5.16548">
        <ele>212.2</ele>
        <time>2022-03-24T14:26:46Z</time>
      </trkpt>
      <trkpt lat="46.49718" lon="5.16546">
        <ele>212.6</ele>
        <time>2022-03-24T14:26:49Z</time>
      </trkpt>
      <trkpt lat="46.49703" lon="5.16547">
        <ele>213</ele>
        <time>2022-03-24T14:26:52Z</time>
      </trkpt>
      <trkpt lat="46.49691" lon="5.16549">
        <ele>214</ele>
        <time>2022-03-24T14:26:55Z</time>
      </trkpt>
      <trkpt lat="46.49679" lon="5.16553">
        <ele>214.6</ele>
        <time>2022-03-24T14:26:58Z</time>
      </trkpt>
      <trkpt lat="46.49672" lon="5.16557">
        <ele>215.2</ele>
        <time>2022-03-24T14:27:00Z</time>
      </trkpt>
      <trkpt lat="46.4965" lon="5.16567">
        <ele>216.2</ele>
        <time>2022-03-24T14:27:05Z</time>
      </trkpt>
      <trkpt lat="46.49619" lon="5.16579">
        <ele>217.4</ele>
        <time>2022-03-24T14:27:11Z</time>
      </trkpt>
      <trkpt lat="46.49593" lon="5.16588">
        <ele>218.4</ele>
        <time>2022-03-24T14:27:16Z</time>
      </trkpt>
      <trkpt lat="46.49582" lon="5.16592">
        <ele>218.8</ele>
        <time>2022-03-24T14:27:18Z</time>
      </trkpt>
      <trkpt lat="46.49562" lon="5.16599">
        <ele>219.6</ele>
        <time>2022-03-24T14:27:21Z</time>
      </trkpt>
      <trkpt lat="46.49542" lon="5.16604">
        <ele>220</ele>
        <time>2022-03-24T14:27:24Z</time>
      </trkpt>
      <trkpt lat="46.49514" lon="5.16616">
        <ele>220.6</ele>
        <time>2022-03-24T14:27:28Z</time>
      </trkpt>
      <trkpt lat="46.49499" lon="5.16621">
        <ele>220.6</ele>
        <time>2022-03-24T14:27:30Z</time>
      </trkpt>
      <trkpt lat="46.49477" lon="5.16629">
        <ele>220.6</ele>
        <time>2022-03-24T14:27:33Z</time>
      </trkpt>
      <trkpt lat="46.49462" lon="5.16631">
        <ele>220.4</ele>
        <time>2022-03-24T14:27:35Z</time>
      </trkpt>
      <trkpt lat="46.49454" lon="5.16631">
        <ele>220.4</ele>
        <time>2022-03-24T14:27:36Z</time>
      </trkpt>
      <trkpt lat="46.49414" lon="5.16632">
        <ele>219.6</ele>
        <time>2022-03-24T14:27:41Z</time>
      </trkpt>
      <trkpt lat="46.49388" lon="5.16632">
        <ele>219.2</ele>
        <time>2022-03-24T14:27:44Z</time>
      </trkpt>
      <trkpt lat="46.49335" lon="5.1663">
        <ele>218.8</ele>
        <time>2022-03-24T14:27:51Z</time>
      </trkpt>
      <trkpt lat="46.49281" lon="5.16628">
        <ele>218.4</ele>
        <time>2022-03-24T14:27:58Z</time>
      </trkpt>
      <trkpt lat="46.49227" lon="5.16631">
        <ele>217.8</ele>
        <time>2022-03-24T14:28:05Z</time>
      </trkpt>
      <trkpt lat="46.49198" lon="5.16641">
        <ele>217.2</ele>
        <time>2022-03-24T14:28:09Z</time>
      </trkpt>
      <trkpt lat="46.49173" lon="5.1665">
        <ele>217</ele>
        <time>2022-03-24T14:28:12Z</time>
      </trkpt>
      <trkpt lat="46.49115" lon="5.16672">
        <ele>216.6</ele>
        <time>2022-03-24T14:28:20Z</time>
      </trkpt>
      <trkpt lat="46.49108" lon="5.16674">
        <ele>216.4</ele>
        <time>2022-03-24T14:28:21Z</time>
      </trkpt>
      <trkpt lat="46.49052" lon="5.16694">
        <ele>216.6</ele>
        <time>2022-03-24T14:28:29Z</time>
      </trkpt>
      <trkpt lat="46.4904" lon="5.16699">
        <ele>216.8</ele>
        <time>2022-03-24T14:28:31Z</time>
      </trkpt>
      <trkpt lat="46.49007" lon="5.16714">
        <ele>217</ele>
        <time>2022-03-24T14:28:36Z</time>
      </trkpt>
      <trkpt lat="46.48993" lon="5.16719">
        <ele>217</ele>
        <time>2022-03-24T14:28:38Z</time>
      </trkpt>
      <trkpt lat="46.48961" lon="5.16733">
        <ele>217.6</ele>
        <time>2022-03-24T14:28:43Z</time>
      </trkpt>
      <trkpt lat="46.48955" lon="5.16736">
        <ele>217.6</ele>
        <time>2022-03-24T14:28:44Z</time>
      </trkpt>
      <trkpt lat="46.48902" lon="5.16764">
        <ele>218</ele>
        <time>2022-03-24T14:28:53Z</time>
      </trkpt>
      <trkpt lat="46.48879" lon="5.16777">
        <ele>218.4</ele>
        <time>2022-03-24T14:28:57Z</time>
      </trkpt>
      <trkpt lat="46.48853" lon="5.16792">
        <ele>219</ele>
        <time>2022-03-24T14:29:02Z</time>
      </trkpt>
      <trkpt lat="46.48815" lon="5.16815">
        <ele>219.6</ele>
        <time>2022-03-24T14:29:09Z</time>
      </trkpt>
      <trkpt lat="46.48771" lon="5.1683">
        <ele>220</ele>
        <time>2022-03-24T14:29:16Z</time>
      </trkpt>
      <trkpt lat="46.48719" lon="5.16838">
        <ele>219.8</ele>
        <time>2022-03-24T14:29:24Z</time>
      </trkpt>
      <trkpt lat="46.48659" lon="5.16846">
        <ele>219.6</ele>
        <time>2022-03-24T14:29:33Z</time>
      </trkpt>
      <trkpt lat="46.486" lon="5.16851">
        <ele>219.4</ele>
        <time>2022-03-24T14:29:42Z</time>
      </trkpt>
      <trkpt lat="46.48594" lon="5.16851">
        <ele>219.4</ele>
        <time>2022-03-24T14:29:43Z</time>
      </trkpt>
      <trkpt lat="46.48541" lon="5.16839">
        <ele>219.4</ele>
        <time>2022-03-24T14:29:51Z</time>
      </trkpt>
      <trkpt lat="46.48492" lon="5.16811">
        <ele>219.6</ele>
        <time>2022-03-24T14:29:59Z</time>
      </trkpt>
      <trkpt lat="46.48443" lon="5.1678">
        <ele>220.6</ele>
        <time>2022-03-24T14:30:08Z</time>
      </trkpt>
      <trkpt lat="46.48438" lon="5.16777">
        <ele>220.8</ele>
        <time>2022-03-24T14:30:09Z</time>
      </trkpt>
      <trkpt lat="46.48396" lon="5.16748">
        <ele>222.2</ele>
        <time>2022-03-24T14:30:17Z</time>
      </trkpt>
      <trkpt lat="46.48391" lon="5.16744">
        <ele>222.2</ele>
        <time>2022-03-24T14:30:18Z</time>
      </trkpt>
      <trkpt lat="46.48357" lon="5.16722">
        <ele>223.2</ele>
        <time>2022-03-24T14:30:24Z</time>
      </trkpt>
      <trkpt lat="46.48335" lon="5.16708">
        <ele>223.8</ele>
        <time>2022-03-24T14:30:28Z</time>
      </trkpt>
      <trkpt lat="46.48313" lon="5.16693">
        <ele>224.2</ele>
        <time>2022-03-24T14:30:32Z</time>
      </trkpt>
      <trkpt lat="46.48297" lon="5.16683">
        <ele>224.4</ele>
        <time>2022-03-24T14:30:35Z</time>
      </trkpt>
      <trkpt lat="46.48244" lon="5.16657">
        <ele>225</ele>
        <time>2022-03-24T14:30:44Z</time>
      </trkpt>
      <trkpt lat="46.48231" lon="5.16652">
        <ele>225</ele>
        <time>2022-03-24T14:30:46Z</time>
      </trkpt>
      <trkpt lat="46.48178" lon="5.16629">
        <ele>225.2</ele>
        <time>2022-03-24T14:30:55Z</time>
      </trkpt>
      <trkpt lat="46.48172" lon="5.16626">
        <ele>225.2</ele>
        <time>2022-03-24T14:30:56Z</time>
      </trkpt>
      <trkpt lat="46.48159" lon="5.16619">
        <ele>225.2</ele>
        <time>2022-03-24T14:30:58Z</time>
      </trkpt>
      <trkpt lat="46.48122" lon="5.16595">
        <ele>225</ele>
        <time>2022-03-24T14:31:04Z</time>
      </trkpt>
      <trkpt lat="46.48072" lon="5.16554">
        <ele>224.6</ele>
        <time>2022-03-24T14:31:12Z</time>
      </trkpt>
      <trkpt lat="46.48065" lon="5.16548">
        <ele>224.6</ele>
        <time>2022-03-24T14:31:13Z</time>
      </trkpt>
      <trkpt lat="46.48019" lon="5.1651">
        <ele>224.2</ele>
        <time>2022-03-24T14:31:20Z</time>
      </trkpt>
      <trkpt lat="46.48006" lon="5.165">
        <ele>224.2</ele>
        <time>2022-03-24T14:31:22Z</time>
      </trkpt>
      <trkpt lat="46.47964" lon="5.1647">
        <ele>223.6</ele>
        <time>2022-03-24T14:31:28Z</time>
      </trkpt>
      <trkpt lat="46.47943" lon="5.16454">
        <ele>223</ele>
        <time>2022-03-24T14:31:31Z</time>
      </trkpt>
      <trkpt lat="46.47908" lon="5.16423">
        <ele>222</ele>
        <time>2022-03-24T14:31:36Z</time>
      </trkpt>
      <trkpt lat="46.47902" lon="5.16417">
        <ele>222</ele>
        <time>2022-03-24T14:31:37Z</time>
      </trkpt>
      <trkpt lat="46.47857" lon="5.16369">
        <ele>221.2</ele>
        <time>2022-03-24T14:31:44Z</time>
      </trkpt>
      <trkpt lat="46.47851" lon="5.16363">
        <ele>221.2</ele>
        <time>2022-03-24T14:31:45Z</time>
      </trkpt>
      <trkpt lat="46.47818" lon="5.16325">
        <ele>221</ele>
        <time>2022-03-24T14:31:51Z</time>
      </trkpt>
      <trkpt lat="46.47791" lon="5.16297">
        <ele>221.4</ele>
        <time>2022-03-24T14:31:56Z</time>
      </trkpt>
      <trkpt lat="46.47745" lon="5.16253">
        <ele>221.6</ele>
        <time>2022-03-24T14:32:04Z</time>
      </trkpt>
      <trkpt lat="46.47709" lon="5.16235">
        <ele>222</ele>
        <time>2022-03-24T14:32:10Z</time>
      </trkpt>
      <trkpt lat="46.4766" lon="5.16224">
        <ele>222.2</ele>
        <time>2022-03-24T14:32:18Z</time>
      </trkpt>
      <trkpt lat="46.47614" lon="5.16209">
        <ele>223</ele>
        <time>2022-03-24T14:32:26Z</time>
      </trkpt>
      <trkpt lat="46.47603" lon="5.16203">
        <ele>223.2</ele>
        <time>2022-03-24T14:32:28Z</time>
      </trkpt>
      <trkpt lat="46.47569" lon="5.16172">
        <ele>223.4</ele>
        <time>2022-03-24T14:32:34Z</time>
      </trkpt>
      <trkpt lat="46.47561" lon="5.1616">
        <ele>223.4</ele>
        <time>2022-03-24T14:32:36Z</time>
      </trkpt>
      <trkpt lat="46.47546" lon="5.16131">
        <ele>223.6</ele>
        <time>2022-03-24T14:32:40Z</time>
      </trkpt>
      <trkpt lat="46.47531" lon="5.16092">
        <ele>224</ele>
        <time>2022-03-24T14:32:45Z</time>
      </trkpt>
      <trkpt lat="46.47528" lon="5.16083">
        <ele>224</ele>
        <time>2022-03-24T14:32:46Z</time>
      </trkpt>
      <trkpt lat="46.47507" lon="5.16011">
        <ele>224.8</ele>
        <time>2022-03-24T14:32:55Z</time>
      </trkpt>
      <trkpt lat="46.47501" lon="5.15997">
        <ele>225.2</ele>
        <time>2022-03-24T14:32:57Z</time>
      </trkpt>
      <trkpt lat="46.47494" lon="5.15987">
        <ele>225.4</ele>
        <time>2022-03-24T14:32:59Z</time>
      </trkpt>
      <trkpt lat="46.4749" lon="5.15982">
        <ele>225.4</ele>
        <time>2022-03-24T14:33:00Z</time>
      </trkpt>
      <trkpt lat="46.47486" lon="5.15978">
        <ele>225.6</ele>
        <time>2022-03-24T14:33:01Z</time>
      </trkpt>
      <trkpt lat="46.47473" lon="5.1597">
        <ele>226.2</ele>
        <time>2022-03-24T14:33:05Z</time>
      </trkpt>
      <trkpt lat="46.47467" lon="5.15968">
        <ele>226.6</ele>
        <time>2022-03-24T14:33:08Z</time>
      </trkpt>
      <trkpt lat="46.47466" lon="5.15969">
        <ele>226.6</ele>
        <time>2022-03-24T14:33:09Z</time>
      </trkpt>
      <trkpt lat="46.47466" lon="5.15969">
        <ele>227</ele>
        <time>2022-03-24T14:33:11Z</time>
      </trkpt>
      <trkpt lat="46.47463" lon="5.1597">
        <ele>227.2</ele>
        <time>2022-03-24T14:33:17Z</time>
      </trkpt>
      <trkpt lat="46.47462" lon="5.15972">
        <ele>227.2</ele>
        <time>2022-03-24T14:33:18Z</time>
      </trkpt>
      <trkpt lat="46.47462" lon="5.15989">
        <ele>227.2</ele>
        <time>2022-03-24T14:33:22Z</time>
      </trkpt>
      <trkpt lat="46.47465" lon="5.16026">
        <ele>227.2</ele>
        <time>2022-03-24T14:33:27Z</time>
      </trkpt>
      <trkpt lat="46.47473" lon="5.16098">
        <ele>227.8</ele>
        <time>2022-03-24T14:33:36Z</time>
      </trkpt>
      <trkpt lat="46.4748" lon="5.16161">
        <ele>227.8</ele>
        <time>2022-03-24T14:33:43Z</time>
      </trkpt>
      <trkpt lat="46.47487" lon="5.16237">
        <ele>227.6</ele>
        <time>2022-03-24T14:33:51Z</time>
      </trkpt>
      <trkpt lat="46.47497" lon="5.16323">
        <ele>227.2</ele>
        <time>2022-03-24T14:34:00Z</time>
      </trkpt>
      <trkpt lat="46.47499" lon="5.16341">
        <ele>227.2</ele>
        <time>2022-03-24T14:34:02Z</time>
      </trkpt>
      <trkpt lat="46.47507" lon="5.1642">
        <ele>227.6</ele>
        <time>2022-03-24T14:34:11Z</time>
      </trkpt>
      <trkpt lat="46.47508" lon="5.16429">
        <ele>227.6</ele>
        <time>2022-03-24T14:34:12Z</time>
      </trkpt>
      <trkpt lat="46.47516" lon="5.16514">
        <ele>227.8</ele>
        <time>2022-03-24T14:34:21Z</time>
      </trkpt>
      <trkpt lat="46.47518" lon="5.16533">
        <ele>227.8</ele>
        <time>2022-03-24T14:34:23Z</time>
      </trkpt>
      <trkpt lat="46.47527" lon="5.1662">
        <ele>227.4</ele>
        <time>2022-03-24T14:34:32Z</time>
      </trkpt>
      <trkpt lat="46.47535" lon="5.16693">
        <ele>227.8</ele>
        <time>2022-03-24T14:34:40Z</time>
      </trkpt>
      <trkpt lat="46.47543" lon="5.16776">
        <ele>228</ele>
        <time>2022-03-24T14:34:49Z</time>
      </trkpt>
      <trkpt lat="46.47544" lon="5.16786">
        <ele>228</ele>
        <time>2022-03-24T14:34:50Z</time>
      </trkpt>
      <trkpt lat="46.47552" lon="5.16865">
        <ele>227.6</ele>
        <time>2022-03-24T14:34:58Z</time>
      </trkpt>
      <trkpt lat="46.47553" lon="5.16875">
        <ele>227.6</ele>
        <time>2022-03-24T14:34:59Z</time>
      </trkpt>
      <trkpt lat="46.47561" lon="5.16958">
        <ele>227.2</ele>
        <time>2022-03-24T14:35:07Z</time>
      </trkpt>
      <trkpt lat="46.47564" lon="5.16978">
        <ele>227.2</ele>
        <time>2022-03-24T14:35:09Z</time>
      </trkpt>
      <trkpt lat="46.47571" lon="5.17059">
        <ele>227</ele>
        <time>2022-03-24T14:35:17Z</time>
      </trkpt>
      <trkpt lat="46.47573" lon="5.17079">
        <ele>227</ele>
        <time>2022-03-24T14:35:19Z</time>
      </trkpt>
      <trkpt lat="46.4758" lon="5.17153">
        <ele>226.6</ele>
        <time>2022-03-24T14:35:26Z</time>
      </trkpt>
      <trkpt lat="46.47583" lon="5.17184">
        <ele>226.2</ele>
        <time>2022-03-24T14:35:29Z</time>
      </trkpt>
      <trkpt lat="46.47592" lon="5.17271">
        <ele>225.6</ele>
        <time>2022-03-24T14:35:37Z</time>
      </trkpt>
      <trkpt lat="46.47594" lon="5.17292">
        <ele>225.2</ele>
        <time>2022-03-24T14:35:39Z</time>
      </trkpt>
      <trkpt lat="46.47595" lon="5.17303">
        <ele>225.2</ele>
        <time>2022-03-24T14:35:40Z</time>
      </trkpt>
      <trkpt lat="46.47603" lon="5.1739">
        <ele>224.4</ele>
        <time>2022-03-24T14:35:48Z</time>
      </trkpt>
      <trkpt lat="46.47604" lon="5.17399">
        <ele>224.4</ele>
        <time>2022-03-24T14:35:49Z</time>
      </trkpt>
      <trkpt lat="46.47607" lon="5.17433">
        <ele>224</ele>
        <time>2022-03-24T14:35:52Z</time>
      </trkpt>
      <trkpt lat="46.47614" lon="5.17503">
        <ele>223.4</ele>
        <time>2022-03-24T14:35:58Z</time>
      </trkpt>
      <trkpt lat="46.47615" lon="5.17515">
        <ele>223</ele>
        <time>2022-03-24T14:35:59Z</time>
      </trkpt>
      <trkpt lat="46.4762" lon="5.17575">
        <ele>222</ele>
        <time>2022-03-24T14:36:04Z</time>
      </trkpt>
      <trkpt lat="46.47624" lon="5.17622">
        <ele>221</ele>
        <time>2022-03-24T14:36:08Z</time>
      </trkpt>
      <trkpt lat="46.47627" lon="5.17657">
        <ele>220.8</ele>
        <time>2022-03-24T14:36:11Z</time>
      </trkpt>
      <trkpt lat="46.47629" lon="5.17695">
        <ele>220.8</ele>
        <time>2022-03-24T14:36:15Z</time>
      </trkpt>
      <trkpt lat="46.47634" lon="5.17756">
        <ele>221.4</ele>
        <time>2022-03-24T14:36:22Z</time>
      </trkpt>
      <trkpt lat="46.47637" lon="5.17794">
        <ele>222</ele>
        <time>2022-03-24T14:36:27Z</time>
      </trkpt>
      <trkpt lat="46.47639" lon="5.17809">
        <ele>222.2</ele>
        <time>2022-03-24T14:36:29Z</time>
      </trkpt>
      <trkpt lat="46.47643" lon="5.17862">
        <ele>223.4</ele>
        <time>2022-03-24T14:36:36Z</time>
      </trkpt>
      <trkpt lat="46.47644" lon="5.17879">
        <ele>223.8</ele>
        <time>2022-03-24T14:36:38Z</time>
      </trkpt>
      <trkpt lat="46.47651" lon="5.17947">
        <ele>223.8</ele>
        <time>2022-03-24T14:36:46Z</time>
      </trkpt>
      <trkpt lat="46.47654" lon="5.17992">
        <ele>223.2</ele>
        <time>2022-03-24T14:36:51Z</time>
      </trkpt>
      <trkpt lat="46.47658" lon="5.18032">
        <ele>222</ele>
        <time>2022-03-24T14:36:55Z</time>
      </trkpt>
      <trkpt lat="46.47661" lon="5.18065">
        <ele>220.8</ele>
        <time>2022-03-24T14:36:58Z</time>
      </trkpt>
      <trkpt lat="46.47663" lon="5.18087">
        <ele>220.4</ele>
        <time>2022-03-24T14:37:00Z</time>
      </trkpt>
      <trkpt lat="46.47666" lon="5.18125">
        <ele>219.4</ele>
        <time>2022-03-24T14:37:03Z</time>
      </trkpt>
      <trkpt lat="46.4767" lon="5.18173">
        <ele>218.4</ele>
        <time>2022-03-24T14:37:07Z</time>
      </trkpt>
      <trkpt lat="46.47672" lon="5.18194">
        <ele>217</ele>
        <time>2022-03-24T14:37:09Z</time>
      </trkpt>
      <trkpt lat="46.47675" lon="5.1823">
        <ele>216</ele>
        <time>2022-03-24T14:37:12Z</time>
      </trkpt>
      <trkpt lat="46.4768" lon="5.18283">
        <ele>214.8</ele>
        <time>2022-03-24T14:37:17Z</time>
      </trkpt>
      <trkpt lat="46.47685" lon="5.18337">
        <ele>213.8</ele>
        <time>2022-03-24T14:37:22Z</time>
      </trkpt>
      <trkpt lat="46.4769" lon="5.18392">
        <ele>212.6</ele>
        <time>2022-03-24T14:37:27Z</time>
      </trkpt>
      <trkpt lat="46.47691" lon="5.18405">
        <ele>212.4</ele>
        <time>2022-03-24T14:37:28Z</time>
      </trkpt>
      <trkpt lat="46.47697" lon="5.18475">
        <ele>211.4</ele>
        <time>2022-03-24T14:37:35Z</time>
      </trkpt>
      <trkpt lat="46.47698" lon="5.18486">
        <ele>211.4</ele>
        <time>2022-03-24T14:37:36Z</time>
      </trkpt>
      <trkpt lat="46.47705" lon="5.18568">
        <ele>211</ele>
        <time>2022-03-24T14:37:44Z</time>
      </trkpt>
      <trkpt lat="46.47707" lon="5.18588">
        <ele>211</ele>
        <time>2022-03-24T14:37:46Z</time>
      </trkpt>
      <trkpt lat="46.47714" lon="5.18667">
        <ele>210.8</ele>
        <time>2022-03-24T14:37:54Z</time>
      </trkpt>
      <trkpt lat="46.47715" lon="5.18677">
        <ele>210.8</ele>
        <time>2022-03-24T14:37:55Z</time>
      </trkpt>
      <trkpt lat="46.47722" lon="5.18755">
        <ele>211</ele>
        <time>2022-03-24T14:38:03Z</time>
      </trkpt>
      <trkpt lat="46.47725" lon="5.18795">
        <ele>211</ele>
        <time>2022-03-24T14:38:07Z</time>
      </trkpt>
      <trkpt lat="46.47729" lon="5.1883">
        <ele>211</ele>
        <time>2022-03-24T14:38:11Z</time>
      </trkpt>
      <trkpt lat="46.47733" lon="5.18882">
        <ele>211.2</ele>
        <time>2022-03-24T14:38:17Z</time>
      </trkpt>
      <trkpt lat="46.47737" lon="5.1893">
        <ele>212</ele>
        <time>2022-03-24T14:38:23Z</time>
      </trkpt>
      <trkpt lat="46.47742" lon="5.18965">
        <ele>212.6</ele>
        <time>2022-03-24T14:38:28Z</time>
      </trkpt>
      <trkpt lat="46.47743" lon="5.18979">
        <ele>213</ele>
        <time>2022-03-24T14:38:30Z</time>
      </trkpt>
      <trkpt lat="46.47745" lon="5.18992">
        <ele>213.4</ele>
        <time>2022-03-24T14:38:32Z</time>
      </trkpt>
      <trkpt lat="46.47746" lon="5.18999">
        <ele>213.6</ele>
        <time>2022-03-24T14:38:33Z</time>
      </trkpt>
      <trkpt lat="46.47747" lon="5.19018">
        <ele>214</ele>
        <time>2022-03-24T14:38:36Z</time>
      </trkpt>
      <trkpt lat="46.47748" lon="5.19032">
        <ele>214.6</ele>
        <time>2022-03-24T14:38:38Z</time>
      </trkpt>
      <trkpt lat="46.47751" lon="5.19065">
        <ele>215.6</ele>
        <time>2022-03-24T14:38:43Z</time>
      </trkpt>
      <trkpt lat="46.47753" lon="5.19087">
        <ele>215.8</ele>
        <time>2022-03-24T14:38:46Z</time>
      </trkpt>
      <trkpt lat="46.47755" lon="5.19104">
        <ele>216</ele>
        <time>2022-03-24T14:38:48Z</time>
      </trkpt>
      <trkpt lat="46.47757" lon="5.19111">
        <ele>216.4</ele>
        <time>2022-03-24T14:38:49Z</time>
      </trkpt>
      <trkpt lat="46.47759" lon="5.19116">
        <ele>216.4</ele>
        <time>2022-03-24T14:38:50Z</time>
      </trkpt>
      <trkpt lat="46.47765" lon="5.19124">
        <ele>216.8</ele>
        <time>2022-03-24T14:38:52Z</time>
      </trkpt>
      <trkpt lat="46.47768" lon="5.19125">
        <ele>217</ele>
        <time>2022-03-24T14:38:53Z</time>
      </trkpt>
      <trkpt lat="46.47779" lon="5.19129">
        <ele>218.2</ele>
        <time>2022-03-24T14:38:57Z</time>
      </trkpt>
      <trkpt lat="46.47781" lon="5.19131">
        <ele>218.6</ele>
        <time>2022-03-24T14:39:01Z</time>
      </trkpt>
      <trkpt lat="46.47781" lon="5.19131">
        <ele>218.8</ele>
        <time>2022-03-24T14:39:02Z</time>
      </trkpt>
      <trkpt lat="46.47779" lon="5.19129">
        <ele>218.6</ele>
        <time>2022-03-24T14:39:46Z</time>
      </trkpt>
      <trkpt lat="46.47773" lon="5.19126">
        <ele>218.6</ele>
        <time>2022-03-24T14:39:48Z</time>
      </trkpt>
      <trkpt lat="46.47758" lon="5.19122">
        <ele>218</ele>
        <time>2022-03-24T14:39:53Z</time>
      </trkpt>
      <trkpt lat="46.47755" lon="5.19134">
        <ele>217.8</ele>
        <time>2022-03-24T14:39:56Z</time>
      </trkpt>
      <trkpt lat="46.4776" lon="5.19178">
        <ele>217.8</ele>
        <time>2022-03-24T14:40:02Z</time>
      </trkpt>
      <trkpt lat="46.47765" lon="5.19232">
        <ele>219.4</ele>
        <time>2022-03-24T14:40:10Z</time>
      </trkpt>
      <trkpt lat="46.47766" lon="5.1924">
        <ele>219.6</ele>
        <time>2022-03-24T14:40:11Z</time>
      </trkpt>
      <trkpt lat="46.47767" lon="5.19252">
        <ele>219.8</ele>
        <time>2022-03-24T14:40:13Z</time>
      </trkpt>
      <trkpt lat="46.47769" lon="5.19265">
        <ele>220</ele>
        <time>2022-03-24T14:40:15Z</time>
      </trkpt>
      <trkpt lat="46.47769" lon="5.1927">
        <ele>220.2</ele>
        <time>2022-03-24T14:40:16Z</time>
      </trkpt>
      <trkpt lat="46.47772" lon="5.19304">
        <ele>221.4</ele>
        <time>2022-03-24T14:40:21Z</time>
      </trkpt>
      <trkpt lat="46.47773" lon="5.19317">
        <ele>221.4</ele>
        <time>2022-03-24T14:40:23Z</time>
      </trkpt>
      <trkpt lat="46.47775" lon="5.1934">
        <ele>222.4</ele>
        <time>2022-03-24T14:40:26Z</time>
      </trkpt>
      <trkpt lat="46.47777" lon="5.19368">
        <ele>223.2</ele>
        <time>2022-03-24T14:40:30Z</time>
      </trkpt>
      <trkpt lat="46.47778" lon="5.19373">
        <ele>223.4</ele>
        <time>2022-03-24T14:40:31Z</time>
      </trkpt>
      <trkpt lat="46.47784" lon="5.19445">
        <ele>224.6</ele>
        <time>2022-03-24T14:40:41Z</time>
      </trkpt>
      <trkpt lat="46.47786" lon="5.19461">
        <ele>224.8</ele>
        <time>2022-03-24T14:40:43Z</time>
      </trkpt>
      <trkpt lat="46.47791" lon="5.19518">
        <ele>224.8</ele>
        <time>2022-03-24T14:40:50Z</time>
      </trkpt>
      <trkpt lat="46.47798" lon="5.19588">
        <ele>224.8</ele>
        <time>2022-03-24T14:40:58Z</time>
      </trkpt>
      <trkpt lat="46.47805" lon="5.19666">
        <ele>224.6</ele>
        <time>2022-03-24T14:41:06Z</time>
      </trkpt>
      <trkpt lat="46.47806" lon="5.19676">
        <ele>224.6</ele>
        <time>2022-03-24T14:41:07Z</time>
      </trkpt>
      <trkpt lat="46.47813" lon="5.19759">
        <ele>223.8</ele>
        <time>2022-03-24T14:41:15Z</time>
      </trkpt>
      <trkpt lat="46.47815" lon="5.19781">
        <ele>223.6</ele>
        <time>2022-03-24T14:41:17Z</time>
      </trkpt>
      <trkpt lat="46.47821" lon="5.19843">
        <ele>223.6</ele>
        <time>2022-03-24T14:41:23Z</time>
      </trkpt>
      <trkpt lat="46.47829" lon="5.19929">
        <ele>223.2</ele>
        <time>2022-03-24T14:41:31Z</time>
      </trkpt>
      <trkpt lat="46.4783" lon="5.19939">
        <ele>223.2</ele>
        <time>2022-03-24T14:41:32Z</time>
      </trkpt>
      <trkpt lat="46.47836" lon="5.20003">
        <ele>223.2</ele>
        <time>2022-03-24T14:41:38Z</time>
      </trkpt>
      <trkpt lat="46.47842" lon="5.2007">
        <ele>223.6</ele>
        <time>2022-03-24T14:41:45Z</time>
      </trkpt>
      <trkpt lat="46.47847" lon="5.20133">
        <ele>224</ele>
        <time>2022-03-24T14:41:51Z</time>
      </trkpt>
      <trkpt lat="46.47856" lon="5.20213">
        <ele>223.2</ele>
        <time>2022-03-24T14:41:58Z</time>
      </trkpt>
      <trkpt lat="46.47858" lon="5.20227">
        <ele>223</ele>
        <time>2022-03-24T14:41:59Z</time>
      </trkpt>
      <trkpt lat="46.47859" lon="5.20236">
        <ele>222.6</ele>
        <time>2022-03-24T14:42:00Z</time>
      </trkpt>
      <trkpt lat="46.47865" lon="5.20296">
        <ele>221.6</ele>
        <time>2022-03-24T14:42:05Z</time>
      </trkpt>
      <trkpt lat="46.47869" lon="5.20331">
        <ele>221.2</ele>
        <time>2022-03-24T14:42:08Z</time>
      </trkpt>
      <trkpt lat="46.47876" lon="5.20387">
        <ele>221.2</ele>
        <time>2022-03-24T14:42:14Z</time>
      </trkpt>
      <trkpt lat="46.47884" lon="5.20459">
        <ele>221.8</ele>
        <time>2022-03-24T14:42:22Z</time>
      </trkpt>
      <trkpt lat="46.47894" lon="5.20548">
        <ele>221.6</ele>
        <time>2022-03-24T14:42:31Z</time>
      </trkpt>
      <trkpt lat="46.47899" lon="5.20617">
        <ele>221</ele>
        <time>2022-03-24T14:42:37Z</time>
      </trkpt>
      <trkpt lat="46.479" lon="5.2063">
        <ele>220.6</ele>
        <time>2022-03-24T14:42:38Z</time>
      </trkpt>
      <trkpt lat="46.47902" lon="5.20674">
        <ele>219.6</ele>
        <time>2022-03-24T14:42:41Z</time>
      </trkpt>
      <trkpt lat="46.47904" lon="5.207">
        <ele>219</ele>
        <time>2022-03-24T14:42:43Z</time>
      </trkpt>
      <trkpt lat="46.47905" lon="5.20715">
        <ele>218.4</ele>
        <time>2022-03-24T14:42:44Z</time>
      </trkpt>
      <trkpt lat="46.47909" lon="5.2076">
        <ele>217</ele>
        <time>2022-03-24T14:42:47Z</time>
      </trkpt>
      <trkpt lat="46.47913" lon="5.20809">
        <ele>216</ele>
        <time>2022-03-24T14:42:50Z</time>
      </trkpt>
      <trkpt lat="46.47913" lon="5.20821">
        <ele>215.6</ele>
        <time>2022-03-24T14:42:51Z</time>
      </trkpt>
      <trkpt lat="46.47915" lon="5.20836">
        <ele>214.6</ele>
        <time>2022-03-24T14:42:52Z</time>
      </trkpt>
      <trkpt lat="46.47914" lon="5.20897">
        <ele>212.6</ele>
        <time>2022-03-24T14:42:56Z</time>
      </trkpt>
      <trkpt lat="46.47905" lon="5.20951">
        <ele>211.6</ele>
        <time>2022-03-24T14:43:00Z</time>
      </trkpt>
      <trkpt lat="46.47902" lon="5.20964">
        <ele>211.6</ele>
        <time>2022-03-24T14:43:01Z</time>
      </trkpt>
      <trkpt lat="46.47892" lon="5.2101">
        <ele>211.4</ele>
        <time>2022-03-24T14:43:05Z</time>
      </trkpt>
      <trkpt lat="46.47879" lon="5.21069">
        <ele>211.8</ele>
        <time>2022-03-24T14:43:11Z</time>
      </trkpt>
      <trkpt lat="46.47875" lon="5.21088">
        <ele>212.6</ele>
        <time>2022-03-24T14:43:13Z</time>
      </trkpt>
      <trkpt lat="46.47866" lon="5.21129">
        <ele>213.2</ele>
        <time>2022-03-24T14:43:18Z</time>
      </trkpt>
      <trkpt lat="46.47865" lon="5.21135">
        <ele>213.6</ele>
        <time>2022-03-24T14:43:19Z</time>
      </trkpt>
      <trkpt lat="46.47857" lon="5.21163">
        <ele>214.6</ele>
        <time>2022-03-24T14:43:23Z</time>
      </trkpt>
      <trkpt lat="46.47856" lon="5.2117">
        <ele>215</ele>
        <time>2022-03-24T14:43:24Z</time>
      </trkpt>
      <trkpt lat="46.47851" lon="5.21192">
        <ele>216.2</ele>
        <time>2022-03-24T14:43:28Z</time>
      </trkpt>
      <trkpt lat="46.47845" lon="5.21221">
        <ele>216.8</ele>
        <time>2022-03-24T14:43:32Z</time>
      </trkpt>
      <trkpt lat="46.47844" lon="5.21227">
        <ele>217</ele>
        <time>2022-03-24T14:43:33Z</time>
      </trkpt>
      <trkpt lat="46.47842" lon="5.21233">
        <ele>217.4</ele>
        <time>2022-03-24T14:43:34Z</time>
      </trkpt>
      <trkpt lat="46.47835" lon="5.21259">
        <ele>218</ele>
        <time>2022-03-24T14:43:38Z</time>
      </trkpt>
      <trkpt lat="46.47833" lon="5.21265">
        <ele>218.2</ele>
        <time>2022-03-24T14:43:39Z</time>
      </trkpt>
      <trkpt lat="46.47832" lon="5.21273">
        <ele>218.4</ele>
        <time>2022-03-24T14:43:40Z</time>
      </trkpt>
      <trkpt lat="46.47827" lon="5.21291">
        <ele>219.2</ele>
        <time>2022-03-24T14:43:43Z</time>
      </trkpt>
      <trkpt lat="46.47825" lon="5.21297">
        <ele>219.4</ele>
        <time>2022-03-24T14:43:44Z</time>
      </trkpt>
      <trkpt lat="46.4781" lon="5.2135">
        <ele>220.4</ele>
        <time>2022-03-24T14:43:51Z</time>
      </trkpt>
      <trkpt lat="46.47792" lon="5.21413">
        <ele>220.2</ele>
        <time>2022-03-24T14:43:58Z</time>
      </trkpt>
      <trkpt lat="46.4777" lon="5.21491">
        <ele>219.2</ele>
        <time>2022-03-24T14:44:06Z</time>
      </trkpt>
      <trkpt lat="46.47751" lon="5.21555">
        <ele>218.8</ele>
        <time>2022-03-24T14:44:13Z</time>
      </trkpt>
      <trkpt lat="46.47738" lon="5.21598">
        <ele>219</ele>
        <time>2022-03-24T14:44:18Z</time>
      </trkpt>
      <trkpt lat="46.47725" lon="5.21641">
        <ele>219.8</ele>
        <time>2022-03-24T14:44:24Z</time>
      </trkpt>
      <trkpt lat="46.47719" lon="5.21661">
        <ele>220.6</ele>
        <time>2022-03-24T14:44:27Z</time>
      </trkpt>
      <trkpt lat="46.47711" lon="5.21688">
        <ele>221.4</ele>
        <time>2022-03-24T14:44:31Z</time>
      </trkpt>
      <trkpt lat="46.4771" lon="5.21695">
        <ele>221.6</ele>
        <time>2022-03-24T14:44:32Z</time>
      </trkpt>
      <trkpt lat="46.47709" lon="5.21702">
        <ele>221.6</ele>
        <time>2022-03-24T14:44:33Z</time>
      </trkpt>
      <trkpt lat="46.47709" lon="5.21733">
        <ele>223</ele>
        <time>2022-03-24T14:44:37Z</time>
      </trkpt>
      <trkpt lat="46.4771" lon="5.21741">
        <ele>223</ele>
        <time>2022-03-24T14:44:38Z</time>
      </trkpt>
      <trkpt lat="46.47715" lon="5.21786">
        <ele>222.8</ele>
        <time>2022-03-24T14:44:43Z</time>
      </trkpt>
      <trkpt lat="46.47723" lon="5.2187">
        <ele>221.8</ele>
        <time>2022-03-24T14:44:51Z</time>
      </trkpt>
      <trkpt lat="46.47724" lon="5.21882">
        <ele>221.6</ele>
        <time>2022-03-24T14:44:52Z</time>
      </trkpt>
      <trkpt lat="46.4773" lon="5.2196">
        <ele>221</ele>
        <time>2022-03-24T14:44:59Z</time>
      </trkpt>
      <trkpt lat="46.47731" lon="5.2197">
        <ele>221</ele>
        <time>2022-03-24T14:45:00Z</time>
      </trkpt>
      <trkpt lat="46.47737" lon="5.22029">
        <ele>221</ele>
        <time>2022-03-24T14:45:06Z</time>
      </trkpt>
      <trkpt lat="46.47743" lon="5.22102">
        <ele>221.6</ele>
        <time>2022-03-24T14:45:14Z</time>
      </trkpt>
      <trkpt lat="46.4775" lon="5.22175">
        <ele>222</ele>
        <time>2022-03-24T14:45:22Z</time>
      </trkpt>
      <trkpt lat="46.47757" lon="5.22255">
        <ele>222.6</ele>
        <time>2022-03-24T14:45:31Z</time>
      </trkpt>
      <trkpt lat="46.47759" lon="5.22282">
        <ele>223</ele>
        <time>2022-03-24T14:45:34Z</time>
      </trkpt>
      <trkpt lat="46.4776" lon="5.22299">
        <ele>223</ele>
        <time>2022-03-24T14:45:36Z</time>
      </trkpt>
      <trkpt lat="46.47767" lon="5.22359">
        <ele>224</ele>
        <time>2022-03-24T14:45:43Z</time>
      </trkpt>
      <trkpt lat="46.47768" lon="5.22367">
        <ele>224</ele>
        <time>2022-03-24T14:45:44Z</time>
      </trkpt>
      <trkpt lat="46.4778" lon="5.22433">
        <ele>224.8</ele>
        <time>2022-03-24T14:45:52Z</time>
      </trkpt>
      <trkpt lat="46.47784" lon="5.22449">
        <ele>225.2</ele>
        <time>2022-03-24T14:45:54Z</time>
      </trkpt>
      <trkpt lat="46.47798" lon="5.22518">
        <ele>225.8</ele>
        <time>2022-03-24T14:46:02Z</time>
      </trkpt>
      <trkpt lat="46.47806" lon="5.22553">
        <ele>225.8</ele>
        <time>2022-03-24T14:46:06Z</time>
      </trkpt>
      <trkpt lat="46.47813" lon="5.22569">
        <ele>226</ele>
        <time>2022-03-24T14:46:08Z</time>
      </trkpt>
      <trkpt lat="46.47817" lon="5.22576">
        <ele>226</ele>
        <time>2022-03-24T14:46:09Z</time>
      </trkpt>
      <trkpt lat="46.47844" lon="5.22609">
        <ele>225.6</ele>
        <time>2022-03-24T14:46:14Z</time>
      </trkpt>
      <trkpt lat="46.47876" lon="5.22643">
        <ele>224.4</ele>
        <time>2022-03-24T14:46:19Z</time>
      </trkpt>
      <trkpt lat="46.47883" lon="5.2265">
        <ele>224</ele>
        <time>2022-03-24T14:46:20Z</time>
      </trkpt>
      <trkpt lat="46.47904" lon="5.22672">
        <ele>222.6</ele>
        <time>2022-03-24T14:46:23Z</time>
      </trkpt>
      <trkpt lat="46.47926" lon="5.22696">
        <ele>221.2</ele>
        <time>2022-03-24T14:46:26Z</time>
      </trkpt>
      <trkpt lat="46.47948" lon="5.22719">
        <ele>220</ele>
        <time>2022-03-24T14:46:29Z</time>
      </trkpt>
      <trkpt lat="46.47969" lon="5.22748">
        <ele>219</ele>
        <time>2022-03-24T14:46:32Z</time>
      </trkpt>
      <trkpt lat="46.47974" lon="5.22758">
        <ele>218.6</ele>
        <time>2022-03-24T14:46:33Z</time>
      </trkpt>
      <trkpt lat="46.47984" lon="5.2278">
        <ele>217.4</ele>
        <time>2022-03-24T14:46:35Z</time>
      </trkpt>
      <trkpt lat="46.47989" lon="5.22794">
        <ele>217</ele>
        <time>2022-03-24T14:46:36Z</time>
      </trkpt>
      <trkpt lat="46.48001" lon="5.22824">
        <ele>216.2</ele>
        <time>2022-03-24T14:46:39Z</time>
      </trkpt>
      <trkpt lat="46.48024" lon="5.2289">
        <ele>215.4</ele>
        <time>2022-03-24T14:46:45Z</time>
      </trkpt>
      <trkpt lat="46.48028" lon="5.22901">
        <ele>215.2</ele>
        <time>2022-03-24T14:46:46Z</time>
      </trkpt>
      <trkpt lat="46.48042" lon="5.22958">
        <ele>214.2</ele>
        <time>2022-03-24T14:46:51Z</time>
      </trkpt>
      <trkpt lat="46.48044" lon="5.2297">
        <ele>214</ele>
        <time>2022-03-24T14:46:52Z</time>
      </trkpt>
      <trkpt lat="46.48046" lon="5.23018">
        <ele>212.6</ele>
        <time>2022-03-24T14:46:56Z</time>
      </trkpt>
      <trkpt lat="46.48046" lon="5.23029">
        <ele>212.4</ele>
        <time>2022-03-24T14:46:57Z</time>
      </trkpt>
      <trkpt lat="46.48047" lon="5.23065">
        <ele>211.2</ele>
        <time>2022-03-24T14:47:00Z</time>
      </trkpt>
      <trkpt lat="46.48049" lon="5.23139">
        <ele>210</ele>
        <time>2022-03-24T14:47:06Z</time>
      </trkpt>
      <trkpt lat="46.4805" lon="5.23177">
        <ele>209</ele>
        <time>2022-03-24T14:47:09Z</time>
      </trkpt>
      <trkpt lat="46.48051" lon="5.2324">
        <ele>207.8</ele>
        <time>2022-03-24T14:47:14Z</time>
      </trkpt>
      <trkpt lat="46.48051" lon="5.23277">
        <ele>206.6</ele>
        <time>2022-03-24T14:47:17Z</time>
      </trkpt>
      <trkpt lat="46.48053" lon="5.23312">
        <ele>206</ele>
        <time>2022-03-24T14:47:20Z</time>
      </trkpt>
      <trkpt lat="46.48053" lon="5.23347">
        <ele>205.6</ele>
        <time>2022-03-24T14:47:23Z</time>
      </trkpt>
      <trkpt lat="46.48055" lon="5.23416">
        <ele>205.2</ele>
        <time>2022-03-24T14:47:29Z</time>
      </trkpt>
      <trkpt lat="46.48057" lon="5.23504">
        <ele>205</ele>
        <time>2022-03-24T14:47:37Z</time>
      </trkpt>
      <trkpt lat="46.48057" lon="5.23526">
        <ele>205</ele>
        <time>2022-03-24T14:47:39Z</time>
      </trkpt>
      <trkpt lat="46.48059" lon="5.23579">
        <ele>204.6</ele>
        <time>2022-03-24T14:47:44Z</time>
      </trkpt>
      <trkpt lat="46.48059" lon="5.23609">
        <ele>204.4</ele>
        <time>2022-03-24T14:47:47Z</time>
      </trkpt>
      <trkpt lat="46.48067" lon="5.23666">
        <ele>204.6</ele>
        <time>2022-03-24T14:47:53Z</time>
      </trkpt>
      <trkpt lat="46.48086" lon="5.23724">
        <ele>205</ele>
        <time>2022-03-24T14:48:00Z</time>
      </trkpt>
      <trkpt lat="46.48113" lon="5.23773">
        <ele>205.6</ele>
        <time>2022-03-24T14:48:07Z</time>
      </trkpt>
      <trkpt lat="46.48117" lon="5.23779">
        <ele>205.8</ele>
        <time>2022-03-24T14:48:08Z</time>
      </trkpt>
      <trkpt lat="46.4815" lon="5.23818">
        <ele>205.8</ele>
        <time>2022-03-24T14:48:15Z</time>
      </trkpt>
      <trkpt lat="46.4818" lon="5.23864">
        <ele>205.8</ele>
        <time>2022-03-24T14:48:22Z</time>
      </trkpt>
      <trkpt lat="46.48188" lon="5.23898">
        <ele>206</ele>
        <time>2022-03-24T14:48:26Z</time>
      </trkpt>
      <trkpt lat="46.48188" lon="5.23907">
        <ele>206.2</ele>
        <time>2022-03-24T14:48:27Z</time>
      </trkpt>
      <trkpt lat="46.48188" lon="5.23916">
        <ele>206.2</ele>
        <time>2022-03-24T14:48:28Z</time>
      </trkpt>
      <trkpt lat="46.48186" lon="5.23934">
        <ele>206.2</ele>
        <time>2022-03-24T14:48:30Z</time>
      </trkpt>
      <trkpt lat="46.48183" lon="5.23949">
        <ele>206.4</ele>
        <time>2022-03-24T14:48:32Z</time>
      </trkpt>
      <trkpt lat="46.48176" lon="5.23972">
        <ele>206.8</ele>
        <time>2022-03-24T14:48:35Z</time>
      </trkpt>
      <trkpt lat="46.48168" lon="5.23992">
        <ele>207.2</ele>
        <time>2022-03-24T14:48:38Z</time>
      </trkpt>
      <trkpt lat="46.48159" lon="5.24015">
        <ele>208</ele>
        <time>2022-03-24T14:48:42Z</time>
      </trkpt>
      <trkpt lat="46.48154" lon="5.2403">
        <ele>208.8</ele>
        <time>2022-03-24T14:48:45Z</time>
      </trkpt>
      <trkpt lat="46.4815" lon="5.2404">
        <ele>209.2</ele>
        <time>2022-03-24T14:48:47Z</time>
      </trkpt>
      <trkpt lat="46.4814" lon="5.24065">
        <ele>210.4</ele>
        <time>2022-03-24T14:48:52Z</time>
      </trkpt>
      <trkpt lat="46.48134" lon="5.24079">
        <ele>210.8</ele>
        <time>2022-03-24T14:48:55Z</time>
      </trkpt>
      <trkpt lat="46.48128" lon="5.24093">
        <ele>211.4</ele>
        <time>2022-03-24T14:48:58Z</time>
      </trkpt>
      <trkpt lat="46.48119" lon="5.24117">
        <ele>212.6</ele>
        <time>2022-03-24T14:49:03Z</time>
      </trkpt>
      <trkpt lat="46.48109" lon="5.24143">
        <ele>213.6</ele>
        <time>2022-03-24T14:49:09Z</time>
      </trkpt>
      <trkpt lat="46.48103" lon="5.24161">
        <ele>214.6</ele>
        <time>2022-03-24T14:49:13Z</time>
      </trkpt>
      <trkpt lat="46.48095" lon="5.24182">
        <ele>216</ele>
        <time>2022-03-24T14:49:18Z</time>
      </trkpt>
      <trkpt lat="46.4809" lon="5.24195">
        <ele>216.6</ele>
        <time>2022-03-24T14:49:21Z</time>
      </trkpt>
      <trkpt lat="46.48088" lon="5.24199">
        <ele>217</ele>
        <time>2022-03-24T14:49:22Z</time>
      </trkpt>
      <trkpt lat="46.4808" lon="5.2422">
        <ele>218.4</ele>
        <time>2022-03-24T14:49:27Z</time>
      </trkpt>
      <trkpt lat="46.48074" lon="5.24241">
        <ele>219.6</ele>
        <time>2022-03-24T14:49:32Z</time>
      </trkpt>
      <trkpt lat="46.48071" lon="5.24266">
        <ele>220.6</ele>
        <time>2022-03-24T14:49:37Z</time>
      </trkpt>
      <trkpt lat="46.48071" lon="5.24281">
        <ele>221.2</ele>
        <time>2022-03-24T14:49:40Z</time>
      </trkpt>
      <trkpt lat="46.48075" lon="5.24296">
        <ele>221.8</ele>
        <time>2022-03-24T14:49:43Z</time>
      </trkpt>
      <trkpt lat="46.48081" lon="5.24309">
        <ele>222.2</ele>
        <time>2022-03-24T14:49:46Z</time>
      </trkpt>
      <trkpt lat="46.4809" lon="5.24323">
        <ele>223</ele>
        <time>2022-03-24T14:49:50Z</time>
      </trkpt>
      <trkpt lat="46.48099" lon="5.24332">
        <ele>223.6</ele>
        <time>2022-03-24T14:49:53Z</time>
      </trkpt>
      <trkpt lat="46.48107" lon="5.24343">
        <ele>224.2</ele>
        <time>2022-03-24T14:49:56Z</time>
      </trkpt>
      <trkpt lat="46.48109" lon="5.24352">
        <ele>224.6</ele>
        <time>2022-03-24T14:49:58Z</time>
      </trkpt>
      <trkpt lat="46.48105" lon="5.24365">
        <ele>225.4</ele>
        <time>2022-03-24T14:50:01Z</time>
      </trkpt>
      <trkpt lat="46.48101" lon="5.2437">
        <ele>225.6</ele>
        <time>2022-03-24T14:50:02Z</time>
      </trkpt>
      <trkpt lat="46.48083" lon="5.24388">
        <ele>226.2</ele>
        <time>2022-03-24T14:50:07Z</time>
      </trkpt>
      <trkpt lat="46.48078" lon="5.24392">
        <ele>226.4</ele>
        <time>2022-03-24T14:50:08Z</time>
      </trkpt>
      <trkpt lat="46.48072" lon="5.24397">
        <ele>226.4</ele>
        <time>2022-03-24T14:50:09Z</time>
      </trkpt>
      <trkpt lat="46.48059" lon="5.24407">
        <ele>227</ele>
        <time>2022-03-24T14:50:12Z</time>
      </trkpt>
      <trkpt lat="46.48024" lon="5.24429">
        <ele>227.2</ele>
        <time>2022-03-24T14:50:19Z</time>
      </trkpt>
      <trkpt lat="46.47973" lon="5.24464">
        <ele>227.4</ele>
        <time>2022-03-24T14:50:28Z</time>
      </trkpt>
      <trkpt lat="46.4794" lon="5.24486">
        <ele>227.6</ele>
        <time>2022-03-24T14:50:34Z</time>
      </trkpt>
      <trkpt lat="46.47924" lon="5.24495">
        <ele>227.8</ele>
        <time>2022-03-24T14:50:37Z</time>
      </trkpt>
      <trkpt lat="46.47917" lon="5.24497">
        <ele>227.8</ele>
        <time>2022-03-24T14:50:38Z</time>
      </trkpt>
      <trkpt lat="46.47889" lon="5.24501">
        <ele>228.6</ele>
        <time>2022-03-24T14:50:43Z</time>
      </trkpt>
      <trkpt lat="46.47876" lon="5.245">
        <ele>228.8</ele>
        <time>2022-03-24T14:50:45Z</time>
      </trkpt>
      <trkpt lat="46.47832" lon="5.24497">
        <ele>229</ele>
        <time>2022-03-24T14:50:51Z</time>
      </trkpt>
      <trkpt lat="46.47788" lon="5.24499">
        <ele>228.4</ele>
        <time>2022-03-24T14:50:57Z</time>
      </trkpt>
      <trkpt lat="46.47733" lon="5.24511">
        <ele>227.6</ele>
        <time>2022-03-24T14:51:04Z</time>
      </trkpt>
      <trkpt lat="46.47688" lon="5.24527">
        <ele>227</ele>
        <time>2022-03-24T14:51:10Z</time>
      </trkpt>
      <trkpt lat="46.47638" lon="5.24554">
        <ele>227.2</ele>
        <time>2022-03-24T14:51:17Z</time>
      </trkpt>
      <trkpt lat="46.47586" lon="5.24584">
        <ele>227</ele>
        <time>2022-03-24T14:51:24Z</time>
      </trkpt>
      <trkpt lat="46.47558" lon="5.246">
        <ele>226.8</ele>
        <time>2022-03-24T14:51:28Z</time>
      </trkpt>
      <trkpt lat="46.47549" lon="5.24605">
        <ele>226.6</ele>
        <time>2022-03-24T14:51:29Z</time>
      </trkpt>
      <trkpt lat="46.47495" lon="5.24632">
        <ele>225.6</ele>
        <time>2022-03-24T14:51:36Z</time>
      </trkpt>
      <trkpt lat="46.47448" lon="5.2464">
        <ele>225.4</ele>
        <time>2022-03-24T14:51:42Z</time>
      </trkpt>
      <trkpt lat="46.47394" lon="5.24645">
        <ele>225.2</ele>
        <time>2022-03-24T14:51:49Z</time>
      </trkpt>
      <trkpt lat="46.47368" lon="5.24647">
        <ele>225</ele>
        <time>2022-03-24T14:51:52Z</time>
      </trkpt>
      <trkpt lat="46.47345" lon="5.24649">
        <ele>224.4</ele>
        <time>2022-03-24T14:51:55Z</time>
      </trkpt>
      <trkpt lat="46.47304" lon="5.24652">
        <ele>224</ele>
        <time>2022-03-24T14:52:00Z</time>
      </trkpt>
      <trkpt lat="46.47269" lon="5.24654">
        <ele>223.2</ele>
        <time>2022-03-24T14:52:04Z</time>
      </trkpt>
      <trkpt lat="46.47249" lon="5.24653">
        <ele>222.6</ele>
        <time>2022-03-24T14:52:06Z</time>
      </trkpt>
      <trkpt lat="46.47233" lon="5.24652">
        <ele>222</ele>
        <time>2022-03-24T14:52:08Z</time>
      </trkpt>
      <trkpt lat="46.47206" lon="5.24651">
        <ele>221</ele>
        <time>2022-03-24T14:52:11Z</time>
      </trkpt>
      <trkpt lat="46.47179" lon="5.24649">
        <ele>220.2</ele>
        <time>2022-03-24T14:52:14Z</time>
      </trkpt>
      <trkpt lat="46.47168" lon="5.24647">
        <ele>219.8</ele>
        <time>2022-03-24T14:52:15Z</time>
      </trkpt>
      <trkpt lat="46.47141" lon="5.24638">
        <ele>219.2</ele>
        <time>2022-03-24T14:52:18Z</time>
      </trkpt>
      <trkpt lat="46.47132" lon="5.24634">
        <ele>219</ele>
        <time>2022-03-24T14:52:19Z</time>
      </trkpt>
      <trkpt lat="46.47116" lon="5.24627">
        <ele>218.8</ele>
        <time>2022-03-24T14:52:21Z</time>
      </trkpt>
      <trkpt lat="46.47107" lon="5.24628">
        <ele>218.4</ele>
        <time>2022-03-24T14:52:22Z</time>
      </trkpt>
      <trkpt lat="46.47099" lon="5.24633">
        <ele>218</ele>
        <time>2022-03-24T14:52:23Z</time>
      </trkpt>
      <trkpt lat="46.47093" lon="5.2464">
        <ele>217.4</ele>
        <time>2022-03-24T14:52:24Z</time>
      </trkpt>
      <trkpt lat="46.47088" lon="5.2465">
        <ele>216.8</ele>
        <time>2022-03-24T14:52:25Z</time>
      </trkpt>
      <trkpt lat="46.47081" lon="5.24673">
        <ele>216.2</ele>
        <time>2022-03-24T14:52:27Z</time>
      </trkpt>
      <trkpt lat="46.47068" lon="5.24708">
        <ele>215.8</ele>
        <time>2022-03-24T14:52:30Z</time>
      </trkpt>
      <trkpt lat="46.47059" lon="5.24727">
        <ele>215.2</ele>
        <time>2022-03-24T14:52:32Z</time>
      </trkpt>
      <trkpt lat="46.47052" lon="5.2474">
        <ele>215</ele>
        <time>2022-03-24T14:52:33Z</time>
      </trkpt>
      <trkpt lat="46.47033" lon="5.24768">
        <ele>214.4</ele>
        <time>2022-03-24T14:52:36Z</time>
      </trkpt>
      <trkpt lat="46.47023" lon="5.24779">
        <ele>214.4</ele>
        <time>2022-03-24T14:52:37Z</time>
      </trkpt>
      <trkpt lat="46.46998" lon="5.24804">
        <ele>213.8</ele>
        <time>2022-03-24T14:52:40Z</time>
      </trkpt>
      <trkpt lat="46.46988" lon="5.24813">
        <ele>213</ele>
        <time>2022-03-24T14:52:41Z</time>
      </trkpt>
      <trkpt lat="46.4695" lon="5.24846">
        <ele>211.4</ele>
        <time>2022-03-24T14:52:45Z</time>
      </trkpt>
      <trkpt lat="46.46922" lon="5.24869">
        <ele>210.6</ele>
        <time>2022-03-24T14:52:48Z</time>
      </trkpt>
      <trkpt lat="46.46887" lon="5.24898">
        <ele>210.6</ele>
        <time>2022-03-24T14:52:53Z</time>
      </trkpt>
      <trkpt lat="46.46846" lon="5.24932">
        <ele>211.6</ele>
        <time>2022-03-24T14:52:59Z</time>
      </trkpt>
      <trkpt lat="46.46816" lon="5.24958">
        <ele>212.4</ele>
        <time>2022-03-24T14:53:04Z</time>
      </trkpt>
      <trkpt lat="46.46806" lon="5.24967">
        <ele>212.8</ele>
        <time>2022-03-24T14:53:06Z</time>
      </trkpt>
      <trkpt lat="46.46796" lon="5.24976">
        <ele>213</ele>
        <time>2022-03-24T14:53:08Z</time>
      </trkpt>
      <trkpt lat="46.46776" lon="5.24993">
        <ele>213.8</ele>
        <time>2022-03-24T14:53:12Z</time>
      </trkpt>
      <trkpt lat="46.46771" lon="5.24996">
        <ele>214</ele>
        <time>2022-03-24T14:53:13Z</time>
      </trkpt>
      <trkpt lat="46.46746" lon="5.25016">
        <ele>215</ele>
        <time>2022-03-24T14:53:18Z</time>
      </trkpt>
      <trkpt lat="46.46716" lon="5.25039">
        <ele>215.4</ele>
        <time>2022-03-24T14:53:23Z</time>
      </trkpt>
      <trkpt lat="46.46701" lon="5.2505">
        <ele>215.4</ele>
        <time>2022-03-24T14:53:25Z</time>
      </trkpt>
      <trkpt lat="46.46657" lon="5.25086">
        <ele>215.6</ele>
        <time>2022-03-24T14:53:32Z</time>
      </trkpt>
      <trkpt lat="46.46641" lon="5.251">
        <ele>215.6</ele>
        <time>2022-03-24T14:53:36Z</time>
      </trkpt>
      <trkpt lat="46.46627" lon="5.25113">
        <ele>216.2</ele>
        <time>2022-03-24T14:53:39Z</time>
      </trkpt>
      <trkpt lat="46.46617" lon="5.25122">
        <ele>216.4</ele>
        <time>2022-03-24T14:53:41Z</time>
      </trkpt>
      <trkpt lat="46.46597" lon="5.25138">
        <ele>217</ele>
        <time>2022-03-24T14:53:46Z</time>
      </trkpt>
      <trkpt lat="46.46585" lon="5.25147">
        <ele>217.2</ele>
        <time>2022-03-24T14:53:48Z</time>
      </trkpt>
      <trkpt lat="46.46562" lon="5.25166">
        <ele>217.4</ele>
        <time>2022-03-24T14:53:52Z</time>
      </trkpt>
      <trkpt lat="46.46551" lon="5.25174">
        <ele>217.6</ele>
        <time>2022-03-24T14:53:54Z</time>
      </trkpt>
      <trkpt lat="46.46535" lon="5.25187">
        <ele>217.6</ele>
        <time>2022-03-24T14:53:57Z</time>
      </trkpt>
      <trkpt lat="46.46531" lon="5.25191">
        <ele>217.6</ele>
        <time>2022-03-24T14:53:58Z</time>
      </trkpt>
      <trkpt lat="46.46527" lon="5.25195">
        <ele>217.6</ele>
        <time>2022-03-24T14:53:59Z</time>
      </trkpt>
      <trkpt lat="46.46516" lon="5.25203">
        <ele>217.6</ele>
        <time>2022-03-24T14:54:01Z</time>
      </trkpt>
      <trkpt lat="46.46507" lon="5.25211">
        <ele>217.6</ele>
        <time>2022-03-24T14:54:03Z</time>
      </trkpt>
      <trkpt lat="46.46487" lon="5.25225">
        <ele>218</ele>
        <time>2022-03-24T14:54:07Z</time>
      </trkpt>
      <trkpt lat="46.46481" lon="5.25229">
        <ele>218.2</ele>
        <time>2022-03-24T14:54:08Z</time>
      </trkpt>
      <trkpt lat="46.46473" lon="5.25234">
        <ele>218.4</ele>
        <time>2022-03-24T14:54:10Z</time>
      </trkpt>
      <trkpt lat="46.4645" lon="5.25253">
        <ele>219.2</ele>
        <time>2022-03-24T14:54:15Z</time>
      </trkpt>
      <trkpt lat="46.46433" lon="5.25269">
        <ele>219.6</ele>
        <time>2022-03-24T14:54:19Z</time>
      </trkpt>
      <trkpt lat="46.46408" lon="5.25289">
        <ele>220.4</ele>
        <time>2022-03-24T14:54:25Z</time>
      </trkpt>
      <trkpt lat="46.46397" lon="5.25301">
        <ele>220.8</ele>
        <time>2022-03-24T14:54:28Z</time>
      </trkpt>
      <trkpt lat="46.46382" lon="5.2532">
        <ele>221.4</ele>
        <time>2022-03-24T14:54:32Z</time>
      </trkpt>
      <trkpt lat="46.46368" lon="5.25342">
        <ele>222</ele>
        <time>2022-03-24T14:54:36Z</time>
      </trkpt>
      <trkpt lat="46.46355" lon="5.25364">
        <ele>222.6</ele>
        <time>2022-03-24T14:54:40Z</time>
      </trkpt>
      <trkpt lat="46.46339" lon="5.25392">
        <ele>223.2</ele>
        <time>2022-03-24T14:54:45Z</time>
      </trkpt>
      <trkpt lat="46.46312" lon="5.25439">
        <ele>223.6</ele>
        <time>2022-03-24T14:54:53Z</time>
      </trkpt>
      <trkpt lat="46.46275" lon="5.25502">
        <ele>224.6</ele>
        <time>2022-03-24T14:55:04Z</time>
      </trkpt>
      <trkpt lat="46.46271" lon="5.25509">
        <ele>224.6</ele>
        <time>2022-03-24T14:55:05Z</time>
      </trkpt>
      <trkpt lat="46.46268" lon="5.25514">
        <ele>224.6</ele>
        <time>2022-03-24T14:55:06Z</time>
      </trkpt>
      <trkpt lat="46.46249" lon="5.2556">
        <ele>225.4</ele>
        <time>2022-03-24T14:55:13Z</time>
      </trkpt>
      <trkpt lat="46.46243" lon="5.25582">
        <ele>225.6</ele>
        <time>2022-03-24T14:55:16Z</time>
      </trkpt>
      <trkpt lat="46.46232" lon="5.25626">
        <ele>226.4</ele>
        <time>2022-03-24T14:55:22Z</time>
      </trkpt>
      <trkpt lat="46.46224" lon="5.25678">
        <ele>226.6</ele>
        <time>2022-03-24T14:55:28Z</time>
      </trkpt>
      <trkpt lat="46.46225" lon="5.25711">
        <ele>226.6</ele>
        <time>2022-03-24T14:55:31Z</time>
      </trkpt>
      <trkpt lat="46.46226" lon="5.25722">
        <ele>226.4</ele>
        <time>2022-03-24T14:55:32Z</time>
      </trkpt>
      <trkpt lat="46.46239" lon="5.25789">
        <ele>224.6</ele>
        <time>2022-03-24T14:55:38Z</time>
      </trkpt>
      <trkpt lat="46.46241" lon="5.258">
        <ele>224.6</ele>
        <time>2022-03-24T14:55:39Z</time>
      </trkpt>
      <trkpt lat="46.46249" lon="5.25844">
        <ele>224.4</ele>
        <time>2022-03-24T14:55:44Z</time>
      </trkpt>
      <trkpt lat="46.46249" lon="5.25866">
        <ele>224.6</ele>
        <time>2022-03-24T14:55:47Z</time>
      </trkpt>
      <trkpt lat="46.46247" lon="5.25879">
        <ele>225.2</ele>
        <time>2022-03-24T14:55:49Z</time>
      </trkpt>
      <trkpt lat="46.46246" lon="5.25885">
        <ele>225.4</ele>
        <time>2022-03-24T14:55:50Z</time>
      </trkpt>
      <trkpt lat="46.46241" lon="5.25902">
        <ele>226</ele>
        <time>2022-03-24T14:55:53Z</time>
      </trkpt>
      <trkpt lat="46.46236" lon="5.25913">
        <ele>226.8</ele>
        <time>2022-03-24T14:55:55Z</time>
      </trkpt>
      <trkpt lat="46.46231" lon="5.25926">
        <ele>227.4</ele>
        <time>2022-03-24T14:55:57Z</time>
      </trkpt>
      <trkpt lat="46.46225" lon="5.25947">
        <ele>228.6</ele>
        <time>2022-03-24T14:56:01Z</time>
      </trkpt>
      <trkpt lat="46.4622" lon="5.25963">
        <ele>229.4</ele>
        <time>2022-03-24T14:56:04Z</time>
      </trkpt>
      <trkpt lat="46.46219" lon="5.25968">
        <ele>229.8</ele>
        <time>2022-03-24T14:56:05Z</time>
      </trkpt>
      <trkpt lat="46.46212" lon="5.25992">
        <ele>230.8</ele>
        <time>2022-03-24T14:56:09Z</time>
      </trkpt>
      <trkpt lat="46.46205" lon="5.26021">
        <ele>232</ele>
        <time>2022-03-24T14:56:14Z</time>
      </trkpt>
      <trkpt lat="46.46201" lon="5.2606">
        <ele>233.4</ele>
        <time>2022-03-24T14:56:20Z</time>
      </trkpt>
      <trkpt lat="46.46201" lon="5.26074">
        <ele>233.6</ele>
        <time>2022-03-24T14:56:22Z</time>
      </trkpt>
      <trkpt lat="46.46195" lon="5.26135">
        <ele>233.8</ele>
        <time>2022-03-24T14:56:30Z</time>
      </trkpt>
      <trkpt lat="46.46189" lon="5.26209">
        <ele>233</ele>
        <time>2022-03-24T14:56:38Z</time>
      </trkpt>
      <trkpt lat="46.46184" lon="5.26273">
        <ele>232.4</ele>
        <time>2022-03-24T14:56:44Z</time>
      </trkpt>
      <trkpt lat="46.46181" lon="5.26298">
        <ele>232.2</ele>
        <time>2022-03-24T14:56:46Z</time>
      </trkpt>
      <trkpt lat="46.46177" lon="5.2635">
        <ele>230.6</ele>
        <time>2022-03-24T14:56:50Z</time>
      </trkpt>
      <trkpt lat="46.46173" lon="5.26396">
        <ele>229.4</ele>
        <time>2022-03-24T14:56:53Z</time>
      </trkpt>
      <trkpt lat="46.46168" lon="5.26439">
        <ele>228</ele>
        <time>2022-03-24T14:56:56Z</time>
      </trkpt>
      <trkpt lat="46.46167" lon="5.26454">
        <ele>227.4</ele>
        <time>2022-03-24T14:56:57Z</time>
      </trkpt>
      <trkpt lat="46.46166" lon="5.2647">
        <ele>226.6</ele>
        <time>2022-03-24T14:56:58Z</time>
      </trkpt>
      <trkpt lat="46.46161" lon="5.26517">
        <ele>225.2</ele>
        <time>2022-03-24T14:57:01Z</time>
      </trkpt>
      <trkpt lat="46.46157" lon="5.26563">
        <ele>223.8</ele>
        <time>2022-03-24T14:57:04Z</time>
      </trkpt>
      <trkpt lat="46.46155" lon="5.26579">
        <ele>222.8</ele>
        <time>2022-03-24T14:57:05Z</time>
      </trkpt>
      <trkpt lat="46.46154" lon="5.26594">
        <ele>222.6</ele>
        <time>2022-03-24T14:57:06Z</time>
      </trkpt>
      <trkpt lat="46.46151" lon="5.26626">
        <ele>221.4</ele>
        <time>2022-03-24T14:57:08Z</time>
      </trkpt>
      <trkpt lat="46.4615" lon="5.26658">
        <ele>220.2</ele>
        <time>2022-03-24T14:57:10Z</time>
      </trkpt>
      <trkpt lat="46.46148" lon="5.2669">
        <ele>218.8</ele>
        <time>2022-03-24T14:57:12Z</time>
      </trkpt>
      <trkpt lat="46.46147" lon="5.26721">
        <ele>217.4</ele>
        <time>2022-03-24T14:57:14Z</time>
      </trkpt>
      <trkpt lat="46.46145" lon="5.26752">
        <ele>216.4</ele>
        <time>2022-03-24T14:57:16Z</time>
      </trkpt>
      <trkpt lat="46.46145" lon="5.26783">
        <ele>215</ele>
        <time>2022-03-24T14:57:18Z</time>
      </trkpt>
      <trkpt lat="46.46144" lon="5.26813">
        <ele>213.8</ele>
        <time>2022-03-24T14:57:20Z</time>
      </trkpt>
      <trkpt lat="46.46143" lon="5.26859">
        <ele>212.8</ele>
        <time>2022-03-24T14:57:23Z</time>
      </trkpt>
      <trkpt lat="46.46141" lon="5.26918">
        <ele>211.4</ele>
        <time>2022-03-24T14:57:27Z</time>
      </trkpt>
      <trkpt lat="46.46141" lon="5.26932">
        <ele>211.2</ele>
        <time>2022-03-24T14:57:28Z</time>
      </trkpt>
      <trkpt lat="46.46139" lon="5.26997">
        <ele>210.8</ele>
        <time>2022-03-24T14:57:33Z</time>
      </trkpt>
      <trkpt lat="46.46137" lon="5.27081">
        <ele>210.6</ele>
        <time>2022-03-24T14:57:40Z</time>
      </trkpt>
      <trkpt lat="46.46135" lon="5.27162">
        <ele>210.6</ele>
        <time>2022-03-24T14:57:47Z</time>
      </trkpt>
      <trkpt lat="46.46132" lon="5.27248">
        <ele>210</ele>
        <time>2022-03-24T14:57:54Z</time>
      </trkpt>
      <trkpt lat="46.46132" lon="5.2726">
        <ele>209.4</ele>
        <time>2022-03-24T14:57:55Z</time>
      </trkpt>
      <trkpt lat="46.46131" lon="5.27284">
        <ele>209.2</ele>
        <time>2022-03-24T14:57:57Z</time>
      </trkpt>
      <trkpt lat="46.4613" lon="5.27342">
        <ele>209</ele>
        <time>2022-03-24T14:58:02Z</time>
      </trkpt>
      <trkpt lat="46.46127" lon="5.2743">
        <ele>208.8</ele>
        <time>2022-03-24T14:58:10Z</time>
      </trkpt>
      <trkpt lat="46.46125" lon="5.27517">
        <ele>208.6</ele>
        <time>2022-03-24T14:58:18Z</time>
      </trkpt>
      <trkpt lat="46.46125" lon="5.27527">
        <ele>208.6</ele>
        <time>2022-03-24T14:58:19Z</time>
      </trkpt>
      <trkpt lat="46.46123" lon="5.27602">
        <ele>208.6</ele>
        <time>2022-03-24T14:58:26Z</time>
      </trkpt>
      <trkpt lat="46.46121" lon="5.27685">
        <ele>208.6</ele>
        <time>2022-03-24T14:58:34Z</time>
      </trkpt>
      <trkpt lat="46.4612" lon="5.27695">
        <ele>208.6</ele>
        <time>2022-03-24T14:58:35Z</time>
      </trkpt>
      <trkpt lat="46.46119" lon="5.27751">
        <ele>209.4</ele>
        <time>2022-03-24T14:58:41Z</time>
      </trkpt>
      <trkpt lat="46.46118" lon="5.27811">
        <ele>210.6</ele>
        <time>2022-03-24T14:58:49Z</time>
      </trkpt>
      <trkpt lat="46.46118" lon="5.27819">
        <ele>210.8</ele>
        <time>2022-03-24T14:58:50Z</time>
      </trkpt>
      <trkpt lat="46.46119" lon="5.27861">
        <ele>212</ele>
        <time>2022-03-24T14:58:56Z</time>
      </trkpt>
      <trkpt lat="46.46119" lon="5.27867">
        <ele>212</ele>
        <time>2022-03-24T14:58:57Z</time>
      </trkpt>
      <trkpt lat="46.4612" lon="5.27879">
        <ele>212.6</ele>
        <time>2022-03-24T14:58:59Z</time>
      </trkpt>
      <trkpt lat="46.4612" lon="5.27897">
        <ele>213</ele>
        <time>2022-03-24T14:59:02Z</time>
      </trkpt>
      <trkpt lat="46.46121" lon="5.27923">
        <ele>214</ele>
        <time>2022-03-24T14:59:07Z</time>
      </trkpt>
      <trkpt lat="46.46122" lon="5.2793">
        <ele>214.2</ele>
        <time>2022-03-24T14:59:08Z</time>
      </trkpt>
      <trkpt lat="46.46126" lon="5.27947">
        <ele>215.2</ele>
        <time>2022-03-24T14:59:12Z</time>
      </trkpt>
      <trkpt lat="46.46129" lon="5.27956">
        <ele>215.8</ele>
        <time>2022-03-24T14:59:14Z</time>
      </trkpt>
      <trkpt lat="46.46134" lon="5.27964">
        <ele>216.4</ele>
        <time>2022-03-24T14:59:16Z</time>
      </trkpt>
      <trkpt lat="46.46142" lon="5.27973">
        <ele>217.4</ele>
        <time>2022-03-24T14:59:19Z</time>
      </trkpt>
      <trkpt lat="46.46145" lon="5.27975">
        <ele>217.6</ele>
        <time>2022-03-24T14:59:20Z</time>
      </trkpt>
      <trkpt lat="46.46154" lon="5.27981">
        <ele>218.8</ele>
        <time>2022-03-24T14:59:23Z</time>
      </trkpt>
      <trkpt lat="46.46159" lon="5.27985">
        <ele>219.4</ele>
        <time>2022-03-24T14:59:25Z</time>
      </trkpt>
      <trkpt lat="46.46165" lon="5.2799">
        <ele>220</ele>
        <time>2022-03-24T14:59:27Z</time>
      </trkpt>
      <trkpt lat="46.46174" lon="5.27997">
        <ele>221.2</ele>
        <time>2022-03-24T14:59:30Z</time>
      </trkpt>
      <trkpt lat="46.46186" lon="5.28006">
        <ele>222.4</ele>
        <time>2022-03-24T14:59:34Z</time>
      </trkpt>
      <trkpt lat="46.46188" lon="5.28011">
        <ele>222.6</ele>
        <time>2022-03-24T14:59:35Z</time>
      </trkpt>
      <trkpt lat="46.46189" lon="5.28021">
        <ele>223.2</ele>
        <time>2022-03-24T14:59:37Z</time>
      </trkpt>
      <trkpt lat="46.46188" lon="5.28033">
        <ele>223.6</ele>
        <time>2022-03-24T14:59:39Z</time>
      </trkpt>
      <trkpt lat="46.46187" lon="5.28054">
        <ele>224</ele>
        <time>2022-03-24T14:59:42Z</time>
      </trkpt>
      <trkpt lat="46.46184" lon="5.28092">
        <ele>224</ele>
        <time>2022-03-24T14:59:47Z</time>
      </trkpt>
      <trkpt lat="46.46185" lon="5.28099">
        <ele>223.8</ele>
        <time>2022-03-24T14:59:48Z</time>
      </trkpt>
      <trkpt lat="46.46187" lon="5.28104">
        <ele>223.8</ele>
        <time>2022-03-24T14:59:49Z</time>
      </trkpt>
      <trkpt lat="46.46195" lon="5.2811">
        <ele>223.8</ele>
        <time>2022-03-24T14:59:51Z</time>
      </trkpt>
      <trkpt lat="46.46205" lon="5.28111">
        <ele>223.6</ele>
        <time>2022-03-24T14:59:53Z</time>
      </trkpt>
      <trkpt lat="46.46214" lon="5.28108">
        <ele>223.8</ele>
        <time>2022-03-24T14:59:55Z</time>
      </trkpt>
      <trkpt lat="46.46223" lon="5.28104">
        <ele>223.8</ele>
        <time>2022-03-24T14:59:57Z</time>
      </trkpt>
      <trkpt lat="46.46234" lon="5.28104">
        <ele>224.2</ele>
        <time>2022-03-24T15:00:00Z</time>
      </trkpt>
      <trkpt lat="46.46246" lon="5.28107">
        <ele>224.6</ele>
        <time>2022-03-24T15:00:03Z</time>
      </trkpt>
      <trkpt lat="46.46257" lon="5.28111">
        <ele>225.8</ele>
        <time>2022-03-24T15:00:06Z</time>
      </trkpt>
      <trkpt lat="46.46264" lon="5.28114">
        <ele>226.4</ele>
        <time>2022-03-24T15:00:08Z</time>
      </trkpt>
      <trkpt lat="46.4627" lon="5.28118">
        <ele>227</ele>
        <time>2022-03-24T15:00:10Z</time>
      </trkpt>
      <trkpt lat="46.46282" lon="5.28126">
        <ele>228.2</ele>
        <time>2022-03-24T15:00:14Z</time>
      </trkpt>
      <trkpt lat="46.46289" lon="5.2813">
        <ele>228.6</ele>
        <time>2022-03-24T15:00:16Z</time>
      </trkpt>
      <trkpt lat="46.46298" lon="5.28137">
        <ele>229.2</ele>
        <time>2022-03-24T15:00:19Z</time>
      </trkpt>
      <trkpt lat="46.46313" lon="5.28148">
        <ele>230.4</ele>
        <time>2022-03-24T15:00:24Z</time>
      </trkpt>
      <trkpt lat="46.46324" lon="5.28159">
        <ele>231.6</ele>
        <time>2022-03-24T15:00:28Z</time>
      </trkpt>
      <trkpt lat="46.46334" lon="5.28168">
        <ele>232.6</ele>
        <time>2022-03-24T15:00:32Z</time>
      </trkpt>
      <trkpt lat="46.46349" lon="5.2818">
        <ele>233.8</ele>
        <time>2022-03-24T15:00:37Z</time>
      </trkpt>
      <trkpt lat="46.46364" lon="5.28187">
        <ele>234.6</ele>
        <time>2022-03-24T15:00:41Z</time>
      </trkpt>
      <trkpt lat="46.46371" lon="5.2819">
        <ele>234.8</ele>
        <time>2022-03-24T15:00:43Z</time>
      </trkpt>
      <trkpt lat="46.4639" lon="5.28198">
        <ele>235.8</ele>
        <time>2022-03-24T15:00:48Z</time>
      </trkpt>
      <trkpt lat="46.46399" lon="5.28201">
        <ele>236</ele>
        <time>2022-03-24T15:00:50Z</time>
      </trkpt>
      <trkpt lat="46.46427" lon="5.28212">
        <ele>236.8</ele>
        <time>2022-03-24T15:00:56Z</time>
      </trkpt>
      <trkpt lat="46.46433" lon="5.28215">
        <ele>237</ele>
        <time>2022-03-24T15:00:57Z</time>
      </trkpt>
      <trkpt lat="46.46477" lon="5.28231">
        <ele>237.4</ele>
        <time>2022-03-24T15:01:05Z</time>
      </trkpt>
      <trkpt lat="46.46519" lon="5.2824">
        <ele>237.2</ele>
        <time>2022-03-24T15:01:12Z</time>
      </trkpt>
      <trkpt lat="46.46574" lon="5.28244">
        <ele>237.2</ele>
        <time>2022-03-24T15:01:21Z</time>
      </trkpt>
      <trkpt lat="46.4658" lon="5.28245">
        <ele>237.2</ele>
        <time>2022-03-24T15:01:22Z</time>
      </trkpt>
      <trkpt lat="46.46637" lon="5.28252">
        <ele>237.4</ele>
        <time>2022-03-24T15:01:31Z</time>
      </trkpt>
      <trkpt lat="46.46644" lon="5.28254">
        <ele>237.4</ele>
        <time>2022-03-24T15:01:32Z</time>
      </trkpt>
      <trkpt lat="46.46684" lon="5.28269">
        <ele>237.2</ele>
        <time>2022-03-24T15:01:38Z</time>
      </trkpt>
      <trkpt lat="46.4673" lon="5.28295">
        <ele>236.8</ele>
        <time>2022-03-24T15:01:45Z</time>
      </trkpt>
      <trkpt lat="46.46741" lon="5.28302">
        <ele>236.8</ele>
        <time>2022-03-24T15:01:47Z</time>
      </trkpt>
      <trkpt lat="46.46758" lon="5.28312">
        <ele>236.8</ele>
        <time>2022-03-24T15:01:50Z</time>
      </trkpt>
      <trkpt lat="46.46764" lon="5.28315">
        <ele>236.8</ele>
        <time>2022-03-24T15:01:51Z</time>
      </trkpt>
      <trkpt lat="46.46771" lon="5.28326">
        <ele>236.8</ele>
        <time>2022-03-24T15:01:53Z</time>
      </trkpt>
      <trkpt lat="46.46768" lon="5.28338">
        <ele>236.8</ele>
        <time>2022-03-24T15:01:55Z</time>
      </trkpt>
      <trkpt lat="46.46758" lon="5.28343">
        <ele>236.8</ele>
        <time>2022-03-24T15:01:57Z</time>
      </trkpt>
      <trkpt lat="46.46752" lon="5.28343">
        <ele>236.8</ele>
        <time>2022-03-24T15:01:58Z</time>
      </trkpt>
      <trkpt lat="46.46747" lon="5.28344">
        <ele>236.8</ele>
        <time>2022-03-24T15:01:59Z</time>
      </trkpt>
      <trkpt lat="46.46736" lon="5.28353">
        <ele>236.8</ele>
        <time>2022-03-24T15:02:01Z</time>
      </trkpt>
      <trkpt lat="46.46729" lon="5.28369">
        <ele>236.8</ele>
        <time>2022-03-24T15:02:03Z</time>
      </trkpt>
      <trkpt lat="46.46727" lon="5.28378">
        <ele>236.8</ele>
        <time>2022-03-24T15:02:04Z</time>
      </trkpt>
      <trkpt lat="46.46706" lon="5.2846">
        <ele>236.8</ele>
        <time>2022-03-24T15:02:13Z</time>
      </trkpt>
      <trkpt lat="46.46701" lon="5.2848">
        <ele>237</ele>
        <time>2022-03-24T15:02:15Z</time>
      </trkpt>
      <trkpt lat="46.46697" lon="5.28499">
        <ele>237</ele>
        <time>2022-03-24T15:02:17Z</time>
      </trkpt>
      <trkpt lat="46.46694" lon="5.28509">
        <ele>237</ele>
        <time>2022-03-24T15:02:18Z</time>
      </trkpt>
      <trkpt lat="46.46675" lon="5.28585">
        <ele>236.8</ele>
        <time>2022-03-24T15:02:26Z</time>
      </trkpt>
      <trkpt lat="46.46669" lon="5.28611">
        <ele>237</ele>
        <time>2022-03-24T15:02:29Z</time>
      </trkpt>
      <trkpt lat="46.46651" lon="5.2869">
        <ele>237.6</ele>
        <time>2022-03-24T15:02:38Z</time>
      </trkpt>
      <trkpt lat="46.46649" lon="5.28699">
        <ele>237.4</ele>
        <time>2022-03-24T15:02:39Z</time>
      </trkpt>
      <trkpt lat="46.46633" lon="5.2877">
        <ele>237.2</ele>
        <time>2022-03-24T15:02:47Z</time>
      </trkpt>
      <trkpt lat="46.46625" lon="5.28794">
        <ele>237.4</ele>
        <time>2022-03-24T15:02:50Z</time>
      </trkpt>
      <trkpt lat="46.46619" lon="5.28809">
        <ele>237.4</ele>
        <time>2022-03-24T15:02:52Z</time>
      </trkpt>
      <trkpt lat="46.46615" lon="5.28816">
        <ele>237.8</ele>
        <time>2022-03-24T15:02:53Z</time>
      </trkpt>
      <trkpt lat="46.46591" lon="5.28858">
        <ele>238.4</ele>
        <time>2022-03-24T15:02:59Z</time>
      </trkpt>
      <trkpt lat="46.46582" lon="5.28871">
        <ele>238.4</ele>
        <time>2022-03-24T15:03:01Z</time>
      </trkpt>
      <trkpt lat="46.46567" lon="5.28898">
        <ele>238.6</ele>
        <time>2022-03-24T15:03:05Z</time>
      </trkpt>
      <trkpt lat="46.46552" lon="5.28922">
        <ele>239</ele>
        <time>2022-03-24T15:03:09Z</time>
      </trkpt>
      <trkpt lat="46.46537" lon="5.28946">
        <ele>239.2</ele>
        <time>2022-03-24T15:03:13Z</time>
      </trkpt>
      <trkpt lat="46.46505" lon="5.28996">
        <ele>239</ele>
        <time>2022-03-24T15:03:21Z</time>
      </trkpt>
      <trkpt lat="46.46469" lon="5.29052">
        <ele>238.6</ele>
        <time>2022-03-24T15:03:30Z</time>
      </trkpt>
      <trkpt lat="46.46466" lon="5.29055">
        <ele>238.6</ele>
        <time>2022-03-24T15:03:31Z</time>
      </trkpt>
      <trkpt lat="46.46461" lon="5.29071">
        <ele>238.4</ele>
        <time>2022-03-24T15:03:34Z</time>
      </trkpt>
      <trkpt lat="46.46467" lon="5.29102">
        <ele>238.4</ele>
        <time>2022-03-24T15:03:38Z</time>
      </trkpt>
      <trkpt lat="46.4648" lon="5.29164">
        <ele>238.6</ele>
        <time>2022-03-24T15:03:45Z</time>
      </trkpt>
      <trkpt lat="46.46495" lon="5.29235">
        <ele>239</ele>
        <time>2022-03-24T15:03:52Z</time>
      </trkpt>
      <trkpt lat="46.46511" lon="5.2931">
        <ele>238</ele>
        <time>2022-03-24T15:03:59Z</time>
      </trkpt>
      <trkpt lat="46.46513" lon="5.29321">
        <ele>237.8</ele>
        <time>2022-03-24T15:04:00Z</time>
      </trkpt>
      <trkpt lat="46.46526" lon="5.29386">
        <ele>237.2</ele>
        <time>2022-03-24T15:04:06Z</time>
      </trkpt>
      <trkpt lat="46.46536" lon="5.29438">
        <ele>237</ele>
        <time>2022-03-24T15:04:11Z</time>
      </trkpt>
      <trkpt lat="46.46554" lon="5.29512">
        <ele>236.8</ele>
        <time>2022-03-24T15:04:18Z</time>
      </trkpt>
      <trkpt lat="46.4656" lon="5.29534">
        <ele>236.6</ele>
        <time>2022-03-24T15:04:20Z</time>
      </trkpt>
      <trkpt lat="46.46563" lon="5.29545">
        <ele>236.4</ele>
        <time>2022-03-24T15:04:21Z</time>
      </trkpt>
      <trkpt lat="46.46572" lon="5.29585">
        <ele>236.4</ele>
        <time>2022-03-24T15:04:25Z</time>
      </trkpt>
      <trkpt lat="46.4659" lon="5.29649">
        <ele>237.2</ele>
        <time>2022-03-24T15:04:32Z</time>
      </trkpt>
      <trkpt lat="46.46599" lon="5.29687">
        <ele>237.8</ele>
        <time>2022-03-24T15:04:36Z</time>
      </trkpt>
      <trkpt lat="46.46608" lon="5.29715">
        <ele>238.2</ele>
        <time>2022-03-24T15:04:39Z</time>
      </trkpt>
      <trkpt lat="46.46622" lon="5.29769">
        <ele>239</ele>
        <time>2022-03-24T15:04:45Z</time>
      </trkpt>
      <trkpt lat="46.46626" lon="5.29785">
        <ele>239.4</ele>
        <time>2022-03-24T15:04:47Z</time>
      </trkpt>
      <trkpt lat="46.46631" lon="5.29801">
        <ele>239.6</ele>
        <time>2022-03-24T15:04:49Z</time>
      </trkpt>
      <trkpt lat="46.46636" lon="5.29817">
        <ele>239.8</ele>
        <time>2022-03-24T15:04:51Z</time>
      </trkpt>
      <trkpt lat="46.46641" lon="5.29833">
        <ele>239.8</ele>
        <time>2022-03-24T15:04:53Z</time>
      </trkpt>
      <trkpt lat="46.46656" lon="5.29887">
        <ele>240.2</ele>
        <time>2022-03-24T15:04:59Z</time>
      </trkpt>
      <trkpt lat="46.46674" lon="5.29948">
        <ele>240.2</ele>
        <time>2022-03-24T15:05:05Z</time>
      </trkpt>
      <trkpt lat="46.46692" lon="5.30013">
        <ele>239.6</ele>
        <time>2022-03-24T15:05:11Z</time>
      </trkpt>
      <trkpt lat="46.4671" lon="5.3007">
        <ele>238.8</ele>
        <time>2022-03-24T15:05:16Z</time>
      </trkpt>
      <trkpt lat="46.46714" lon="5.30082">
        <ele>238.6</ele>
        <time>2022-03-24T15:05:17Z</time>
      </trkpt>
      <trkpt lat="46.46732" lon="5.30159">
        <ele>238.2</ele>
        <time>2022-03-24T15:05:24Z</time>
      </trkpt>
      <trkpt lat="46.46735" lon="5.30169">
        <ele>238.2</ele>
        <time>2022-03-24T15:05:25Z</time>
      </trkpt>
      <trkpt lat="46.46749" lon="5.30215">
        <ele>238.4</ele>
        <time>2022-03-24T15:05:30Z</time>
      </trkpt>
      <trkpt lat="46.46753" lon="5.30224">
        <ele>238.4</ele>
        <time>2022-03-24T15:05:31Z</time>
      </trkpt>
      <trkpt lat="46.46762" lon="5.30237">
        <ele>238.6</ele>
        <time>2022-03-24T15:05:33Z</time>
      </trkpt>
      <trkpt lat="46.46772" lon="5.30248">
        <ele>238.8</ele>
        <time>2022-03-24T15:05:35Z</time>
      </trkpt>
      <trkpt lat="46.46818" lon="5.30304">
        <ele>239.6</ele>
        <time>2022-03-24T15:05:44Z</time>
      </trkpt>
      <trkpt lat="46.4686" lon="5.30357">
        <ele>239.2</ele>
        <time>2022-03-24T15:05:52Z</time>
      </trkpt>
      <trkpt lat="46.4689" lon="5.30382">
        <ele>239.4</ele>
        <time>2022-03-24T15:05:57Z</time>
      </trkpt>
      <trkpt lat="46.46932" lon="5.30399">
        <ele>239.6</ele>
        <time>2022-03-24T15:06:03Z</time>
      </trkpt>
      <trkpt lat="46.46973" lon="5.30422">
        <ele>239</ele>
        <time>2022-03-24T15:06:09Z</time>
      </trkpt>
      <trkpt lat="46.47007" lon="5.30452">
        <ele>238.8</ele>
        <time>2022-03-24T15:06:15Z</time>
      </trkpt>
      <trkpt lat="46.4704" lon="5.30481">
        <ele>239</ele>
        <time>2022-03-24T15:06:21Z</time>
      </trkpt>
      <trkpt lat="46.47087" lon="5.30522">
        <ele>239.4</ele>
        <time>2022-03-24T15:06:30Z</time>
      </trkpt>
      <trkpt lat="46.47092" lon="5.30526">
        <ele>239.4</ele>
        <time>2022-03-24T15:06:31Z</time>
      </trkpt>
      <trkpt lat="46.47132" lon="5.3055">
        <ele>239.8</ele>
        <time>2022-03-24T15:06:38Z</time>
      </trkpt>
      <trkpt lat="46.47178" lon="5.30563">
        <ele>239.8</ele>
        <time>2022-03-24T15:06:45Z</time>
      </trkpt>
      <trkpt lat="46.47218" lon="5.30559">
        <ele>239.8</ele>
        <time>2022-03-24T15:06:51Z</time>
      </trkpt>
      <trkpt lat="46.47231" lon="5.30562">
        <ele>239.6</ele>
        <time>2022-03-24T15:06:53Z</time>
      </trkpt>
      <trkpt lat="46.47243" lon="5.30569">
        <ele>239.4</ele>
        <time>2022-03-24T15:06:55Z</time>
      </trkpt>
      <trkpt lat="46.47261" lon="5.30583">
        <ele>239.2</ele>
        <time>2022-03-24T15:06:58Z</time>
      </trkpt>
      <trkpt lat="46.47274" lon="5.306">
        <ele>239.2</ele>
        <time>2022-03-24T15:07:01Z</time>
      </trkpt>
      <trkpt lat="46.47304" lon="5.30638">
        <ele>239.2</ele>
        <time>2022-03-24T15:07:07Z</time>
      </trkpt>
      <trkpt lat="46.47312" lon="5.30652">
        <ele>239.2</ele>
        <time>2022-03-24T15:07:09Z</time>
      </trkpt>
      <trkpt lat="46.47315" lon="5.3067">
        <ele>239.4</ele>
        <time>2022-03-24T15:07:11Z</time>
      </trkpt>
      <trkpt lat="46.47316" lon="5.30681">
        <ele>239.4</ele>
        <time>2022-03-24T15:07:12Z</time>
      </trkpt>
      <trkpt lat="46.4732" lon="5.30764">
        <ele>239.2</ele>
        <time>2022-03-24T15:07:20Z</time>
      </trkpt>
      <trkpt lat="46.47327" lon="5.30849">
        <ele>238.4</ele>
        <time>2022-03-24T15:07:28Z</time>
      </trkpt>
      <trkpt lat="46.47332" lon="5.30877">
        <ele>238.4</ele>
        <time>2022-03-24T15:07:31Z</time>
      </trkpt>
      <trkpt lat="46.47337" lon="5.30892">
        <ele>238.2</ele>
        <time>2022-03-24T15:07:33Z</time>
      </trkpt>
      <trkpt lat="46.47346" lon="5.30897">
        <ele>238.2</ele>
        <time>2022-03-24T15:07:35Z</time>
      </trkpt>
      <trkpt lat="46.47358" lon="5.30896">
        <ele>238.4</ele>
        <time>2022-03-24T15:07:37Z</time>
      </trkpt>
      <trkpt lat="46.47371" lon="5.30891">
        <ele>238.4</ele>
        <time>2022-03-24T15:07:39Z</time>
      </trkpt>
      <trkpt lat="46.47418" lon="5.30871">
        <ele>238.4</ele>
        <time>2022-03-24T15:07:46Z</time>
      </trkpt>
      <trkpt lat="46.47473" lon="5.30842">
        <ele>238.6</ele>
        <time>2022-03-24T15:07:55Z</time>
      </trkpt>
      <trkpt lat="46.47512" lon="5.30822">
        <ele>239</ele>
        <time>2022-03-24T15:08:02Z</time>
      </trkpt>
      <trkpt lat="46.47529" lon="5.30814">
        <ele>239</ele>
        <time>2022-03-24T15:08:05Z</time>
      </trkpt>
      <trkpt lat="46.47551" lon="5.30808">
        <ele>239.2</ele>
        <time>2022-03-24T15:08:09Z</time>
      </trkpt>
      <trkpt lat="46.47593" lon="5.30803">
        <ele>240</ele>
        <time>2022-03-24T15:08:16Z</time>
      </trkpt>
      <trkpt lat="46.47605" lon="5.30801">
        <ele>240</ele>
        <time>2022-03-24T15:08:18Z</time>
      </trkpt>
      <trkpt lat="46.4766" lon="5.30793">
        <ele>239.8</ele>
        <time>2022-03-24T15:08:27Z</time>
      </trkpt>
      <trkpt lat="46.47666" lon="5.30792">
        <ele>239.6</ele>
        <time>2022-03-24T15:08:28Z</time>
      </trkpt>
      <trkpt lat="46.47725" lon="5.30783">
        <ele>239.6</ele>
        <time>2022-03-24T15:08:37Z</time>
      </trkpt>
      <trkpt lat="46.47737" lon="5.30782">
        <ele>239.6</ele>
        <time>2022-03-24T15:08:39Z</time>
      </trkpt>
      <trkpt lat="46.4777" lon="5.30776">
        <ele>239</ele>
        <time>2022-03-24T15:08:44Z</time>
      </trkpt>
      <trkpt lat="46.47804" lon="5.30772">
        <ele>238.8</ele>
        <time>2022-03-24T15:08:49Z</time>
      </trkpt>
      <trkpt lat="46.47832" lon="5.30775">
        <ele>239</ele>
        <time>2022-03-24T15:08:54Z</time>
      </trkpt>
      <trkpt lat="46.47835" lon="5.30777">
        <ele>239</ele>
        <time>2022-03-24T15:08:55Z</time>
      </trkpt>
      <trkpt lat="46.47842" lon="5.30783">
        <ele>239.4</ele>
        <time>2022-03-24T15:08:57Z</time>
      </trkpt>
      <trkpt lat="46.47844" lon="5.30788">
        <ele>239.8</ele>
        <time>2022-03-24T15:08:58Z</time>
      </trkpt>
      <trkpt lat="46.47848" lon="5.30797">
        <ele>240.2</ele>
        <time>2022-03-24T15:09:00Z</time>
      </trkpt>
      <trkpt lat="46.47853" lon="5.30802">
        <ele>240.8</ele>
        <time>2022-03-24T15:09:02Z</time>
      </trkpt>
      <trkpt lat="46.47858" lon="5.30803">
        <ele>241.2</ele>
        <time>2022-03-24T15:09:03Z</time>
      </trkpt>
      <trkpt lat="46.4787" lon="5.30803">
        <ele>241.4</ele>
        <time>2022-03-24T15:09:05Z</time>
      </trkpt>
      <trkpt lat="46.47883" lon="5.30805">
        <ele>241.6</ele>
        <time>2022-03-24T15:09:07Z</time>
      </trkpt>
      <trkpt lat="46.47899" lon="5.30811">
        <ele>241.6</ele>
        <time>2022-03-24T15:09:09Z</time>
      </trkpt>
      <trkpt lat="46.47931" lon="5.3082">
        <ele>240.6</ele>
        <time>2022-03-24T15:09:13Z</time>
      </trkpt>
      <trkpt lat="46.4794" lon="5.30821">
        <ele>240</ele>
        <time>2022-03-24T15:09:14Z</time>
      </trkpt>
      <trkpt lat="46.47978" lon="5.30814">
        <ele>238.6</ele>
        <time>2022-03-24T15:09:18Z</time>
      </trkpt>
      <trkpt lat="46.47994" lon="5.30805">
        <ele>237.6</ele>
        <time>2022-03-24T15:09:20Z</time>
      </trkpt>
      <trkpt lat="46.48017" lon="5.30792">
        <ele>236.8</ele>
        <time>2022-03-24T15:09:23Z</time>
      </trkpt>
      <trkpt lat="46.48056" lon="5.3077">
        <ele>237</ele>
        <time>2022-03-24T15:09:29Z</time>
      </trkpt>
      <trkpt lat="46.48103" lon="5.30744">
        <ele>238.2</ele>
        <time>2022-03-24T15:09:37Z</time>
      </trkpt>
      <trkpt lat="46.48155" lon="5.30715">
        <ele>237.8</ele>
        <time>2022-03-24T15:09:45Z</time>
      </trkpt>
      <trkpt lat="46.48162" lon="5.30711">
        <ele>237.8</ele>
        <time>2022-03-24T15:09:46Z</time>
      </trkpt>
      <trkpt lat="46.48219" lon="5.30687">
        <ele>237</ele>
        <time>2022-03-24T15:09:54Z</time>
      </trkpt>
      <trkpt lat="46.48227" lon="5.30687">
        <ele>236.8</ele>
        <time>2022-03-24T15:09:55Z</time>
      </trkpt>
      <trkpt lat="46.48259" lon="5.30693">
        <ele>235.8</ele>
        <time>2022-03-24T15:09:59Z</time>
      </trkpt>
      <trkpt lat="46.48268" lon="5.30696">
        <ele>235.4</ele>
        <time>2022-03-24T15:10:00Z</time>
      </trkpt>
      <trkpt lat="46.48306" lon="5.30699">
        <ele>234.4</ele>
        <time>2022-03-24T15:10:05Z</time>
      </trkpt>
      <trkpt lat="46.48314" lon="5.30698">
        <ele>234.4</ele>
        <time>2022-03-24T15:10:06Z</time>
      </trkpt>
      <trkpt lat="46.48328" lon="5.30692">
        <ele>234.2</ele>
        <time>2022-03-24T15:10:08Z</time>
      </trkpt>
      <trkpt lat="46.48335" lon="5.30688">
        <ele>234</ele>
        <time>2022-03-24T15:10:09Z</time>
      </trkpt>
      <trkpt lat="46.48374" lon="5.30654">
        <ele>233.8</ele>
        <time>2022-03-24T15:10:15Z</time>
      </trkpt>
      <trkpt lat="46.48423" lon="5.30607">
        <ele>234</ele>
        <time>2022-03-24T15:10:24Z</time>
      </trkpt>
      <trkpt lat="46.48427" lon="5.30603">
        <ele>234</ele>
        <time>2022-03-24T15:10:25Z</time>
      </trkpt>
      <trkpt lat="46.48468" lon="5.30565">
        <ele>234.8</ele>
        <time>2022-03-24T15:10:33Z</time>
      </trkpt>
      <trkpt lat="46.48495" lon="5.30538">
        <ele>235.4</ele>
        <time>2022-03-24T15:10:39Z</time>
      </trkpt>
      <trkpt lat="46.48506" lon="5.30529">
        <ele>235.6</ele>
        <time>2022-03-24T15:10:41Z</time>
      </trkpt>
      <trkpt lat="46.48535" lon="5.30504">
        <ele>235.8</ele>
        <time>2022-03-24T15:10:47Z</time>
      </trkpt>
      <trkpt lat="46.48547" lon="5.30495">
        <ele>235.8</ele>
        <time>2022-03-24T15:10:49Z</time>
      </trkpt>
      <trkpt lat="46.48554" lon="5.30495">
        <ele>235.8</ele>
        <time>2022-03-24T15:10:50Z</time>
      </trkpt>
      <trkpt lat="46.48558" lon="5.305">
        <ele>235.8</ele>
        <time>2022-03-24T15:10:51Z</time>
      </trkpt>
      <trkpt lat="46.48561" lon="5.30507">
        <ele>235.8</ele>
        <time>2022-03-24T15:10:52Z</time>
      </trkpt>
      <trkpt lat="46.48562" lon="5.30515">
        <ele>235.8</ele>
        <time>2022-03-24T15:10:53Z</time>
      </trkpt>
      <trkpt lat="46.4856" lon="5.30536">
        <ele>235.8</ele>
        <time>2022-03-24T15:10:55Z</time>
      </trkpt>
      <trkpt lat="46.48552" lon="5.30603">
        <ele>235.2</ele>
        <time>2022-03-24T15:11:02Z</time>
      </trkpt>
      <trkpt lat="46.48544" lon="5.30659">
        <ele>234.2</ele>
        <time>2022-03-24T15:11:07Z</time>
      </trkpt>
      <trkpt lat="46.48545" lon="5.30683">
        <ele>233.8</ele>
        <time>2022-03-24T15:11:09Z</time>
      </trkpt>
      <trkpt lat="46.48547" lon="5.30698">
        <ele>233.6</ele>
        <time>2022-03-24T15:11:10Z</time>
      </trkpt>
      <trkpt lat="46.48549" lon="5.30709">
        <ele>233.4</ele>
        <time>2022-03-24T15:11:11Z</time>
      </trkpt>
      <trkpt lat="46.48554" lon="5.30723">
        <ele>233</ele>
        <time>2022-03-24T15:11:12Z</time>
      </trkpt>
      <trkpt lat="46.48559" lon="5.30734">
        <ele>232.8</ele>
        <time>2022-03-24T15:11:13Z</time>
      </trkpt>
      <trkpt lat="46.48569" lon="5.30751">
        <ele>231.8</ele>
        <time>2022-03-24T15:11:15Z</time>
      </trkpt>
      <trkpt lat="46.48584" lon="5.30767">
        <ele>230.8</ele>
        <time>2022-03-24T15:11:17Z</time>
      </trkpt>
      <trkpt lat="46.48592" lon="5.30773">
        <ele>230.6</ele>
        <time>2022-03-24T15:11:18Z</time>
      </trkpt>
      <trkpt lat="46.48616" lon="5.30794">
        <ele>229.4</ele>
        <time>2022-03-24T15:11:21Z</time>
      </trkpt>
      <trkpt lat="46.48639" lon="5.3081">
        <ele>228.4</ele>
        <time>2022-03-24T15:11:24Z</time>
      </trkpt>
      <trkpt lat="46.48684" lon="5.30837">
        <ele>228</ele>
        <time>2022-03-24T15:11:30Z</time>
      </trkpt>
      <trkpt lat="46.4871" lon="5.30855">
        <ele>228.4</ele>
        <time>2022-03-24T15:11:34Z</time>
      </trkpt>
      <trkpt lat="46.48715" lon="5.30864">
        <ele>228.6</ele>
        <time>2022-03-24T15:11:35Z</time>
      </trkpt>
      <trkpt lat="46.48718" lon="5.3087">
        <ele>228.8</ele>
        <time>2022-03-24T15:11:36Z</time>
      </trkpt>
      <trkpt lat="46.48722" lon="5.3089">
        <ele>229</ele>
        <time>2022-03-24T15:11:38Z</time>
      </trkpt>
      <trkpt lat="46.48716" lon="5.3091">
        <ele>229.2</ele>
        <time>2022-03-24T15:11:40Z</time>
      </trkpt>
      <trkpt lat="46.48707" lon="5.30923">
        <ele>229.4</ele>
        <time>2022-03-24T15:11:42Z</time>
      </trkpt>
      <trkpt lat="46.48696" lon="5.30938">
        <ele>229.8</ele>
        <time>2022-03-24T15:11:44Z</time>
      </trkpt>
      <trkpt lat="46.4868" lon="5.30968">
        <ele>230.8</ele>
        <time>2022-03-24T15:11:48Z</time>
      </trkpt>
      <trkpt lat="46.48672" lon="5.30985">
        <ele>231.6</ele>
        <time>2022-03-24T15:11:50Z</time>
      </trkpt>
      <trkpt lat="46.48668" lon="5.30993">
        <ele>232</ele>
        <time>2022-03-24T15:11:51Z</time>
      </trkpt>
      <trkpt lat="46.48636" lon="5.3106">
        <ele>232.8</ele>
        <time>2022-03-24T15:11:59Z</time>
      </trkpt>
      <trkpt lat="46.48619" lon="5.31095">
        <ele>232.4</ele>
        <time>2022-03-24T15:12:03Z</time>
      </trkpt>
      <trkpt lat="46.48589" lon="5.31157">
        <ele>230.6</ele>
        <time>2022-03-24T15:12:10Z</time>
      </trkpt>
      <trkpt lat="46.48575" lon="5.31184">
        <ele>229.8</ele>
        <time>2022-03-24T15:12:13Z</time>
      </trkpt>
      <trkpt lat="46.48566" lon="5.31202">
        <ele>229.4</ele>
        <time>2022-03-24T15:12:15Z</time>
      </trkpt>
      <trkpt lat="46.48553" lon="5.31234">
        <ele>229.2</ele>
        <time>2022-03-24T15:12:18Z</time>
      </trkpt>
      <trkpt lat="46.48551" lon="5.31242">
        <ele>228.8</ele>
        <time>2022-03-24T15:12:19Z</time>
      </trkpt>
      <trkpt lat="46.4855" lon="5.31254">
        <ele>228.6</ele>
        <time>2022-03-24T15:12:20Z</time>
      </trkpt>
      <trkpt lat="46.4855" lon="5.3128">
        <ele>228.2</ele>
        <time>2022-03-24T15:12:22Z</time>
      </trkpt>
      <trkpt lat="46.48556" lon="5.31345">
        <ele>227.2</ele>
        <time>2022-03-24T15:12:28Z</time>
      </trkpt>
      <trkpt lat="46.48558" lon="5.31357">
        <ele>227.2</ele>
        <time>2022-03-24T15:12:29Z</time>
      </trkpt>
      <trkpt lat="46.48561" lon="5.31369">
        <ele>227</ele>
        <time>2022-03-24T15:12:30Z</time>
      </trkpt>
      <trkpt lat="46.48567" lon="5.31381">
        <ele>226.8</ele>
        <time>2022-03-24T15:12:31Z</time>
      </trkpt>
      <trkpt lat="46.48574" lon="5.31389">
        <ele>226.6</ele>
        <time>2022-03-24T15:12:32Z</time>
      </trkpt>
      <trkpt lat="46.48587" lon="5.31404">
        <ele>226.2</ele>
        <time>2022-03-24T15:12:34Z</time>
      </trkpt>
      <trkpt lat="46.48594" lon="5.31414">
        <ele>225.8</ele>
        <time>2022-03-24T15:12:35Z</time>
      </trkpt>
      <trkpt lat="46.48601" lon="5.31427">
        <ele>225.4</ele>
        <time>2022-03-24T15:12:36Z</time>
      </trkpt>
      <trkpt lat="46.48604" lon="5.31438">
        <ele>224.8</ele>
        <time>2022-03-24T15:12:37Z</time>
      </trkpt>
      <trkpt lat="46.48605" lon="5.31451">
        <ele>224.2</ele>
        <time>2022-03-24T15:12:38Z</time>
      </trkpt>
      <trkpt lat="46.48606" lon="5.31468">
        <ele>223.8</ele>
        <time>2022-03-24T15:12:39Z</time>
      </trkpt>
      <trkpt lat="46.48606" lon="5.31479">
        <ele>223</ele>
        <time>2022-03-24T15:12:40Z</time>
      </trkpt>
      <trkpt lat="46.48607" lon="5.31495">
        <ele>222.6</ele>
        <time>2022-03-24T15:12:41Z</time>
      </trkpt>
      <trkpt lat="46.48609" lon="5.31504">
        <ele>222.2</ele>
        <time>2022-03-24T15:12:42Z</time>
      </trkpt>
      <trkpt lat="46.48614" lon="5.31526">
        <ele>221.6</ele>
        <time>2022-03-24T15:12:44Z</time>
      </trkpt>
      <trkpt lat="46.48618" lon="5.31534">
        <ele>221.4</ele>
        <time>2022-03-24T15:12:45Z</time>
      </trkpt>
      <trkpt lat="46.48622" lon="5.31542">
        <ele>221.2</ele>
        <time>2022-03-24T15:12:46Z</time>
      </trkpt>
      <trkpt lat="46.4864" lon="5.31564">
        <ele>221</ele>
        <time>2022-03-24T15:12:49Z</time>
      </trkpt>
      <trkpt lat="46.48677" lon="5.31608">
        <ele>220.8</ele>
        <time>2022-03-24T15:12:55Z</time>
      </trkpt>
      <trkpt lat="46.487" lon="5.31636">
        <ele>220.4</ele>
        <time>2022-03-24T15:12:59Z</time>
      </trkpt>
      <trkpt lat="46.48706" lon="5.31643">
        <ele>220.4</ele>
        <time>2022-03-24T15:13:00Z</time>
      </trkpt>
      <trkpt lat="46.48712" lon="5.3165">
        <ele>220.4</ele>
        <time>2022-03-24T15:13:01Z</time>
      </trkpt>
      <trkpt lat="46.48722" lon="5.31664">
        <ele>220.4</ele>
        <time>2022-03-24T15:13:03Z</time>
      </trkpt>
      <trkpt lat="46.48728" lon="5.31671">
        <ele>220.4</ele>
        <time>2022-03-24T15:13:04Z</time>
      </trkpt>
      <trkpt lat="46.48751" lon="5.31696">
        <ele>220.6</ele>
        <time>2022-03-24T15:13:08Z</time>
      </trkpt>
      <trkpt lat="46.48765" lon="5.3171">
        <ele>220.6</ele>
        <time>2022-03-24T15:13:10Z</time>
      </trkpt>
      <trkpt lat="46.4877" lon="5.31717">
        <ele>220.6</ele>
        <time>2022-03-24T15:13:11Z</time>
      </trkpt>
      <trkpt lat="46.4878" lon="5.31738">
        <ele>220.6</ele>
        <time>2022-03-24T15:13:13Z</time>
      </trkpt>
      <trkpt lat="46.48783" lon="5.31748">
        <ele>220.4</ele>
        <time>2022-03-24T15:13:14Z</time>
      </trkpt>
      <trkpt lat="46.48785" lon="5.31758">
        <ele>220.2</ele>
        <time>2022-03-24T15:13:15Z</time>
      </trkpt>
      <trkpt lat="46.48788" lon="5.31798">
        <ele>220</ele>
        <time>2022-03-24T15:13:19Z</time>
      </trkpt>
      <trkpt lat="46.48792" lon="5.3183">
        <ele>219.8</ele>
        <time>2022-03-24T15:13:22Z</time>
      </trkpt>
      <trkpt lat="46.48795" lon="5.31838">
        <ele>219.8</ele>
        <time>2022-03-24T15:13:23Z</time>
      </trkpt>
      <trkpt lat="46.488" lon="5.31846">
        <ele>219.8</ele>
        <time>2022-03-24T15:13:24Z</time>
      </trkpt>
      <trkpt lat="46.48814" lon="5.31858">
        <ele>219.8</ele>
        <time>2022-03-24T15:13:26Z</time>
      </trkpt>
      <trkpt lat="46.48833" lon="5.31867">
        <ele>219.6</ele>
        <time>2022-03-24T15:13:29Z</time>
      </trkpt>
      <trkpt lat="46.48839" lon="5.31873">
        <ele>219.6</ele>
        <time>2022-03-24T15:13:30Z</time>
      </trkpt>
      <trkpt lat="46.48844" lon="5.31882">
        <ele>219.6</ele>
        <time>2022-03-24T15:13:31Z</time>
      </trkpt>
      <trkpt lat="46.4885" lon="5.31898">
        <ele>219.6</ele>
        <time>2022-03-24T15:13:33Z</time>
      </trkpt>
      <trkpt lat="46.48855" lon="5.31944">
        <ele>219.8</ele>
        <time>2022-03-24T15:13:38Z</time>
      </trkpt>
      <trkpt lat="46.48858" lon="5.32004">
        <ele>220.2</ele>
        <time>2022-03-24T15:13:45Z</time>
      </trkpt>
      <trkpt lat="46.48849" lon="5.32062">
        <ele>221.2</ele>
        <time>2022-03-24T15:13:52Z</time>
      </trkpt>
      <trkpt lat="46.48844" lon="5.32087">
        <ele>221.6</ele>
        <time>2022-03-24T15:13:55Z</time>
      </trkpt>
      <trkpt lat="46.48834" lon="5.3214">
        <ele>222.4</ele>
        <time>2022-03-24T15:14:02Z</time>
      </trkpt>
      <trkpt lat="46.48834" lon="5.32157">
        <ele>222.8</ele>
        <time>2022-03-24T15:14:04Z</time>
      </trkpt>
      <trkpt lat="46.48836" lon="5.32194">
        <ele>223</ele>
        <time>2022-03-24T15:14:09Z</time>
      </trkpt>
      <trkpt lat="46.4884" lon="5.32223">
        <ele>223.6</ele>
        <time>2022-03-24T15:14:13Z</time>
      </trkpt>
      <trkpt lat="46.48842" lon="5.3223">
        <ele>223.8</ele>
        <time>2022-03-24T15:14:14Z</time>
      </trkpt>
      <trkpt lat="46.48843" lon="5.32235">
        <ele>224</ele>
        <time>2022-03-24T15:14:15Z</time>
      </trkpt>
      <trkpt lat="46.48846" lon="5.32243">
        <ele>224</ele>
        <time>2022-03-24T15:14:16Z</time>
      </trkpt>
      <trkpt lat="46.48849" lon="5.32249">
        <ele>224.6</ele>
        <time>2022-03-24T15:14:17Z</time>
      </trkpt>
      <trkpt lat="46.48855" lon="5.32259">
        <ele>225</ele>
        <time>2022-03-24T15:14:19Z</time>
      </trkpt>
      <trkpt lat="46.48865" lon="5.32277">
        <ele>225</ele>
        <time>2022-03-24T15:14:22Z</time>
      </trkpt>
      <trkpt lat="46.4889" lon="5.32316">
        <ele>224.6</ele>
        <time>2022-03-24T15:14:27Z</time>
      </trkpt>
      <trkpt lat="46.48902" lon="5.32335">
        <ele>223.6</ele>
        <time>2022-03-24T15:14:29Z</time>
      </trkpt>
      <trkpt lat="46.48908" lon="5.32346">
        <ele>223.2</ele>
        <time>2022-03-24T15:14:30Z</time>
      </trkpt>
      <trkpt lat="46.48914" lon="5.3236">
        <ele>222.6</ele>
        <time>2022-03-24T15:14:31Z</time>
      </trkpt>
      <trkpt lat="46.48924" lon="5.32394">
        <ele>221.4</ele>
        <time>2022-03-24T15:14:34Z</time>
      </trkpt>
      <trkpt lat="46.48931" lon="5.32417">
        <ele>220.2</ele>
        <time>2022-03-24T15:14:36Z</time>
      </trkpt>
      <trkpt lat="46.48945" lon="5.32463">
        <ele>219.2</ele>
        <time>2022-03-24T15:14:40Z</time>
      </trkpt>
      <trkpt lat="46.48954" lon="5.32491">
        <ele>218.6</ele>
        <time>2022-03-24T15:14:43Z</time>
      </trkpt>
      <trkpt lat="46.48961" lon="5.32526">
        <ele>218.4</ele>
        <time>2022-03-24T15:14:46Z</time>
      </trkpt>
      <trkpt lat="46.48962" lon="5.32537">
        <ele>218.4</ele>
        <time>2022-03-24T15:14:47Z</time>
      </trkpt>
      <trkpt lat="46.48961" lon="5.32546">
        <ele>218.4</ele>
        <time>2022-03-24T15:14:48Z</time>
      </trkpt>
      <trkpt lat="46.48954" lon="5.32567">
        <ele>218.2</ele>
        <time>2022-03-24T15:14:50Z</time>
      </trkpt>
      <trkpt lat="46.48934" lon="5.32594">
        <ele>218.8</ele>
        <time>2022-03-24T15:14:54Z</time>
      </trkpt>
      <trkpt lat="46.48926" lon="5.3261">
        <ele>218.8</ele>
        <time>2022-03-24T15:14:56Z</time>
      </trkpt>
      <trkpt lat="46.48923" lon="5.32624">
        <ele>219</ele>
        <time>2022-03-24T15:14:58Z</time>
      </trkpt>
      <trkpt lat="46.48924" lon="5.32644">
        <ele>219.8</ele>
        <time>2022-03-24T15:15:01Z</time>
      </trkpt>
      <trkpt lat="46.48926" lon="5.3265">
        <ele>219.8</ele>
        <time>2022-03-24T15:15:02Z</time>
      </trkpt>
      <trkpt lat="46.48928" lon="5.32655">
        <ele>220.2</ele>
        <time>2022-03-24T15:15:03Z</time>
      </trkpt>
      <trkpt lat="46.48935" lon="5.32669">
        <ele>221.2</ele>
        <time>2022-03-24T15:15:06Z</time>
      </trkpt>
      <trkpt lat="46.48938" lon="5.32673">
        <ele>221.4</ele>
        <time>2022-03-24T15:15:07Z</time>
      </trkpt>
      <trkpt lat="46.48943" lon="5.3268">
        <ele>222.2</ele>
        <time>2022-03-24T15:15:09Z</time>
      </trkpt>
      <trkpt lat="46.48958" lon="5.32696">
        <ele>223.2</ele>
        <time>2022-03-24T15:15:14Z</time>
      </trkpt>
      <trkpt lat="46.48961" lon="5.32699">
        <ele>223.4</ele>
        <time>2022-03-24T15:15:15Z</time>
      </trkpt>
      <trkpt lat="46.48973" lon="5.32707">
        <ele>224.8</ele>
        <time>2022-03-24T15:15:19Z</time>
      </trkpt>
      <trkpt lat="46.48988" lon="5.32711">
        <ele>226</ele>
        <time>2022-03-24T15:15:24Z</time>
      </trkpt>
      <trkpt lat="46.48994" lon="5.3271">
        <ele>226.2</ele>
        <time>2022-03-24T15:15:26Z</time>
      </trkpt>
      <trkpt lat="46.49004" lon="5.3271">
        <ele>227.2</ele>
        <time>2022-03-24T15:15:29Z</time>
      </trkpt>
      <trkpt lat="46.49021" lon="5.32708">
        <ele>228.2</ele>
        <time>2022-03-24T15:15:34Z</time>
      </trkpt>
      <trkpt lat="46.49024" lon="5.32707">
        <ele>228.4</ele>
        <time>2022-03-24T15:15:35Z</time>
      </trkpt>
      <trkpt lat="46.49047" lon="5.32704">
        <ele>229.2</ele>
        <time>2022-03-24T15:15:42Z</time>
      </trkpt>
      <trkpt lat="46.4905" lon="5.32703">
        <ele>229.2</ele>
        <time>2022-03-24T15:15:43Z</time>
      </trkpt>
      <trkpt lat="46.49069" lon="5.32699">
        <ele>230.4</ele>
        <time>2022-03-24T15:15:49Z</time>
      </trkpt>
      <trkpt lat="46.49082" lon="5.32697">
        <ele>231</ele>
        <time>2022-03-24T15:15:53Z</time>
      </trkpt>
      <trkpt lat="46.49088" lon="5.32696">
        <ele>231.4</ele>
        <time>2022-03-24T15:15:55Z</time>
      </trkpt>
      <trkpt lat="46.49102" lon="5.32694">
        <ele>232.6</ele>
        <time>2022-03-24T15:15:59Z</time>
      </trkpt>
      <trkpt lat="46.49112" lon="5.32696">
        <ele>233</ele>
        <time>2022-03-24T15:16:02Z</time>
      </trkpt>
      <trkpt lat="46.49124" lon="5.32709">
        <ele>233.8</ele>
        <time>2022-03-24T15:16:06Z</time>
      </trkpt>
      <trkpt lat="46.49127" lon="5.32713">
        <ele>233.8</ele>
        <time>2022-03-24T15:16:07Z</time>
      </trkpt>
      <trkpt lat="46.49138" lon="5.32752">
        <ele>234.8</ele>
        <time>2022-03-24T15:16:14Z</time>
      </trkpt>
      <trkpt lat="46.49145" lon="5.32796">
        <ele>235.4</ele>
        <time>2022-03-24T15:16:20Z</time>
      </trkpt>
      <trkpt lat="46.49145" lon="5.32813">
        <ele>235.4</ele>
        <time>2022-03-24T15:16:22Z</time>
      </trkpt>
      <trkpt lat="46.49143" lon="5.32832">
        <ele>235.4</ele>
        <time>2022-03-24T15:16:24Z</time>
      </trkpt>
      <trkpt lat="46.49132" lon="5.32876">
        <ele>234.8</ele>
        <time>2022-03-24T15:16:29Z</time>
      </trkpt>
      <trkpt lat="46.49127" lon="5.32903">
        <ele>234.6</ele>
        <time>2022-03-24T15:16:32Z</time>
      </trkpt>
      <trkpt lat="46.49125" lon="5.3292">
        <ele>234.6</ele>
        <time>2022-03-24T15:16:34Z</time>
      </trkpt>
      <trkpt lat="46.49125" lon="5.32929">
        <ele>234.6</ele>
        <time>2022-03-24T15:16:35Z</time>
      </trkpt>
      <trkpt lat="46.49125" lon="5.32938">
        <ele>234.8</ele>
        <time>2022-03-24T15:16:36Z</time>
      </trkpt>
      <trkpt lat="46.49126" lon="5.32973">
        <ele>234.8</ele>
        <time>2022-03-24T15:16:40Z</time>
      </trkpt>
      <trkpt lat="46.49127" lon="5.33">
        <ele>235</ele>
        <time>2022-03-24T15:16:43Z</time>
      </trkpt>
      <trkpt lat="46.4913" lon="5.33026">
        <ele>235.2</ele>
        <time>2022-03-24T15:16:46Z</time>
      </trkpt>
      <trkpt lat="46.49133" lon="5.33042">
        <ele>235.6</ele>
        <time>2022-03-24T15:16:48Z</time>
      </trkpt>
      <trkpt lat="46.49141" lon="5.33073">
        <ele>236.2</ele>
        <time>2022-03-24T15:16:52Z</time>
      </trkpt>
      <trkpt lat="46.4916" lon="5.33119">
        <ele>236.6</ele>
        <time>2022-03-24T15:16:58Z</time>
      </trkpt>
      <trkpt lat="46.49165" lon="5.33126">
        <ele>236.6</ele>
        <time>2022-03-24T15:16:59Z</time>
      </trkpt>
      <trkpt lat="46.49197" lon="5.33159">
        <ele>236.6</ele>
        <time>2022-03-24T15:17:05Z</time>
      </trkpt>
      <trkpt lat="46.49207" lon="5.33167">
        <ele>236.6</ele>
        <time>2022-03-24T15:17:07Z</time>
      </trkpt>
      <trkpt lat="46.49228" lon="5.33184">
        <ele>236.6</ele>
        <time>2022-03-24T15:17:11Z</time>
      </trkpt>
      <trkpt lat="46.49242" lon="5.33196">
        <ele>236.8</ele>
        <time>2022-03-24T15:17:14Z</time>
      </trkpt>
      <trkpt lat="46.49246" lon="5.332">
        <ele>237</ele>
        <time>2022-03-24T15:17:15Z</time>
      </trkpt>
      <trkpt lat="46.49259" lon="5.33224">
        <ele>237.2</ele>
        <time>2022-03-24T15:17:19Z</time>
      </trkpt>
      <trkpt lat="46.49262" lon="5.3323">
        <ele>237.4</ele>
        <time>2022-03-24T15:17:20Z</time>
      </trkpt>
      <trkpt lat="46.49275" lon="5.33281">
        <ele>238.2</ele>
        <time>2022-03-24T15:17:27Z</time>
      </trkpt>
      <trkpt lat="46.49278" lon="5.33296">
        <ele>238.4</ele>
        <time>2022-03-24T15:17:29Z</time>
      </trkpt>
      <trkpt lat="46.49286" lon="5.33341">
        <ele>239.6</ele>
        <time>2022-03-24T15:17:35Z</time>
      </trkpt>
      <trkpt lat="46.49288" lon="5.33348">
        <ele>239.6</ele>
        <time>2022-03-24T15:17:36Z</time>
      </trkpt>
      <trkpt lat="46.493" lon="5.33405">
        <ele>240</ele>
        <time>2022-03-24T15:17:44Z</time>
      </trkpt>
      <trkpt lat="46.49305" lon="5.33434">
        <ele>240.6</ele>
        <time>2022-03-24T15:17:48Z</time>
      </trkpt>
      <trkpt lat="46.49307" lon="5.33443">
        <ele>240.8</ele>
        <time>2022-03-24T15:17:49Z</time>
      </trkpt>
      <trkpt lat="46.49311" lon="5.33465">
        <ele>241.2</ele>
        <time>2022-03-24T15:17:52Z</time>
      </trkpt>
      <trkpt lat="46.49319" lon="5.33543">
        <ele>241.4</ele>
        <time>2022-03-24T15:18:01Z</time>
      </trkpt>
      <trkpt lat="46.49318" lon="5.33563">
        <ele>241.4</ele>
        <time>2022-03-24T15:18:03Z</time>
      </trkpt>
      <trkpt lat="46.49313" lon="5.33591">
        <ele>241.4</ele>
        <time>2022-03-24T15:18:06Z</time>
      </trkpt>
      <trkpt lat="46.49304" lon="5.33655">
        <ele>241.6</ele>
        <time>2022-03-24T15:18:13Z</time>
      </trkpt>
      <trkpt lat="46.49304" lon="5.33664">
        <ele>241.8</ele>
        <time>2022-03-24T15:18:14Z</time>
      </trkpt>
      <trkpt lat="46.49301" lon="5.33728">
        <ele>242</ele>
        <time>2022-03-24T15:18:21Z</time>
      </trkpt>
      <trkpt lat="46.49292" lon="5.33788">
        <ele>242.4</ele>
        <time>2022-03-24T15:18:28Z</time>
      </trkpt>
      <trkpt lat="46.49287" lon="5.33813">
        <ele>242.8</ele>
        <time>2022-03-24T15:18:31Z</time>
      </trkpt>
      <trkpt lat="46.49276" lon="5.33872">
        <ele>243.8</ele>
        <time>2022-03-24T15:18:38Z</time>
      </trkpt>
      <trkpt lat="46.49275" lon="5.33881">
        <ele>243.8</ele>
        <time>2022-03-24T15:18:39Z</time>
      </trkpt>
      <trkpt lat="46.49263" lon="5.33941">
        <ele>243.8</ele>
        <time>2022-03-24T15:18:46Z</time>
      </trkpt>
      <trkpt lat="46.49248" lon="5.34018">
        <ele>244</ele>
        <time>2022-03-24T15:18:55Z</time>
      </trkpt>
      <trkpt lat="46.49245" lon="5.34036">
        <ele>244.2</ele>
        <time>2022-03-24T15:18:57Z</time>
      </trkpt>
      <trkpt lat="46.4924" lon="5.34061">
        <ele>244.2</ele>
        <time>2022-03-24T15:19:00Z</time>
      </trkpt>
      <trkpt lat="46.49231" lon="5.341">
        <ele>244.2</ele>
        <time>2022-03-24T15:19:04Z</time>
      </trkpt>
      <trkpt lat="46.49222" lon="5.34157">
        <ele>243</ele>
        <time>2022-03-24T15:19:09Z</time>
      </trkpt>
      <trkpt lat="46.49219" lon="5.34169">
        <ele>242.4</ele>
        <time>2022-03-24T15:19:10Z</time>
      </trkpt>
      <trkpt lat="46.49204" lon="5.34247">
        <ele>241.4</ele>
        <time>2022-03-24T15:19:17Z</time>
      </trkpt>
      <trkpt lat="46.49193" lon="5.34307">
        <ele>241.2</ele>
        <time>2022-03-24T15:19:23Z</time>
      </trkpt>
      <trkpt lat="46.49182" lon="5.3436">
        <ele>241.4</ele>
        <time>2022-03-24T15:19:29Z</time>
      </trkpt>
      <trkpt lat="46.4917" lon="5.34415">
        <ele>241.6</ele>
        <time>2022-03-24T15:19:34Z</time>
      </trkpt>
      <trkpt lat="46.49154" lon="5.34495">
        <ele>241</ele>
        <time>2022-03-24T15:19:41Z</time>
      </trkpt>
      <trkpt lat="46.49141" lon="5.34565">
        <ele>241</ele>
        <time>2022-03-24T15:19:48Z</time>
      </trkpt>
      <trkpt lat="46.49131" lon="5.34621">
        <ele>241.8</ele>
        <time>2022-03-24T15:19:54Z</time>
      </trkpt>
      <trkpt lat="46.49121" lon="5.34674">
        <ele>241.8</ele>
        <time>2022-03-24T15:19:59Z</time>
      </trkpt>
      <trkpt lat="46.49106" lon="5.34758">
        <ele>241</ele>
        <time>2022-03-24T15:20:07Z</time>
      </trkpt>
      <trkpt lat="46.49101" lon="5.34785">
        <ele>241.2</ele>
        <time>2022-03-24T15:20:10Z</time>
      </trkpt>
      <trkpt lat="46.49099" lon="5.34804">
        <ele>241.2</ele>
        <time>2022-03-24T15:20:12Z</time>
      </trkpt>
      <trkpt lat="46.49097" lon="5.34812">
        <ele>241.4</ele>
        <time>2022-03-24T15:20:13Z</time>
      </trkpt>
      <trkpt lat="46.49092" lon="5.34839">
        <ele>241.6</ele>
        <time>2022-03-24T15:20:16Z</time>
      </trkpt>
      <trkpt lat="46.49082" lon="5.34883">
        <ele>242.4</ele>
        <time>2022-03-24T15:20:21Z</time>
      </trkpt>
      <trkpt lat="46.49079" lon="5.34901">
        <ele>242.6</ele>
        <time>2022-03-24T15:20:23Z</time>
      </trkpt>
      <trkpt lat="46.49074" lon="5.34933">
        <ele>243.4</ele>
        <time>2022-03-24T15:20:27Z</time>
      </trkpt>
      <trkpt lat="46.49071" lon="5.3495">
        <ele>243.8</ele>
        <time>2022-03-24T15:20:29Z</time>
      </trkpt>
      <trkpt lat="46.49062" lon="5.34987">
        <ele>244.4</ele>
        <time>2022-03-24T15:20:34Z</time>
      </trkpt>
      <trkpt lat="46.49058" lon="5.35009">
        <ele>244.8</ele>
        <time>2022-03-24T15:20:37Z</time>
      </trkpt>
      <trkpt lat="46.49053" lon="5.35045">
        <ele>245.6</ele>
        <time>2022-03-24T15:20:42Z</time>
      </trkpt>
      <trkpt lat="46.49049" lon="5.35059">
        <ele>245.8</ele>
        <time>2022-03-24T15:20:44Z</time>
      </trkpt>
      <trkpt lat="46.49039" lon="5.351">
        <ele>246.6</ele>
        <time>2022-03-24T15:20:50Z</time>
      </trkpt>
      <trkpt lat="46.49037" lon="5.35109">
        <ele>246.6</ele>
        <time>2022-03-24T15:20:51Z</time>
      </trkpt>
      <trkpt lat="46.49033" lon="5.35122">
        <ele>246.8</ele>
        <time>2022-03-24T15:20:53Z</time>
      </trkpt>
      <trkpt lat="46.49007" lon="5.35183">
        <ele>247.2</ele>
        <time>2022-03-24T15:21:02Z</time>
      </trkpt>
      <trkpt lat="46.48988" lon="5.35223">
        <ele>246.8</ele>
        <time>2022-03-24T15:21:07Z</time>
      </trkpt>
      <trkpt lat="46.48958" lon="5.35292">
        <ele>245.8</ele>
        <time>2022-03-24T15:21:15Z</time>
      </trkpt>
      <trkpt lat="46.48954" lon="5.35301">
        <ele>245.8</ele>
        <time>2022-03-24T15:21:16Z</time>
      </trkpt>
      <trkpt lat="46.4894" lon="5.35334">
        <ele>245.6</ele>
        <time>2022-03-24T15:21:20Z</time>
      </trkpt>
      <trkpt lat="46.48933" lon="5.35351">
        <ele>245.2</ele>
        <time>2022-03-24T15:21:22Z</time>
      </trkpt>
      <trkpt lat="46.48915" lon="5.3539">
        <ele>245.2</ele>
        <time>2022-03-24T15:21:27Z</time>
      </trkpt>
      <trkpt lat="46.48888" lon="5.35447">
        <ele>245.6</ele>
        <time>2022-03-24T15:21:35Z</time>
      </trkpt>
      <trkpt lat="46.48864" lon="5.35502">
        <ele>245.8</ele>
        <time>2022-03-24T15:21:43Z</time>
      </trkpt>
      <trkpt lat="46.48843" lon="5.3555">
        <ele>246.6</ele>
        <time>2022-03-24T15:21:50Z</time>
      </trkpt>
      <trkpt lat="46.48817" lon="5.35611">
        <ele>246.4</ele>
        <time>2022-03-24T15:21:58Z</time>
      </trkpt>
      <trkpt lat="46.48786" lon="5.35681">
        <ele>246.2</ele>
        <time>2022-03-24T15:22:07Z</time>
      </trkpt>
      <trkpt lat="46.48758" lon="5.35748">
        <ele>246.2</ele>
        <time>2022-03-24T15:22:15Z</time>
      </trkpt>
      <trkpt lat="46.48754" lon="5.35756">
        <ele>246.2</ele>
        <time>2022-03-24T15:22:16Z</time>
      </trkpt>
      <trkpt lat="46.48747" lon="5.35771">
        <ele>246.2</ele>
        <time>2022-03-24T15:22:18Z</time>
      </trkpt>
      <trkpt lat="46.48737" lon="5.35794">
        <ele>246.2</ele>
        <time>2022-03-24T15:22:21Z</time>
      </trkpt>
      <trkpt lat="46.48712" lon="5.35851">
        <ele>246.4</ele>
        <time>2022-03-24T15:22:29Z</time>
      </trkpt>
      <trkpt lat="46.48706" lon="5.35863">
        <ele>246.6</ele>
        <time>2022-03-24T15:22:31Z</time>
      </trkpt>
      <trkpt lat="46.48695" lon="5.35888">
        <ele>246.8</ele>
        <time>2022-03-24T15:22:35Z</time>
      </trkpt>
      <trkpt lat="46.48686" lon="5.35916">
        <ele>247.8</ele>
        <time>2022-03-24T15:22:39Z</time>
      </trkpt>
      <trkpt lat="46.48683" lon="5.35931">
        <ele>248.2</ele>
        <time>2022-03-24T15:22:41Z</time>
      </trkpt>
      <trkpt lat="46.4868" lon="5.35954">
        <ele>248.6</ele>
        <time>2022-03-24T15:22:44Z</time>
      </trkpt>
      <trkpt lat="46.48676" lon="5.35978">
        <ele>248.8</ele>
        <time>2022-03-24T15:22:47Z</time>
      </trkpt>
      <trkpt lat="46.48675" lon="5.35986">
        <ele>249</ele>
        <time>2022-03-24T15:22:48Z</time>
      </trkpt>
      <trkpt lat="46.48671" lon="5.3601">
        <ele>249</ele>
        <time>2022-03-24T15:22:51Z</time>
      </trkpt>
      <trkpt lat="46.48664" lon="5.36039">
        <ele>249</ele>
        <time>2022-03-24T15:22:54Z</time>
      </trkpt>
      <trkpt lat="46.48649" lon="5.36116">
        <ele>248.2</ele>
        <time>2022-03-24T15:23:01Z</time>
      </trkpt>
      <trkpt lat="46.48647" lon="5.36127">
        <ele>248.2</ele>
        <time>2022-03-24T15:23:02Z</time>
      </trkpt>
      <trkpt lat="46.48643" lon="5.36159">
        <ele>247.8</ele>
        <time>2022-03-24T15:23:05Z</time>
      </trkpt>
      <trkpt lat="46.4864" lon="5.36189">
        <ele>247.6</ele>
        <time>2022-03-24T15:23:08Z</time>
      </trkpt>
      <trkpt lat="46.48635" lon="5.36252">
        <ele>247.8</ele>
        <time>2022-03-24T15:23:15Z</time>
      </trkpt>
      <trkpt lat="46.48628" lon="5.36292">
        <ele>248.2</ele>
        <time>2022-03-24T15:23:20Z</time>
      </trkpt>
      <trkpt lat="46.48625" lon="5.363">
        <ele>248.2</ele>
        <time>2022-03-24T15:23:21Z</time>
      </trkpt>
      <trkpt lat="46.48622" lon="5.36306">
        <ele>248.4</ele>
        <time>2022-03-24T15:23:22Z</time>
      </trkpt>
      <trkpt lat="46.48614" lon="5.36315">
        <ele>248.6</ele>
        <time>2022-03-24T15:23:24Z</time>
      </trkpt>
      <trkpt lat="46.48609" lon="5.36318">
        <ele>248.6</ele>
        <time>2022-03-24T15:23:25Z</time>
      </trkpt>
      <trkpt lat="46.48604" lon="5.3632">
        <ele>248.8</ele>
        <time>2022-03-24T15:23:26Z</time>
      </trkpt>
      <trkpt lat="46.4858" lon="5.36324">
        <ele>250</ele>
        <time>2022-03-24T15:23:31Z</time>
      </trkpt>
      <trkpt lat="46.48566" lon="5.36325">
        <ele>250.8</ele>
        <time>2022-03-24T15:23:34Z</time>
      </trkpt>
      <trkpt lat="46.48558" lon="5.36327">
        <ele>251.4</ele>
        <time>2022-03-24T15:23:36Z</time>
      </trkpt>
      <trkpt lat="46.48553" lon="5.36327">
        <ele>251.6</ele>
        <time>2022-03-24T15:23:37Z</time>
      </trkpt>
      <trkpt lat="46.48535" lon="5.3633">
        <ele>252.4</ele>
        <time>2022-03-24T15:23:41Z</time>
      </trkpt>
      <trkpt lat="46.48501" lon="5.36336">
        <ele>253</ele>
        <time>2022-03-24T15:23:48Z</time>
      </trkpt>
      <trkpt lat="46.48457" lon="5.36343">
        <ele>253.2</ele>
        <time>2022-03-24T15:23:56Z</time>
      </trkpt>
      <trkpt lat="46.48423" lon="5.36352">
        <ele>253.4</ele>
        <time>2022-03-24T15:24:02Z</time>
      </trkpt>
      <trkpt lat="46.48417" lon="5.36354">
        <ele>253.6</ele>
        <time>2022-03-24T15:24:03Z</time>
      </trkpt>
      <trkpt lat="46.48406" lon="5.36361">
        <ele>253.6</ele>
        <time>2022-03-24T15:24:05Z</time>
      </trkpt>
      <trkpt lat="46.48386" lon="5.36379">
        <ele>254</ele>
        <time>2022-03-24T15:24:09Z</time>
      </trkpt>
      <trkpt lat="46.48354" lon="5.36414">
        <ele>254.6</ele>
        <time>2022-03-24T15:24:16Z</time>
      </trkpt>
      <trkpt lat="46.48349" lon="5.36419">
        <ele>254.8</ele>
        <time>2022-03-24T15:24:17Z</time>
      </trkpt>
      <trkpt lat="46.48323" lon="5.36448">
        <ele>255.6</ele>
        <time>2022-03-24T15:24:23Z</time>
      </trkpt>
      <trkpt lat="46.4831" lon="5.36462">
        <ele>256</ele>
        <time>2022-03-24T15:24:26Z</time>
      </trkpt>
      <trkpt lat="46.48281" lon="5.36494">
        <ele>257</ele>
        <time>2022-03-24T15:24:33Z</time>
      </trkpt>
      <trkpt lat="46.48277" lon="5.36499">
        <ele>257.2</ele>
        <time>2022-03-24T15:24:34Z</time>
      </trkpt>
      <trkpt lat="46.48253" lon="5.36525">
        <ele>258.4</ele>
        <time>2022-03-24T15:24:40Z</time>
      </trkpt>
      <trkpt lat="46.48237" lon="5.36542">
        <ele>259</ele>
        <time>2022-03-24T15:24:44Z</time>
      </trkpt>
      <trkpt lat="46.48225" lon="5.36553">
        <ele>259.6</ele>
        <time>2022-03-24T15:24:47Z</time>
      </trkpt>
      <trkpt lat="46.48215" lon="5.36556">
        <ele>260</ele>
        <time>2022-03-24T15:24:49Z</time>
      </trkpt>
      <trkpt lat="46.48206" lon="5.36557">
        <ele>260.2</ele>
        <time>2022-03-24T15:24:51Z</time>
      </trkpt>
      <trkpt lat="46.48197" lon="5.36562">
        <ele>260.4</ele>
        <time>2022-03-24T15:24:53Z</time>
      </trkpt>
      <trkpt lat="46.48193" lon="5.36567">
        <ele>260.4</ele>
        <time>2022-03-24T15:24:54Z</time>
      </trkpt>
      <trkpt lat="46.4819" lon="5.36573">
        <ele>260.4</ele>
        <time>2022-03-24T15:24:55Z</time>
      </trkpt>
      <trkpt lat="46.48188" lon="5.36579">
        <ele>260.6</ele>
        <time>2022-03-24T15:24:56Z</time>
      </trkpt>
      <trkpt lat="46.48183" lon="5.36593">
        <ele>261</ele>
        <time>2022-03-24T15:24:58Z</time>
      </trkpt>
      <trkpt lat="46.4818" lon="5.36599">
        <ele>261.2</ele>
        <time>2022-03-24T15:24:59Z</time>
      </trkpt>
      <trkpt lat="46.48173" lon="5.3661">
        <ele>261.4</ele>
        <time>2022-03-24T15:25:01Z</time>
      </trkpt>
      <trkpt lat="46.48165" lon="5.36619">
        <ele>261.6</ele>
        <time>2022-03-24T15:25:03Z</time>
      </trkpt>
      <trkpt lat="46.48161" lon="5.36623">
        <ele>261.6</ele>
        <time>2022-03-24T15:25:04Z</time>
      </trkpt>
      <trkpt lat="46.48141" lon="5.36646">
        <ele>261.8</ele>
        <time>2022-03-24T15:25:09Z</time>
      </trkpt>
      <trkpt lat="46.48134" lon="5.36654">
        <ele>262</ele>
        <time>2022-03-24T15:25:11Z</time>
      </trkpt>
      <trkpt lat="46.4813" lon="5.3666">
        <ele>262</ele>
        <time>2022-03-24T15:25:12Z</time>
      </trkpt>
      <trkpt lat="46.48115" lon="5.36676">
        <ele>262.4</ele>
        <time>2022-03-24T15:25:16Z</time>
      </trkpt>
      <trkpt lat="46.48106" lon="5.36685">
        <ele>262.8</ele>
        <time>2022-03-24T15:25:20Z</time>
      </trkpt>
      <trkpt lat="46.48104" lon="5.36687">
        <ele>263</ele>
        <time>2022-03-24T15:25:24Z</time>
      </trkpt>
      <trkpt lat="46.48103" lon="5.36691">
        <ele>263.2</ele>
        <time>2022-03-24T15:25:32Z</time>
      </trkpt>
      <trkpt lat="46.48105" lon="5.36699">
        <ele>263.2</ele>
        <time>2022-03-24T15:25:34Z</time>
      </trkpt>
      <trkpt lat="46.48118" lon="5.36714">
        <ele>263.4</ele>
        <time>2022-03-24T15:25:38Z</time>
      </trkpt>
      <trkpt lat="46.48128" lon="5.36724">
        <ele>263.8</ele>
        <time>2022-03-24T15:25:41Z</time>
      </trkpt>
      <trkpt lat="46.48142" lon="5.36738">
        <ele>264.2</ele>
        <time>2022-03-24T15:25:45Z</time>
      </trkpt>
      <trkpt lat="46.48156" lon="5.36751">
        <ele>264.8</ele>
        <time>2022-03-24T15:25:49Z</time>
      </trkpt>
      <trkpt lat="46.48178" lon="5.36769">
        <ele>266</ele>
        <time>2022-03-24T15:25:55Z</time>
      </trkpt>
      <trkpt lat="46.48181" lon="5.36772">
        <ele>266.4</ele>
        <time>2022-03-24T15:25:56Z</time>
      </trkpt>
      <trkpt lat="46.48188" lon="5.36777">
        <ele>267.2</ele>
        <time>2022-03-24T15:25:58Z</time>
      </trkpt>
      <trkpt lat="46.48202" lon="5.36787">
        <ele>268.4</ele>
        <time>2022-03-24T15:26:02Z</time>
      </trkpt>
      <trkpt lat="46.48211" lon="5.36794">
        <ele>269</ele>
        <time>2022-03-24T15:26:05Z</time>
      </trkpt>
      <trkpt lat="46.48221" lon="5.36801">
        <ele>269.6</ele>
        <time>2022-03-24T15:26:08Z</time>
      </trkpt>
      <trkpt lat="46.48233" lon="5.36809">
        <ele>270.4</ele>
        <time>2022-03-24T15:26:12Z</time>
      </trkpt>
      <trkpt lat="46.48236" lon="5.36811">
        <ele>270.8</ele>
        <time>2022-03-24T15:26:13Z</time>
      </trkpt>
      <trkpt lat="46.4825" lon="5.36823">
        <ele>272.2</ele>
        <time>2022-03-24T15:26:18Z</time>
      </trkpt>
      <trkpt lat="46.48259" lon="5.3683">
        <ele>272.8</ele>
        <time>2022-03-24T15:26:21Z</time>
      </trkpt>
    </trkseg>
  </trk>
</gpx>